[[{"header":{"parameterUnit":"m.s-1","parameterCategory":1,"la1":31.0,"la2":29.5877,"lo1":-88.7671,"lo2":-86.6584,"dy":0.0162,"dx":0.0185,"nx":115,"ny":88,"refTime":"2024-08-15T12:00:00:Z","depth":0,"parameterNumber":2,"parameterNumberName":"U-component_of_WINDS"},"data":[0.0,0.0,0.0,0.0,0.0,0.0,0.0,0.0,0.0,0.0,0.0,0.0,0.0,0.0,0.0,0.0,0.0,0.0,0.0,0.0,0.0,0.0,0.0,0.0,0.0,0.0,0.0,0.0,0.0,0.0,0.0,0.0,0.0,0.0,0.0,0.0,0.0,0.0,0.0,0.0,0.0,0.0,0.0,0.0,0.0,0.0,0.0,0.0,0.0,0.0,0.0,0.0,0.0,0.0,0.0,0.0,0.0,0.0,0.0,0.0,0.0,0.0,0.0,0.0,0.0,0.0,0.0,0.0,0.0,0.0,0.0,0.0,0.0,0.0,0.0,0.0,0.0,0.0,0.0,0.0,0.0,0.0,0.0,0.0,0.0,0.0,0.0,0.0,0.0,0.0,0.0,0.0,0.0,0.0,0.0,0.0,0.0,0.0,0.0,0.0,0.0,0.0,0.0,0.0,0.0,0.0,0.0,0.0,0.0,0.0,0.0,0.0,0.0,0.0,0.0,0.0,0.0,0.0,0.0,0.0,0.0,0.0,0.0,0.0,0.0,0.0,0.0,0.0,0.0,0.0,0.0,0.0,0.0,0.0,0.0,0.0,0.0,0.0,0.0,0.0,0.0,0.0,0.0,0.0,0.0,0.0,0.0,0.0,0.0,0.0,0.0,0.0,0.0,0.0,0.0,0.0,0.0,0.0,0.0,0.0,0.0,0.0,0.0,0.0,0.0,0.0,0.0,0.0,0.0,0.0,0.0,0.0,0.0,0.0,0.0,0.0,0.0,0.0,0.0,0.0,0.0,0.0,0.0,0.0,0.0,0.0,0.0,0.0,0.0,0.0,0.0,0.0,0.0,0.0,0.0,0.0,0.0,0.0,0.0,0.0,0.0,0.0,0.0,0.0,0.0,0.0,0.0,0.0,0.0,0.0,0.0,0.0,0.0,0.0,0.0,0.0,0.0,0.0,0.0,0.0,0.0,0.0,0.0,0.0,0.0,0.0,0.0,0.0,0.0,0.0,0.0,0.0,0.0,0.0,0.0,0.0,0.0,0.0,0.0,0.0,0.0,0.0,0.0,0.0,0.0,0.0,0.0,0.0,0.0,0.0,0.0,0.0,0.0,0.0,0.0,0.0,0.0,0.0,0.0,0.0,0.0,0.0,0.0,0.0,0.0,0.0,0.0,0.0,0.0,0.0,0.0,0.0,0.0,0.0,0.0,0.0,0.0,0.0,0.0,0.0,0.0,0.0,0.0,0.0,0.0,0.0,0.0,0.0,0.0,0.0,0.0,0.0,0.0,0.0,0.0,0.0,0.0,0.0,0.0,0.0,0.0,0.0,0.0,0.0,0.0,0.0,0.0,0.0,0.0,0.0,0.0,0.0,0.0,0.0,0.0,0.0,0.0,0.0,0.0,0.0,0.0,0.0,0.0,0.0,0.0,0.0,0.0,0.0,0.0,0.0,0.0,0.0,0.0,0.0,0.0,0.0,0.0,0.0,0.0,0.0,0.0,0.0,0.0,0.0,0.0,0.0,0.0,0.0,0.0,0.0,0.0,0.0,0.0,0.0,0.0,0.0,0.0,0.0,0.0,0.0,0.0,0.0,0.0,0.0,0.0,0.0,0.0,0.0,0.0,0.0,0.0,0.0,0.0,0.0,0.0,0.0,0.0,0.0,0.0,0.0,0.0,0.0,0.0,0.0,0.0,0.0,0.0,0.0,0.0,0.0,0.0,0.0,0.0,0.0,0.0,0.0,0.0,0.0,0.0,0.0,0.0,0.0,0.0,0.0,0.0,0.0,0.0,0.0,0.0,0.0,0.0,0.0,0.0,0.0,0.0,0.0,0.0,0.0,0.0,0.0,0.0,0.0,0.0,0.0,0.0,0.0,0.0,0.0,0.0,0.0,0.0,0.0,0.0,0.0,0.0,0.0,0.0,0.0,0.0,0.0,0.0,0.0,0.0,0.0,0.0,0.0,0.0,0.0,0.0,0.0,0.0,0.0,0.0,0.0,0.0,0.0,0.0,0.0,0.0,0.0,0.0,0.0,0.0,0.0,0.0,0.0,0.0,0.0,0.0,0.0,0.0,0.0,0.0,0.0,0.0,0.0,0.0,0.0,0.0,0.0,0.0,0.0,0.0,0.0,0.0,0.0,0.0,0.0,0.0,0.0,0.0,0.0,0.0,0.0,0.0,0.0,0.0,0.0,0.0,0.0,0.0,0.0,0.0,0.0,0.0,0.0,0.0,0.0,0.0,0.0,0.0,0.0,0.0,0.0,0.0,0.0,0.0,0.0,0.0,0.0,0.0,0.0,0.0,0.0,0.0,0.0,0.0,0.0,0.0,0.0,0.0,0.0,0.0,0.0,0.0,0.0,0.0,0.0,0.0,0.0,0.0,0.0,0.0,0.0,0.0,0.0,0.0,0.0,0.0,0.0,0.0,0.0,0.0,0.0,0.0,0.0,0.0,0.0,0.0,0.0,0.0,0.0,0.0,0.0,0.0,0.0,0.0,0.0,0.0,0.0,0.0,0.0,0.0,0.0,0.0,0.0,0.0,0.0,0.0,0.0,0.0,0.0,0.0,0.0,0.0,0.0,0.0,0.0,0.0,0.0,0.0,0.0,0.0,0.0,0.0,0.0,0.0,0.0,0.0,0.0,0.0,0.0,0.0,0.0,0.0,0.0,0.0,0.0,0.0,0.0,0.0,0.0,0.0,0.0,0.0,0.0,0.0,0.0,0.0,0.0,0.0,0.0,0.0,0.0,0.0,0.0,0.0,0.0,0.0,0.0,0.0,0.0,0.0,0.0,0.0,0.0,0.0,0.0,0.0,0.0,0.0,0.0,0.0,0.0,0.0,0.0,0.0,0.0,0.0,0.0,0.0,0.0,0.0,0.0,0.0,0.0,0.0,0.0,0.0,0.0,0.0,0.0,0.0,0.0,0.0,0.0,0.0,0.0,0.0,0.0,0.0,0.0,0.0,0.0,0.0,0.0,0.0,0.0,0.0,0.0,0.0,0.0,0.0,0.0,0.0,0.0,0.0,0.0,0.0,0.0,0.0,0.0,0.0,0.0,0.0,0.0,0.0,0.0,0.0,0.0,0.0,0.0,0.0,0.0,0.0,0.0,0.0,0.0,0.0,0.0,0.0,0.0,0.0,0.0,0.0,0.0,0.0,0.0,0.0,0.0,0.0,0.0,0.0,0.0,0.0,0.0,0.0,0.0,0.0,0.0,0.0,0.0,0.0,0.0,0.0,0.0,0.0,0.0,0.0,0.0,0.0,0.0,0.0,0.0,0.0,0.0,0.0,0.0,0.0,0.0,0.0,0.0,0.0,0.0,0.0,0.0,0.0,0.0,0.0,0.0,0.0,0.0,0.0,0.0,0.0,0.0,0.0,0.0,0.0,0.0,0.0,0.0,0.0,0.0,0.0,0.0,0.0,0.0,0.0,0.0,0.0,0.0,0.0,0.0,0.0,0.0,0.0,0.0,0.0,0.0,0.0,0.0,0.0,0.0,0.0,0.0,0.0,0.0,0.0,0.0,0.0,0.0,0.0,0.0,0.0,0.0,0.0,0.0,0.0,0.0,0.0,0.0,0.0,0.0,0.0,0.0,0.0,0.0,0.0,0.0,0.0,0.0,0.0,0.0,0.0,0.0,0.0,0.0,0.0,0.0,0.0,0.0,0.0,0.0,0.0,0.0,0.0,0.0,0.0,0.0,0.0,0.0,0.0,0.0,0.0,0.0,0.0,0.0,0.0,0.0,0.0,0.0,0.0,0.0,0.0,0.0,0.0,0.0,0.0,0.0,0.0,0.0,0.0,0.0,0.0,0.0,0.0,0.0,0.0,0.0,0.0,0.0,0.0,0.0,0.0,0.0,0.0,0.0,0.0,0.0,0.0,0.0,0.0,0.0,0.0,0.0,0.0,0.0,0.0,0.0,0.0,0.0,0.0,0.0,0.0,0.0,0.0,0.0,0.0,0.0,0.0,0.0,0.0,0.0,0.0,0.0,0.0,0.0,0.0,0.0,0.0,0.0,0.0,0.0,0.0,0.0,0.0,0.0,0.0,0.0,0.0,0.0,0.0,0.0,0.0,0.0,0.0,0.0,0.0,0.0,0.0,0.0,0.0,0.0,0.0,0.0,0.0,0.0,0.0,0.0,0.0,0.0,0.0,0.0,0.0,0.0,0.0,0.0,0.0,0.0,0.0,0.0,0.0,0.0,0.0,0.0,0.0,0.0,0.0,0.0,0.0,0.0,0.0,0.0,0.0,0.0,-0.1913,0.0,0.0,0.0,0.0,0.0,0.0,0.0,0.0,0.0,0.0,0.0,0.0,0.0,0.0,0.0,0.0,0.0,0.0,0.0,0.0,0.0,0.0,0.0,0.0,0.0,0.0,0.0,0.0,0.0,0.0,0.0,0.0,0.0,0.0,0.0,0.0,0.0,0.0,0.0,0.0,0.0,0.0,0.0,0.0,0.0,0.0,0.0,0.0,0.0,0.0,0.0,0.0,0.0,0.0,0.0,0.0,0.0,0.0,0.0,0.0,0.0,0.0,0.0,0.0,0.0,0.0,0.0,0.0,0.0,0.0,0.0,0.0,0.0,0.0,0.0,0.0,0.0,0.0,0.0,0.0,0.0,0.0,0.0,0.0,0.0,0.0,0.0,0.0,0.0,0.0,0.0,0.0,0.0,0.0,0.0,0.0,0.0,0.0,0.0,0.0,0.0,0.0,0.0,0.0,0.0,0.0,0.0,0.0,0.0,0.0,-0.0657,-0.0635,-0.1057,-0.138,-0.1521,0.0,0.0,0.0,0.0,0.0,0.0,0.0,0.0,0.0,0.0,0.0,0.0,0.0,0.0,0.0,0.0,0.0,0.0,0.0,0.0,0.0,0.0,0.0,0.0,0.0,0.0,0.0,0.0,0.0,0.0,0.0,0.0,0.0,0.0,0.0,0.0,0.0,0.0,0.0,0.0,0.0,0.0,0.0,0.0,0.0,0.0,0.0,0.0,0.0,0.0,0.0,0.0,0.0,0.0,0.0,0.0,0.0,0.0,0.0,0.0,0.0,0.0,0.0,0.0,0.0,0.0,0.0,0.0,0.0,0.0,0.0,0.0,0.0,0.0,0.0,0.0,0.0,0.0,0.0,0.0,0.0,0.0,0.0,0.0,0.0,0.0,0.0,0.0,0.0,0.0,0.0,0.0,0.0,0.0,0.0,0.0,0.0,0.0,0.0,0.0,0.0,0.0,0.0,0.0,0.0,0.0,0.0,0.0,0.0,0.0,0.0,0.0,-0.0904,-0.116,-0.13,0.0,0.0,0.0,0.0,0.0,0.0,0.0,0.0,0.0,0.0,0.0,0.0,0.0,0.0,0.0,0.0,0.0,0.0,0.0,0.0,0.0,0.0,0.0,0.0,0.0,0.0,0.0,0.0,0.0,0.0,0.0,0.0,0.0,0.0,0.0,0.0,0.0,0.0,0.0,0.0,0.0,0.0,0.0,0.0,0.0,0.0,0.0,0.0,0.0,0.0,0.0,0.0,0.0,0.0,0.0,0.0,0.0,0.0,0.0,0.0,0.0,0.0,0.0,0.0,0.0,0.0,0.0,0.0,0.0,0.0,0.0,0.0,0.0,0.0,0.0,0.0,0.0,0.0,0.0,0.0,0.0,0.0,0.0,0.0,0.0,0.0,0.0,0.0,0.0,0.0,0.0,0.0,0.0,0.0,0.0,0.0,0.0,0.0,0.0,0.0,0.0,0.0,0.0,0.0,0.0,0.0,0.0,0.0,0.0,0.0,-0.0324,-0.0834,-0.0616,0.0,-0.1215,0.0,0.0,0.0,0.0,0.0,0.0,0.0,0.0,0.0,0.0,0.0,0.0,0.0,0.0,0.0,0.0,0.0,0.0,0.0,0.0,0.0,0.0,0.0,0.0,0.0,0.0,0.0,0.0,0.0,0.0,0.0,0.0,0.0,0.0,0.0,0.0,0.0,0.0,0.0,0.0,0.0,0.0,0.0,0.0,0.0,0.0,0.0,0.0,0.0,0.0,0.0,0.0,0.0,0.0,0.0,0.0,0.0,0.0,0.0,0.0,0.0,0.0,0.0,0.0,0.0,0.0,0.0,0.0,0.0,0.0,0.0,0.0,0.0,0.0,0.0,0.0,0.0,0.0,0.0,0.0,0.0,0.0,0.0,0.0,0.0,0.0,0.0,0.0,0.0,0.0,0.0,0.0,0.0,0.0,0.0,0.0,0.0,0.0,0.0,0.0,0.0,0.0,0.0,0.0,0.0,0.0,0.0,0.0,0.0,0.0,-0.1651,-0.138,-0.0747,-0.0278,0.0,0.0,0.0,0.0,0.0,0.0,0.0,0.0,0.0,0.0,0.0,0.0,0.0,0.0,0.0,0.0,0.0,0.0,0.0,0.0,0.0,0.0,0.0,0.0,0.0,0.0,0.0,0.0,0.0,0.0,0.0,0.0,0.0,0.0,0.0,0.0,0.0,0.0,0.0,0.0,0.0,0.0,0.0,0.0,0.0,0.0,0.0,0.0,0.0,0.0,0.0,0.0,0.0,0.0,0.0,0.0,0.0,0.0,0.0,0.0,0.0,0.0,0.0,0.0,0.0,0.0,0.0,0.0,0.0,0.0,0.0,0.0,0.0,0.0,0.0,0.0,0.0,0.0,0.0,0.0,0.0,0.0,0.0,0.0,0.0,0.0,0.0,0.0,0.0,0.0,0.0,0.0,0.0,0.0,0.0,0.0,0.0,0.0,0.0,0.0,0.0,0.0,0.0,0.0,0.0,0.0,0.0,0.0,0.0,0.0,-0.3295,-0.3224,-0.2192,-0.0804,0.0173,0.0643,0.0,0.0,0.0,0.0,0.0,0.0,0.0,0.0,0.0,0.0,0.0,0.0,0.0,0.0,0.0,0.0,0.0,0.0,0.0,0.0,0.0,0.0,0.0,0.0,0.0,0.0,0.0,0.0,0.0,0.0,0.0,0.0,0.0,0.0,0.0,0.0,0.0,0.0,0.0,0.0,0.0,0.0,0.0,0.0,0.0,0.0,0.0,0.0,0.0,0.0,0.0,0.0,0.0,0.0,0.0,0.0,0.0,0.0,0.0,0.0,0.0,0.0,0.0,0.0,0.0,0.0,0.0,0.0,0.0,0.0,0.0,0.0,0.0,0.0,0.0,0.0,0.0,0.0,0.0,0.0,0.0,0.0,0.0,0.0,0.0,0.0,0.0,0.0,0.0,0.0,0.0,0.0,0.0,0.0,0.0,0.0,0.0,0.0,0.0,0.0,0.0,0.0,0.0,0.0,0.0,0.0,0.0,0.0,-0.5339,-0.5454,-0.48,-0.3364,-0.0648,0.0593,0.0,0.0,0.0,0.0,0.0,0.0,0.0,0.0,0.0,0.0,0.0,0.0,0.0,0.0,0.0,0.0,0.0,0.0,0.0,0.0,0.0,0.0,0.0,0.0,0.0,0.0,0.0,0.0,0.0,0.0,0.0,0.0,0.0,0.0,0.0,0.0,0.0,0.0,0.0,0.0,0.0,0.0,0.0,0.0,0.0,0.0,0.0,0.0,0.0,0.0,0.0,0.0,0.0,0.0,0.0,0.0,0.0,0.0,0.0,0.0,0.0,0.0,0.0,0.0,0.0,0.0,0.0,0.0,0.0,0.0,0.0,0.0,0.0,0.0,0.0,0.0,0.0,0.0,0.0,0.0,0.0,0.0,0.0,0.0,0.0,0.0,0.0,0.0,0.0,0.0,0.0,0.0,0.0,0.0,0.0,0.0,0.0,0.0,0.0,0.0,0.0,0.0,0.0,0.0,0.0,0.0,0.0,0.0,0.0,-0.4767,-0.4841,-0.4005,-0.231,-0.0425,0.0929,0.0,0.0,0.0,0.0,0.0,0.0,0.0,0.0,0.0,0.0,0.0,0.0,0.0,0.0,0.0,0.0,0.0,0.0,0.0,0.0,0.0,0.0,0.0,0.0,0.0,0.0,0.0,0.0,0.0,0.0,0.0,0.0,0.0,0.0,0.0,0.0,0.0,0.0,0.0,0.0,0.0,0.0,0.0,0.0,0.0,0.0,0.0,0.0,0.0,0.0,0.0,0.0,0.0,0.0,0.0,0.0,0.0,0.0,0.0,0.0,0.0,0.0,0.0,0.0,0.0,0.0,0.0,0.0,0.0,0.0,0.0,0.0,0.0,0.0,0.0,0.0,0.0,0.0,0.0,0.0,0.0,0.0,0.0,0.0,0.0,0.0,0.0,0.0,0.0,0.0,0.0,0.0,0.0,0.0,0.0,0.0,0.0,0.0,0.0,0.0,0.0,0.0,0.0,0.0,0.0,0.0,0.0,0.0,0.0,-0.2948,0.0,-0.1858,0.0,0.1136,0.1997,0.0,0.0,0.0,0.0,0.0,0.0,0.0,0.0,0.0,0.0,0.0,0.0,0.0,0.0,0.0,0.0,0.0,0.0,0.0,0.0,0.0,0.0,0.0,0.0,0.0,0.0,0.0,0.0,0.0,0.0,0.0,0.0,0.0,0.0,0.0,0.0,0.0,0.0,0.0,0.0,0.0,0.0,0.0,0.0,0.0,0.0,0.0,0.0,0.0,0.0,0.0,0.0,0.0,0.0,0.0,0.0,0.0,0.0,0.0,0.0,0.0,0.0,0.0,0.0,0.0,0.0,0.0,0.0,0.0,0.0,0.0,0.0,0.0,0.0,0.0,0.0,0.0,0.0,0.0,0.0,0.0,0.0,0.0,0.0,0.0,0.0,0.0,0.0,0.0,0.0,0.0,0.0,0.0,0.0,0.0,0.0,0.0,0.0,0.0,0.0,0.0,0.0,0.0,0.0,0.0,0.0,0.0,0.0,-0.0426,0.0,0.0568,0.1511,0.2894,0.4,0.3769,0.0,0.0,0.0,0.0,0.0,0.0,0.0,0.0,0.0,0.0,0.0,0.0,0.0,0.0,0.0,0.0,0.0,0.0,0.0,0.0,0.0,0.0,0.0,0.0,0.0,0.0,0.0,0.0,0.0,0.0,0.0,0.0,0.0,0.0,0.0,0.0,0.0,0.0,0.0,0.0,0.0,0.0,0.0,0.0,0.0,0.0,0.0,0.0,0.0,0.0,0.0,0.0,0.0,0.0,0.0,0.0,0.0,0.0,0.0,0.0,0.0,0.0,0.0,0.0,0.0,0.0,0.0,0.0,0.0,0.0,0.0,0.0,0.0,0.0,0.0,0.0,0.0,0.0,0.0,0.0,0.0,0.0,0.0,0.0,0.0,0.0,0.0,0.0,0.0,0.0,0.0,0.0,0.0,0.0,0.0,0.0,0.0,0.0,0.0,0.0,0.0,0.0,0.0,0.0,0.0,0.0,0.0,0.0,0.0,0.1896,0.2917,0.4071,0.5159,0.4313,0.3657,0.0,0.0,0.0,0.0,0.0,0.0,0.0,0.0,0.0,0.0,0.0,0.0,0.0,0.0,0.0,0.0,0.0,0.0,0.0,0.0,0.0,0.0,0.0,0.0,0.0,0.0,0.0,0.0,0.0,0.0,0.0,0.0,0.0,0.0,0.0,0.0,0.0,0.0,0.0,0.0,0.0,0.0,0.0,0.0,0.0,0.0,0.0,0.0,0.0,0.0,0.0,0.0,0.0,0.0,0.0,0.0,0.0,0.0,0.0,0.0,0.0,0.0,0.0,0.0,0.0,0.0,0.0,0.0,0.0,0.0,0.0,0.0,0.0,0.0,0.0,0.0,0.0,0.0,0.0,0.0,0.0,0.0,0.0,0.0,0.0,0.0,0.0,0.0,0.0,0.0,0.0,0.0,0.0,0.0,0.0,0.0,0.0,0.0,0.0,0.0,0.0,0.0,0.0,0.0,0.0,0.0,0.0,0.0,0.0,0.5825,0.6684,0.7307,0.7551,0.5638,0.4083,0.3023,0.0,0.0,0.0,0.0,0.0,0.0,0.0,0.0,0.0,0.0,0.0,0.0,0.0,0.0,0.0,0.0,0.0,0.0,0.0,0.0,0.0,0.0,0.0,0.0,0.0,0.0,0.0,0.0,0.0,0.0,0.0,0.0,0.0,0.0,0.0,0.0,0.0,0.0,0.0,0.0,0.0,0.0,0.0,0.0,0.0,0.0,0.0,0.0,0.0,0.0,0.0,0.0,0.0,0.0,0.0,0.0,0.0,0.0,0.0,0.0,0.0,0.0,0.0,0.0,0.0,0.0,0.0,0.0,0.0,0.0,0.0,0.0,0.0,0.0,0.0,0.0,0.0,0.0,0.0,0.0,0.0,0.0,0.0,0.0,0.0,0.0,0.0,0.0,0.0,0.0,0.0,0.0,0.0,0.0,0.0,0.0,0.0,0.0,0.0,0.0,0.0,0.0,0.0,0.0,0.0,0.0,0.0,0.0,1.0738,1.0919,1.046,0.9496,0.7405,0.4773,0.0,0.0,0.0,0.0,0.0,0.0,0.0,0.0,0.0,0.0,0.0,0.0,0.0,0.0,0.0,0.0,0.0,0.0,0.0,0.0,0.0,0.0,0.0,0.0,0.0,0.0,0.0,0.0,0.0,0.0,0.0,0.0,0.0,0.0,0.0,0.0,0.0,0.0,0.0,0.0,0.0,0.0,0.0,0.0,0.0,0.0,0.0,0.0,0.0,0.0,0.0,0.0,0.0,0.0,0.0,0.0,0.0,0.0,0.0,0.0,0.0,0.0,0.0,0.0,0.0,0.0,0.0,0.0,0.0,0.0,0.0,0.0,0.0,0.0,0.0,0.0,0.0,0.0,0.0,0.0,0.0,0.0,0.0,0.0,0.0,0.0,0.0,0.0,0.0,0.0,0.0,0.0,0.0,0.0,0.0,0.0,0.0,0.0,0.0,0.0,0.0,0.0,0.0,0.0,0.0,0.0,0.0,0.0,0.0,0.8686,0.7196,0.6869,0.7814,0.5103,0.2871,0.0,0.0,0.0,0.0,0.0,0.0,0.0,0.0,0.0,0.0,0.0,0.0,0.0,0.0,0.0,0.0,0.0,0.0,0.0,0.0,0.0,0.0,0.0,0.0,0.0,0.0,0.0,0.0,0.0,0.0,0.0,0.0,0.0,0.0,0.0,0.0,0.0,0.0,0.0,0.0,0.0,0.0,0.0,0.0,0.0,0.0,0.0,0.0,0.0,0.0,0.0,0.0,0.0,0.0,0.0,0.0,0.0,0.0,0.0,0.0,0.0,0.0,0.0,0.0,0.0,0.0,0.0,0.0,0.0,0.0,0.0,0.0,0.0,0.0,0.0,0.0,0.0,0.0,0.0,0.0,0.0,0.0,0.0,0.0,0.0,0.0,0.0,0.0,0.0,0.0,0.0,0.0,0.0,0.0,0.0,0.0,0.0,0.0,0.0,0.0,0.0,0.0,0.0,0.0,0.0,0.0,0.0,0.0,0.6466,0.5799,0.3256,0.2243,0.2902,0.185,0.0931,0.0,0.0,0.0,0.0,0.0,0.0,0.0,0.0,0.0,0.0,0.0,0.0,0.0,0.0,0.0,0.0,0.0,0.0,0.0,0.0,0.0,0.0,0.0,0.0,0.0,0.0,0.0,0.0,0.0,0.0,0.0,0.0,0.0,0.0,0.0,0.0,0.0,0.0,0.0,0.0,0.0,0.0,0.0,0.0,0.0,0.0,0.0,0.0,0.0,0.0,0.0,0.0,0.0,0.0,0.0,0.0,0.0,0.0,0.0,0.0,0.0,0.0,0.0,0.0,0.0,0.0,0.0,0.0,0.0,0.0,0.0,0.0,0.0,0.0,0.0,0.0,0.0,0.0,0.0,0.0,0.0,0.0,0.0,0.0,0.0,0.0,0.0,0.0,0.0,0.0,0.0,0.0,0.0,0.0,0.0,0.0,0.0,0.0,0.0,0.0,0.0,0.0,0.0,0.0,0.0,0.0,0.0,0.0,0.3998,0.1998,-0.0807,-0.269,-0.3473,-0.1752,-0.093,0.0,0.0,0.0,0.0,0.0,0.0,0.0,0.0,0.0,0.0,0.0,0.0,0.0,0.0,0.0,0.0,0.0,0.0,0.0,0.0,0.0,0.0,0.0,0.0,0.0,0.0,0.0,0.0,0.0,0.0,0.0,0.0,0.0,0.0,0.0,0.0,0.0,0.0,0.0,0.0,0.0,0.0,0.0,0.0,0.0,0.0,0.0,0.0,0.0,0.0,0.0,0.0,0.0,0.0,0.0,0.0,0.0,0.0,0.0,0.0,0.0,0.0,0.0,0.0,0.0,0.0,0.0,0.0,0.0,0.0,0.0,0.0,0.0,0.0,0.0,0.0,0.0,0.0,0.0,0.0,0.0,0.0,0.0,0.0,0.0,0.0,0.0,0.0,0.0,0.0,0.0,0.0,0.0,0.0,0.0,0.0,0.0,0.0,0.0,0.0,0.0,0.0,0.0,0.0,0.0,0.0,0.0,0.0,-0.0926,-0.3367,-0.4789,-0.5879,-0.6596,-0.3972,-0.2487,0.0,0.0,0.0,0.0,0.0,0.0,0.0,0.0,0.0,0.0,0.0,0.0,0.0,0.0,0.0,0.0,0.0,0.0,0.0,0.0,0.0,0.0,0.0,0.0,0.0,0.0,0.0,0.0,0.0,0.0,0.0,0.0,0.0,0.0,0.0,0.0,0.0,0.0,0.0,0.0,0.0,0.0,0.0,0.0,0.0,0.0,0.0,0.0,0.0282,0.0,0.0,0.0,0.0,0.0,0.0,0.0,0.0,0.0,0.0,0.0,0.0,0.0,0.0,0.0,0.0,0.0,0.0,0.0,0.0,0.0,0.0,0.0,0.0,0.0,0.0,0.0,0.0,0.0,0.0,0.0,0.0,0.0,0.0,0.0,0.0,0.0,0.0,0.0,0.0,0.0,0.0,0.0,0.0,0.0,0.0,0.0,0.0,0.0,0.0,0.0,0.0,0.0,0.0,0.0,0.0,0.0,0.0,0.0,-0.4548,-0.6727,-0.761,-0.8089,-0.8036,-0.6192,-0.4596,0.0,0.0,0.0,0.0,0.0,0.0,0.0,0.0,0.0,0.0,0.0,0.0,0.0,0.0,0.0,0.0,0.0,0.0,0.0,0.0,0.0,0.0,0.0,0.0,0.0,0.0,0.0,0.0,0.0,0.0,0.0,0.0,0.0,0.0,0.0,0.0,0.0,0.0,0.0,0.0,0.0,0.0,0.0,0.0,0.0,0.0,0.0,0.0,0.0,0.0,0.0,0.0,0.0,0.0,0.0,0.0,0.0,0.0,0.0,0.0,0.0,0.0,0.0,0.0,0.0,0.0,0.0,0.0,0.0,0.0,0.0,0.0,0.0,0.0,0.0,0.0,0.0,0.0,0.0,0.0,0.0,0.0,0.0,0.0,0.0,0.0,0.0,0.0,0.0,0.0,0.0,0.0,0.0,0.0,0.0,0.0,0.0,0.0,0.0,0.0,0.0,0.0,0.0,0.0,0.0,0.0,0.0,-0.5291,-0.7167,-0.9079,-0.967,-0.9618,-0.8888,-0.7876,-0.6401,-0.4351,0.0,0.0,0.0,0.0,0.0,0.0,0.0,0.0,0.0,0.0,0.0,0.0,0.0,0.0,0.0,0.0,0.0,0.0,0.0,0.0,0.0,0.0,0.0,0.0,0.0,0.0,0.0,0.0,0.0,0.0,0.0,0.0,0.0,0.0,0.0,0.0,0.0,0.0,0.1391,0.0573,0.0,0.0,0.0,0.0,0.0,0.0,0.0,0.0,0.0,0.0,0.0,0.0,0.0,0.0,0.0,0.0,0.0,0.0,0.0,0.0,0.0,0.0,0.0,0.0,0.0,0.0,0.0,0.0,0.0,0.0,0.0,0.0,0.0,0.0,0.0,0.0,0.0,0.0,0.0,0.0,0.0,0.0,0.0,0.0,0.0,0.0,0.0,0.0,0.0,0.0,0.0,0.0,0.0,0.0,0.0,0.0,0.0,0.0,0.0,0.0,0.0,0.0,0.0,0.0,0.0,-0.4742,-0.6311,-0.8452,-1.119,-1.0856,-1.0312,-0.9592,-0.7738,-0.6333,-0.5447,0.0,0.0,0.0,0.0,0.0,0.0,0.0,0.0,0.0,0.0,0.0,0.0,0.0,0.0,0.0,0.0,0.0,0.0,0.0,0.0,0.0,0.0,0.0,0.0,0.0,0.0,0.0,0.0,0.0,0.0,0.0,0.0,0.0,0.0,0.0,0.0,0.0,0.0,0.0,0.0102,0.0,0.0,0.0,0.0,0.0,0.0,0.0,0.0,0.0,0.0,0.0,0.0,0.0,0.0,0.0,0.0,0.0,0.0,0.0,0.0,0.0,0.0,0.0,0.0,0.0,0.0,0.0,0.0,0.0,0.0,0.0,0.0,0.0,0.0,0.0,0.0,0.0,0.0,0.0,0.0,0.0,0.0,0.0,0.0,0.0,0.0,0.0,0.0,0.0,0.0,0.0,0.0,0.0,0.0,0.0,0.0,0.0,0.0,0.0,0.0,0.0,0.0,0.0,0.0,0.0,-0.6647,-0.8106,-0.9776,-1.1626,-1.078,-0.9953,-0.924,-0.7775,-0.6417,0.0,0.0,0.0,0.0,0.0,0.0,0.0,0.0,0.0,0.0,0.0,0.0,0.0,0.0,0.0,0.0,0.0,0.0,0.0,0.0,0.0,0.0,0.0,0.0,0.0,0.0,0.0,0.0,0.0,0.0,0.0,0.0,0.0,0.0,0.0,0.0,0.0,0.0,0.0,0.0,-0.1003,-0.1262,-0.1143,0.0,0.0,0.0,0.0,0.0,0.0,-0.087,-0.0646,0.0,0.0,0.0,0.0,0.0,0.0,0.0,0.0,0.0,0.0,0.0,0.0,0.0,0.0,0.0,0.0,0.0,0.0,0.0,0.0,0.0,0.0,0.0,0.0,0.0,0.0,0.0,0.0,0.0,0.0,0.0,0.0,0.0,0.0,0.0,0.0,0.0,0.0,0.0,0.0,0.0,0.0,0.0,0.0,0.0,0.0,0.0,0.0,0.0,0.0,0.0,0.0,0.0,0.0,0.0,-0.7467,-0.8593,-0.9632,-1.0548,-0.9662,-0.8862,-0.8278,-0.7367,-0.6159,0.0,0.0,0.0,0.0,0.0,0.0,0.0,0.0,0.0,0.0,0.0,0.0,0.0,0.0,0.0,0.0,0.0,0.0,0.0,0.0,0.0,0.0,0.0,0.0,0.0,0.0,0.0,0.0,0.0,0.0,0.0,0.0,0.0,0.0,0.0,0.0,0.0,0.0,0.0,0.0,0.0,-0.2471,-0.2285,-0.2395,0.0,0.0,0.0,0.0,-0.2076,-0.1649,0.0,0.0,0.0,0.0,0.0,0.0,0.0,0.0,0.0,0.0,0.0,0.0,0.0,0.0,0.0,0.0,0.0,0.0,0.0,0.0,0.0,0.0,0.0,0.0,0.0,0.0,0.0,0.0,0.0,0.0,0.0,0.0,0.0,0.0,0.0,0.0,0.0,0.0,0.0,0.0,0.0,0.0,0.0,0.0,0.0,0.0,0.0,0.0,0.0,0.0,0.0,0.0,0.0,0.0,0.0,0.0,-0.4849,-0.5385,-0.6086,-0.7027,-0.6961,-0.686,-0.6821,-0.5977,-0.5072,0.0,0.0,0.0,0.0,0.0,0.0,0.0,0.0,0.0,0.0,0.0,0.0,0.0,0.0,0.0,0.0,0.0,0.0,0.0,0.0,0.0,0.0,0.0,0.0,0.0,0.0,0.0,0.0,0.0,0.0,0.0,0.0,0.0,0.0,0.0,0.0,0.0,0.0,0.0,0.0,0.0,-0.2621,-0.2488,-0.2486,-0.2545,0.0,0.0,-0.2376,-0.1516,-0.1489,0.0,0.0,0.0,0.0,0.0,0.0,0.0,0.0,0.0,0.0,0.0,0.0,0.0,0.0,0.0,0.0,0.0,0.0,0.0,0.0,0.0,0.0,0.0,0.0,0.0,0.0,0.0,0.0,0.0,0.0,0.0,0.0,0.0,0.0,0.0,0.0,0.0,0.0,0.0,0.0,0.0,0.0,0.0,0.0,0.0,0.0,0.0,0.0,0.0,0.0,0.0,0.0,0.0,0.0,0.0,-0.0789,-0.2245,-0.3036,-0.3843,-0.4659,-0.51,-0.5128,-0.472,-0.4223,-0.3572,0.0,0.0,0.0,0.0,0.0,0.0,0.0,0.0,0.0,0.0,0.0,0.0,0.0,0.0,0.0,0.0,0.0,0.0,0.0,0.0,0.0,0.0,0.0,0.0,0.0,0.0,0.0,0.0,0.0,0.0,0.0,0.0,0.0,0.0,0.0,0.0,0.0,0.0,0.0,0.0,0.0,0.0,-0.3988,-0.4072,0.0,0.0,0.0,-0.3861,-0.2888,0.0,0.0,0.0,0.0,0.0,0.0,0.0,0.0,0.0,0.0,0.0,0.0,0.0,0.0,0.0,0.0,0.0,0.0,0.0,0.0,0.0,0.0,0.0,0.0,0.0,0.0,0.0,0.0,0.0,0.0,0.0,0.0,0.0,0.0,0.0,0.0,0.0,0.0,0.0,0.0,0.0,0.0,0.0,0.0,0.0,0.0,0.0,0.0,0.0,0.0,0.0,0.0,0.0,0.0,0.0,0.0,0.0,0.0325,-0.0983,-0.192,-0.247,-0.3373,-0.3668,-0.3319,-0.3079,0.0,0.0,0.0,0.0,0.0,0.0,0.0,0.0,0.0,0.0,0.0,0.0,0.0,0.0,0.0,0.0,0.0,0.0,0.0,0.0,0.0,0.0,0.0,0.0,0.0,0.0,0.0,0.2954,0.0,0.0,0.0,0.0,0.0,0.0,0.0,0.0,0.0,0.0,0.0,0.0,0.0,0.0,-0.5203,-0.5208,-0.5345,-0.5463,0.0,0.0,-0.5058,-0.3791,-0.3214,-0.2449,0.0,0.0,0.0,0.0,0.0,0.0,0.0,0.0,0.0,0.0,0.0,0.0,0.0,0.0,0.0,0.0,0.0,0.0,0.0,0.0,0.0,0.0,0.0,0.0,0.0,0.0,0.0,0.0,0.0,0.0,0.0,0.0,0.0,0.0,0.0,0.0,0.0,0.0,0.0,0.0,0.0,0.0,0.0,0.0,0.0,0.0,0.0,0.0,0.0,0.0,0.0,0.0,0.0,0.0,0.2024,0.2761,0.0876,-0.0181,-0.0273,-0.1604,-0.2674,-0.3365,-0.3172,-0.2472,0.0,0.0,0.0,0.0,0.0,0.0,0.0,0.0,0.0,0.0,0.0,0.0,0.0,0.0,0.0,0.0,0.0,0.0,0.0,0.0,0.0,0.0,0.0,0.0,0.0,0.0,0.0,0.0,0.0,0.0,0.0,0.0,0.0,0.0,0.0,0.0,0.0,0.0,0.0,0.0,0.0,-0.5433,-0.5538,-0.5569,-0.5623,0.0,-0.5769,-0.512,-0.3249,-0.304,-0.238,-0.0395,0.0,0.0,0.0,0.0,0.0,0.0,0.0,0.0,0.0,0.0,0.0,0.0,0.0,0.0,0.0,0.0,0.0,0.0,0.0,0.0,0.0,0.0,0.0,0.0,0.0,0.0,0.0,0.0,0.0,0.0,0.0,0.0,0.0,0.0,0.0,0.0,0.0,0.0,0.0,0.0,0.0,0.0,0.0,0.0,0.0,0.0,0.0,0.0,0.0,0.0,0.0,0.0,0.0,0.329,0.3612,0.1979,0.096,0.0634,-0.0778,-0.1896,-0.2647,-0.2505,-0.2011,0.0,0.0,0.0,0.0,0.0,0.0,0.0,0.0,0.0,0.0,0.0,0.0,0.0,0.0,0.0,0.0,0.0,0.0,0.0,0.0,0.0,0.0,0.0,0.0,0.0,0.0,0.0,0.0,0.171,0.1036,0.0247,0.0,0.0,0.0,0.0,0.0,0.0,0.0,0.0,0.0,0.0,-0.5722,-0.6003,-0.604,0.0,0.0,-0.6177,-0.5626,-0.4218,-0.3583,-0.2754,-0.1238,-0.0433,0.0,0.0,0.0,0.0,0.0,0.0,0.0,0.0,0.0,0.0,0.0,0.0,0.0,0.0,0.0,0.0,0.0,0.0,0.0,0.0,0.0,0.0,0.0,0.0,0.0,0.0,0.0,0.0,0.0,0.0,0.0,0.0,0.0,0.0,0.0,0.0,0.0,0.0,0.0,0.0,0.0,0.0,0.0,0.0,0.0,0.0,0.0,0.0,0.0,0.0,0.0,0.0,0.4237,0.4274,0.2446,0.1245,0.0774,-0.089,-0.2007,-0.2506,-0.2401,-0.2036,0.0,0.0,0.0,0.0,0.0,0.0,0.0,0.0,0.0,0.0,0.0,0.0,0.0,0.0,0.0,0.0,0.0,0.0,0.0,0.0,0.0,0.0,0.0,0.0,0.0,0.0,0.0,0.0,0.1263,0.0579,0.0,0.0,0.0,0.0,0.0,0.0,0.0,0.0,0.0,0.0,0.0,-0.5966,-0.6259,-0.6334,-0.6277,-0.6014,-0.5874,-0.5365,-0.3984,-0.3544,-0.2879,-0.1371,0.0,0.0,0.0,0.0,0.0,0.0,0.0,0.0,0.0,0.0,0.0,0.0,0.0,0.0,0.0,0.0,0.0,0.0,0.0,0.0,0.0,0.0,0.0,0.0,0.0,0.0,0.0,0.4715,0.0,0.0,0.4347,0.0,0.0,0.0,0.0,0.0,0.0,0.0,0.0,0.0,0.0,0.0,0.0,0.0,0.0,0.0,0.0,0.0,0.0,0.0,0.0,0.0,0.0,0.4754,0.4917,0.2146,0.0489,-0.0055,-0.213,-0.3259,-0.3312,-0.3182,-0.2762,-0.2029,0.0,0.0,0.0,0.0,0.0,0.0,0.0,0.0,0.0,0.0,0.0,0.0,0.0,0.0,0.0,0.0,0.0,0.0,0.0,0.0,0.0,0.0,0.0,0.0,0.0,0.0,0.1616,0.0629,0.0,0.0,0.0,0.0,0.0,0.0,0.0,0.0,0.0,0.0,-0.5396,-0.5801,-0.6047,-0.6286,-0.6422,-0.6117,-0.4985,-0.4807,-0.4062,-0.2102,-0.263,-0.2548,0.0,0.0,0.0,0.0,0.0,0.0,0.0,0.0,0.0,0.0,0.0,0.0,0.0,0.0,0.0,0.0,0.0,0.0,0.0,0.0,0.0,0.0,0.0,0.0,0.0,0.0,0.0,0.621,0.5846,0.0,0.0,0.0,0.0,0.0,0.0,0.0,0.0,0.0,0.0,0.0,-0.0273,-0.1373,0.0,0.0,0.0,0.0,0.0,0.0,0.0,0.0,0.0,0.0,0.0,0.0,0.4544,0.4086,0.1403,-0.0741,-0.2175,-0.3872,-0.5004,-0.5483,-0.5353,-0.4682,-0.3366,0.0,0.0,0.0,0.0,0.0,0.0,0.0,0.0,0.0,0.0,0.0,0.0,0.0,0.0,0.0,0.0,0.0,0.0,0.0,0.0,0.0,0.0,0.0,0.0,0.0,0.2296,0.0,0.0,0.0,0.0,0.0,0.0,0.0,0.0,0.0,0.0,-0.4365,-0.4621,-0.5585,-0.6159,-0.6495,-0.6546,-0.6681,-0.6609,0.0,0.0,0.0,0.0,0.0,0.0,0.0,0.0,0.0,0.0,0.0,0.0,0.0,0.0,-0.105,-0.0157,-0.0722,-0.1356,-0.1343,0.0,0.0,0.0,0.0,0.0,0.0,0.0,0.0,0.0,0.0,0.0,0.0,0.0,0.0,0.7182,0.6959,0.6892,0.0,0.0,0.0,0.0,0.0,0.0,0.0,0.0,0.3109,0.2132,0.1192,0.0415,0.0872,0.2451,0.4026,0.4482,0.0,0.0,0.0,0.0,0.0,0.0,0.0,0.0,0.4532,0.3567,0.0521,-0.1938,-0.3647,-0.5105,-0.6099,-0.6583,-0.6472,-0.5799,-0.45,-0.3443,-0.2461,0.0,0.0,0.0,0.0,0.0,0.0,0.0,0.0,0.0,0.0,0.0,0.0,0.0,0.0,0.0,0.0,0.0,0.0,0.0,0.0,0.0,0.0,0.0,0.1573,0.0,0.0,0.0,0.0,0.0,0.0,0.0,0.0,0.0,-0.5693,-0.5284,-0.5285,-0.6006,-0.6495,-0.678,-0.678,0.0,0.0,0.0,0.0,0.0,0.0,0.0,-0.3919,-0.2638,-0.1833,-0.1015,-0.0172,-0.0359,-0.0694,-0.0693,0.0,0.0,-0.0345,-0.1463,-0.2788,-0.3106,-0.3988,-0.4634,-0.4626,-0.4954,-0.5101,0.0,0.0,0.0,0.0,0.7712,0.0,0.0,0.0,0.7802,0.7898,0.0,0.7848,0.0,0.0,0.0,0.0,0.6767,0.6616,0.0,0.0,0.4965,0.3942,0.3251,0.2931,0.3589,0.5187,0.7835,1.0137,1.1977,1.0981,0.0,0.0,0.0,0.0,0.0,0.0,0.4765,0.3199,-0.0538,-0.3131,-0.4521,-0.5928,-0.6696,-0.6691,-0.653,-0.6116,-0.5393,-0.5083,-0.4223,-0.2732,-0.1848,0.0,0.0,0.0,0.0,0.0,0.0,0.0,0.0,0.0,0.0,0.0,0.0,0.0,0.0,0.0,0.0,0.0,0.0,0.0,0.0,0.1212,0.0,0.0,0.0,0.0,0.0,0.0,0.0,0.0,0.0,-0.6294,-0.6335,-0.6121,-0.6172,-0.6634,0.0,0.0,0.0,0.0,-0.6564,-0.5669,-0.5498,-0.5197,-0.4259,-0.5057,-0.5334,-0.4103,0.0,0.0,-0.0499,-0.1133,-0.1982,-0.2053,-0.3151,-0.3215,-0.0653,-0.2343,-0.4268,-0.5107,-0.559,-0.5837,-0.5925,-0.6734,-0.7174,0.9459,0.0,0.0,0.0,0.0,0.8714,0.9087,1.0233,0.9568,0.9226,0.9125,0.9102,0.0,0.0,0.0,0.0,0.0,0.0,0.7972,0.7904,0.7131,0.6534,0.6105,0.6406,0.7594,0.9678,1.2039,1.4426,1.6709,1.7039,1.5369,1.1911,0.0,0.0,0.0,0.0,0.3711,0.1154,-0.2207,-0.4866,-0.6738,-0.7688,-0.8182,-0.815,-0.7522,-0.7083,-0.6874,-0.62,-0.5352,-0.4282,-0.3379,0.0,0.0,0.0,0.0,0.0,0.0,0.0,0.0,0.0,0.0,0.0,0.0,0.0,0.0,0.0,0.0,0.0,0.0,0.0,0.0409,0.0134,-0.0365,0.0,0.0,0.0,0.0,0.0,0.0,0.0,0.0,0.0,-0.7095,-0.6803,-0.6556,0.0,0.0,-0.7204,-0.7051,-0.7268,-0.7283,-0.6993,-0.6968,0.0,-0.5445,-0.5573,-0.5065,-0.2918,-0.1761,-0.1137,-0.1418,-0.173,-0.2287,-0.3241,-0.4518,-0.4872,-0.3363,-0.4221,-0.5345,-0.5526,-0.6424,-0.735,-0.7398,-0.777,-0.8025,1.0897,1.0079,0.9609,0.9795,1.037,0.9676,0.9849,1.0552,0.9987,0.9929,1.0219,1.007,0.9716,0.9271,0.9601,0.0,0.0,0.0,1.0345,1.0316,0.9622,0.9184,0.9075,0.9986,1.157,1.3711,1.6205,1.8464,2.0471,2.0945,1.8894,1.4612,0.0,1.2299,0.9408,0.6091,0.2952,-0.0094,-0.3582,-0.6127,-0.7664,-0.8408,-0.8778,-0.8778,-0.8287,-0.8011,-0.8005,-0.7648,-0.7002,-0.597,-0.4977,-0.3521,0.0,0.0,0.0,0.0,0.0,0.0,0.0,0.0,0.0,0.0,0.0,0.6327,0.4433,0.0,0.0,0.0,-0.0378,-0.1792,-0.1176,-0.1271,0.0,0.0,0.0,0.0,0.0,0.0,0.0,-0.402,-0.5424,-0.6709,-0.7478,-0.7316,-0.7119,-0.7139,-0.7326,-0.7448,-0.7411,0.0,-0.7621,-0.7675,-0.7682,-0.7461,-0.6786,-0.6679,-0.596,-0.3936,-0.2944,-0.2415,-0.2665,-0.3217,-0.3869,-0.4724,-0.5962,-0.6639,-0.5729,-0.6348,-0.6904,-0.6748,-0.7959,-0.9004,-0.9062,-0.9599,-0.993,1.1776,1.1138,1.0969,1.0721,1.0456,1.0521,1.0152,0.9531,0.9531,1.0119,1.1082,1.0788,1.1034,1.1714,1.1839,0.0,1.2063,1.2806,1.3122,1.311,1.2248,1.1846,1.1933,1.3504,1.5225,1.709,1.9864,2.1846,2.2981,2.268,2.0869,1.7608,1.6257,1.3847,1.0283,0.5892,0.2125,-0.1072,-0.4797,-0.7058,-0.7777,-0.8454,-0.8778,-0.8778,-0.8778,-0.8778,-0.8798,-0.9134,-0.8799,-0.7584,-0.6572,-0.5298,-0.377,0.0,0.0,0.0,0.0,0.0,0.0,0.0,0.0,0.0,0.0,0.0,0.0,0.0,0.0,0.0,-0.2116,0.0,-0.2799,-0.2883,0.0,0.0,0.0,-0.3713,-0.4695,-0.4726,-0.4871,-0.5443,0.0,0.0,-0.7567,-0.7648,-0.7712,-0.7821,-0.7706,-0.7662,-0.7794,-0.7709,-0.7678,-0.7811,-0.7828,-0.7879,-0.7836,-0.7855,-0.735,-0.6016,-0.5929,-0.5225,-0.442,-0.5085,-0.5892,-0.6203,-0.7363,-0.8201,-0.8062,-0.8168,-0.8503,-0.8453,-0.9466,-1.0478,-1.0565,-1.147,-1.1963,1.1495,1.0894,1.0857,1.0507,0.9975,0.9995,0.9901,0.9726,0.9733,0.999,1.0448,1.085,1.1681,1.2762,1.2788,1.3248,1.4005,1.4204,1.4303,1.4281,1.4071,1.3964,1.4036,1.5666,1.7161,1.8546,2.013,2.1334,2.2019,2.0478,1.8353,1.5675,1.2272,0.9195,0.6422,0.2781,-0.0798,-0.4349,-0.6389,-0.7791,-0.8507,-0.8699,-0.8778,-0.8778,-0.8778,-0.8778,-0.8778,-0.8894,-0.8592,-0.7832,-0.7176,-0.6239,-0.4949,-0.2612,0.0,0.0,0.0,0.0,0.0,0.0,0.0,0.0,0.0,0.559,0.2225,0.0,0.2546,0.0,-0.2877,-0.4622,-0.4227,-0.3897,0.0,0.0,-0.5375,-0.5755,-0.7274,-0.6595,-0.613,-0.6343,-0.6651,-0.7119,-0.7845,-0.7773,-0.7756,-0.7907,-0.7855,-0.7777,-0.7807,-0.7889,-0.7897,-0.7924,-0.7928,-0.7948,-0.7982,-0.7988,-0.7587,-0.6229,-0.5172,-0.4718,-0.5425,-0.5893,-0.6564,-0.7499,-0.8123,-0.8431,-0.8426,-0.8587,-0.8693,-0.8781,-0.8962,-0.9358,-1.0439,-1.1072,-1.1595,1.1226,1.0362,1.0346,0.9961,0.9387,0.9666,0.964,0.9361,0.9361,0.9784,1.0531,1.1536,1.2502,1.3418,1.3709,1.4305,1.5096,1.5377,1.5354,1.5107,1.5118,1.5107,1.5152,1.6515,1.7705,1.874,1.958,1.9858,1.9484,1.7314,1.4732,1.1745,0.7351,0.3714,0.0923,-0.0741,-0.3002,-0.5944,-0.7444,-0.8406,-0.8785,-0.8778,-0.8778,-0.8778,-0.8778,-0.8613,-0.8242,-0.8777,-0.8684,-0.7953,-0.7762,-0.731,-0.6457,-0.4102,-0.207,0.0,0.0,0.0,0.0,0.0,0.0,0.0,0.0,0.0,0.0,0.0,-0.0804,-0.3749,-0.6118,-0.7159,-0.6497,-0.644,-0.6819,-0.7784,-0.7788,-0.8177,-0.9165,-0.8798,-0.7996,-0.7013,-0.7055,-0.7395,-0.7914,-0.7894,-0.7864,-0.7978,-0.7963,-0.7864,-0.7919,-0.7991,-0.7988,-0.7988,-0.7988,-0.7988,-0.7988,-0.7988,-0.7786,-0.7033,-0.6276,-0.6089,-0.6858,-0.7127,-0.7452,-0.8198,-0.8482,-0.8591,-0.8585,-0.8683,-0.8842,-0.8828,-0.875,-0.9226,-1.0584,-1.1456,-1.2282,1.0806,0.9674,0.9677,0.9335,0.8857,0.9439,0.9335,0.8778,0.8778,0.9565,1.087,1.2184,1.3188,1.393,1.4469,1.5085,1.5754,1.6259,1.616,1.561,1.5509,1.5431,1.5386,1.6237,1.7023,1.7715,1.7994,1.7369,1.5904,1.3322,1.0215,0.6608,0.2095,-0.1774,-0.4782,-0.4543,-0.5275,-0.7122,-0.8329,-0.8943,-0.893,-0.8837,-0.8778,-0.8778,-0.8771,-0.8359,-0.7576,-0.8554,-0.871,-0.7882,-0.81,-0.817,-0.7885,-0.5559,-0.3648,0.0,-0.1493,0.0,0.0,0.0,0.0,0.0,0.0,0.0,0.0,-0.217,-0.4801,-0.8262,-1.0009,-1.0356,-0.896,-0.928,-0.9618,-0.98,-1.0039,-1.0336,-1.0663,-1.0787,-0.997,-0.7738,-0.7616,-0.7766,-0.7955,-0.7988,-0.7988,-0.7988,-0.7985,-0.7975,-0.7985,-0.7985,-0.7988,-0.7988,-0.7988,-0.7988,-0.7988,-0.7988,-0.7988,-0.7988,-0.7836,-0.8042,-0.8133,-0.8238,-0.8347,-0.8486,-0.8635,-0.8726,-0.8632,-0.8767,-0.8871,-0.8937,-0.8868,-0.9347,-1.0757,-1.1941,-1.3048,0.9715,0.9016,0.8989,0.891,0.8811,0.8936,0.8903,0.8778,0.8778,0.954,1.0822,1.1657,1.295,1.4496,1.4653,1.5287,1.6337,1.6445,1.6173,1.5565,1.5027,1.4529,1.4091,1.4146,1.4116,1.4001,1.3618,1.2602,1.1001,0.7958,0.471,0.125,-0.2422,-0.5452,-0.7756,0.0,0.0,0.0,-0.9739,-0.9606,-0.9588,-0.9076,-0.8778,-0.8804,-0.8577,0.0,-0.7538,-0.7633,-0.7561,-0.7278,-0.7407,0.0,0.0,0.0,0.0,0.0,0.0,0.0,0.0,0.0,0.0,0.0,-0.2417,-0.2584,-0.2549,-0.4573,-0.6704,-0.8601,-1.115,-1.1971,-1.0254,-0.99,-1.0286,-1.1404,-1.0873,-1.0879,-1.2108,-1.1602,-1.0671,-0.982,-0.8536,-0.7818,-0.7955,-0.7988,-0.7988,-0.7988,-0.7988,-0.7988,-0.7988,-0.7988,-0.7988,-0.7988,-0.7988,-0.7988,-0.7988,-0.7988,-0.7988,-0.7988,-0.7988,-0.8052,-0.8204,-0.8273,-0.844,-0.8531,-0.8794,-0.8779,-0.8766,-0.8861,-0.8771,-0.8881,-0.8881,-0.932,-1.0781,-1.1324,-1.186,0.9408,0.8804,0.8778,0.8982,0.0,0.8929,0.9185,0.9762,0.9439,1.0041,1.1331,1.2046,1.3048,1.4277,1.4563,1.5027,1.5599,1.5586,1.488,1.3624,1.2573,1.1761,1.1106,1.0661,1.034,1.0101,0.914,0.7693,0.5741,0.2467,-0.0558,-0.335,-0.6478,-0.8961,-1.0656,-1.2042,-1.2098,-1.0797,-1.0478,-1.0118,-0.9801,-0.947,-0.9133,-0.8804,-0.8664,0.0,0.0,0.0,0.0,0.0,0.0,0.0,0.0,0.0,0.0,-0.4909,-0.4023,-0.3475,-0.3333,-0.3271,-0.3336,-0.3578,-0.414,-0.4743,-0.5338,-0.6407,-0.7958,-1.0134,-1.1065,-1.1338,-1.0965,-1.0385,-1.0366,-1.1053,-1.1409,-1.1954,-1.2686,-1.3091,-1.2751,-1.1615,-1.0487,-0.9381,-0.812,-0.7988,-0.7988,-0.7988,-0.7988,-0.7988,-0.7988,-0.7988,-0.7988,-0.7988,-0.7988,-0.7988,-0.7988,-0.7988,-0.8025,-0.8079,-0.7538,-0.7211,-0.7392,-0.6834,-0.6427,-0.6587,-0.6667,-0.6755,-0.6758,-0.6758,-0.698,-0.7595,-0.7817,-0.8318,-0.9636,-1.0025,-1.0457,0.9485,0.8981,0.8975,0.9361,0.9943,0.9361,0.984,1.0939,1.0389,0.0,0.0,1.2584,1.3238,1.3839,1.4299,1.455,1.4526,1.4335,1.3195,1.1258,0.9795,0.8636,0.7743,0.6958,0.6355,0.5871,0.4673,0.2906,0.0543,-0.2538,-0.5139,-0.7315,-0.9862,-1.1856,-1.3246,-1.4215,-1.3703,-1.1747,-1.1324,-1.0821,-1.0179,-0.9936,-0.9543,-0.8989,-0.8803,-0.8346,-0.7544,-0.7361,-0.7174,-0.6965,-0.737,-0.808,-0.9012,-0.7759,-0.6653,-0.5978,-0.4987,-0.4456,-0.4522,-0.4619,-0.4714,-0.4765,-0.519,-0.6113,-0.7662,-0.7742,-0.8913,-1.1731,-1.0673,-1.0336,-1.1439,-1.0787,-1.04,-1.061,-1.1939,-1.2877,-1.3312,-1.4469,-1.456,-1.2929,-1.2273,-1.1263,-0.8821,-0.8432,-0.8333,-0.8333,-0.8187,-0.7988,-0.7988,-0.7988,-0.7988,-0.7988,-0.7988,-0.7998,-0.8032,-0.8073,-0.8066,-0.7817,-0.685,-0.6145,-0.5875,-0.5062,-0.4387,-0.4727,-0.4526,-0.4582,-0.4526,-0.4693,-0.4916,-0.6086,-0.6311,-0.6647,-0.7817,-0.8322,-0.8982,0.9751,0.9654,0.9673,1.0038,1.0636,1.0568,1.0948,1.1641,1.1566,1.1616,1.1848,1.2593,1.3248,1.3802,1.3899,1.3905,1.3799,1.3168,1.1764,0.9763,0.8344,0.6691,0.4881,0.4181,0.2855,0.1043,0.0187,-0.1655,-0.4323,-0.6137,-0.8087,-1.012,-1.1758,-1.3392,-1.4959,-1.4846,-1.4732,-1.48,-1.3335,-1.2201,-1.1534,-1.0383,-0.9762,-0.9625,-0.889,-0.8158,-0.7507,-0.7367,-0.7343,-0.7403,-0.7562,-0.7948,-0.8462,-0.7904,-0.7151,-0.6242,-0.5628,-0.5152,-0.4704,-0.4709,-0.4802,-0.5022,-0.5369,-0.6293,-0.7974,-0.8425,-0.9637,-1.1905,-1.1105,-1.0858,-1.1651,-1.0985,-1.0933,-1.2122,-1.2625,-1.3331,-1.4702,-1.5147,-1.4587,-1.247,-1.2973,-1.2619,-1.0239,-0.9706,-0.9657,-0.9509,-0.8676,-0.7988,-0.7988,-0.7988,-0.7988,-0.7988,-0.7988,-0.8046,-0.8197,-0.8347,-0.7998,-0.6755,-0.6443,-0.5744,-0.4889,-0.4203,-0.3954,-0.4347,-0.419,-0.4247,-0.4303,-0.447,-0.4414,-0.4749,-0.4804,-0.4972,-0.5419,-0.6316,-0.7543,1.0332,1.0335,1.034,1.0745,1.1391,1.1758,1.1882,1.1839,1.2236,1.2393,1.2427,1.2774,1.3055,1.3306,1.3273,1.2835,1.2091,1.1349,0.965,0.7231,0.5416,0.3428,0.141,0.0245,-0.1413,-0.3482,-0.4261,-0.5703,-0.7697,-0.9179,-1.0572,-1.1938,-1.3782,-1.5194,-1.5932,-1.6353,-1.637,-1.5979,-1.455,-1.3351,-1.2368,-1.1735,-1.0897,-0.9858,-0.9365,-0.8873,-0.8236,-0.7756,-0.7547,-0.7593,-0.767,-0.7809,-0.7982,-0.7829,-0.7378,-0.6618,-0.5996,-0.5416,-0.4865,-0.4857,-0.5057,-0.5355,-0.5579,-0.6304,-0.7704,-0.8424,-0.9403,-1.0854,-1.0694,-1.0484,-1.0303,-1.0052,-1.017,-1.0795,-1.2282,-1.361,-1.4362,-1.5218,-1.4911,-1.3375,-1.3494,-1.3151,-1.1268,-1.1019,-1.0681,-1.0096,-0.8825,-0.8038,-0.7992,-0.7992,-0.7992,-0.7988,-0.7988,-0.8109,-0.8258,-0.8543,-0.834,-0.7704,-0.6183,-0.5148,-0.4236,-0.3315,-0.2164,-0.201,-0.2126,-0.207,-0.2125,-0.2069,-0.2349,-0.3186,-0.324,-0.3465,-0.436,-0.5732,-0.7239,1.1032,1.1032,1.1032,1.1425,1.208,1.2666,1.2559,1.2104,1.2666,1.2915,1.2915,1.2915,1.2822,1.2661,1.2604,1.1768,1.0343,0.9325,0.748,0.4877,0.269,0.0522,-0.1595,-0.3085,-0.4907,-0.686,-0.7737,-0.8794,-1.0191,-1.1431,-1.2531,-1.3541,-1.5428,-1.654,-1.6802,-1.7659,-1.7653,-1.6778,-1.5796,-1.4619,-1.3284,-1.2946,-1.2058,-1.0628,-1.0038,-0.9562,-0.9035,-0.8309,-0.8017,-0.8164,-0.8156,-0.8279,-0.8489,-0.8207,-0.7891,-0.7504,-0.6504,-0.5598,-0.502,-0.5103,-0.5335,-0.5569,-0.5752,-0.6346,-0.7479,-0.797,-0.8862,-1.0042,-1.0506,-1.0366,-1.0086,-0.9776,-0.9867,-1.0331,-1.2284,-1.3841,-1.4219,-1.5173,-1.5296,-1.4172,-1.4124,-1.383,-1.2716,-1.2334,-1.1702,-1.0194,-0.8825,-0.8048,-0.8029,-0.8092,-0.8049,-0.8066,-0.8035,-0.8099,-0.833,-0.8672,-0.8623,-0.8387,-0.6406,-0.5121,-0.4339,-0.246,-0.1344,-0.1456,-0.1344,-0.1288,-0.0784,-0.0672,-0.1008,-0.1734,-0.1734,-0.2295,-0.4219,-0.5433,-0.7093,1.1694,1.1703,1.1729,1.2138,1.274,1.2881,1.2856,1.2798,1.2881,1.2915,1.2915,1.2915,1.251,1.1956,1.1895,1.0778,0.8893,0.7421,0.5627,0.3449,0.1218,-0.0968,-0.3062,-0.4528,-0.6364,-0.8364,-0.9184,-1.0208,-1.1523,-1.2352,-1.3622,-1.5218,-1.6068,-1.6928,-1.7834,-1.8033,-1.8033,-1.7947,-1.7368,-1.6243,-1.4575,-1.3392,-1.2715,-1.2522,-1.0754,-0.9762,-0.9736,-0.9054,-0.8982,-0.9555,-0.9595,-1.0072,-1.083,-0.9805,-0.92,-0.9389,-0.7408,-0.586,-0.5202,-0.5349,-0.5552,-0.5603,-0.5887,-0.6548,-0.7766,-0.7134,-0.8005,-1.0648,-1.0994,-1.124,-1.2201,-1.1517,-1.1568,-1.2894,-1.3607,-1.4166,-1.5381,-1.571,-1.5289,-1.407,-1.4902,-1.5146,-1.3974,-1.3536,-1.2565,-1.0489,-0.8947,-0.8106,-0.8201,-0.8241,-0.8296,-0.835,-0.8235,-0.8255,-0.8557,-0.8804,-0.8462,-0.7346,-0.6737,-0.5906,-0.4912,-0.4359,-0.4026,-0.3187,-0.3689,-0.3186,-0.2404,-0.1957,-0.1622,-0.1288,-0.1234,-0.135,-0.3821,-0.5137,-0.6445,1.2458,1.2458,1.2457,1.2618,1.2881,1.2915,1.2915,1.2915,1.2915,1.2915,1.2832,1.2452,1.208,1.174,1.0939,0.9625,0.7976,0.6555,0.474,0.2609,0.0804,-0.1379,-0.396,-0.586,-0.784,-0.9864,-1.0629,-1.1482,-1.2457,-1.344,-1.4504,-1.5642,-1.6781,-1.7659,-1.8092,-1.8419,-1.8438,-1.8072,-1.7578,-1.6794,-1.5804,-1.4903,-1.4079,-1.3304,-1.2162,-1.134,-1.0931,-1.0571,-1.0522,-1.0793,-1.103,-1.1383,-1.1826,-1.0798,-1.0121,-0.9803,-0.7767,-0.6414,-0.6176,-0.5821,-0.5667,-0.5837,-0.6504,-0.7246,-0.8069,-0.8396,-0.9812,-1.2255,-1.275,-1.2537,-1.207,-1.2143,-1.3001,-1.4523,-1.5491,-1.628,-1.6821,-1.6943,-1.6419,-1.5283,-1.5439,-1.5629,-1.4902,-1.3686,-1.2377,-1.0993,-0.9494,-0.8252,-0.8272,-0.8391,-0.8507,-0.856,-0.8482,-0.8486,-0.8689,-0.8838,-0.8585,-0.8042,-0.726,-0.6311,-0.5975,-0.4973,-0.447,-0.4582,-0.4693,-0.4526,-0.3744,-0.3576,-0.3299,-0.2578,-0.2771,-0.354,-0.5856,-0.6305,-0.7365,1.2915,1.2915,1.2915,1.2915,1.2915,1.2915,1.2915,1.2915,1.2915,1.2915,1.2832,1.2113,1.1573,1.109,0.9943,0.8652,0.725,0.5851,0.4134,0.2143,0.047,-0.176,-0.4416,-0.6593,-0.873,-1.0594,-1.1433,-1.2242,-1.3132,-1.3967,-1.4846,-1.5696,-1.697,-1.7733,-1.7913,-1.8419,-1.8313,-1.7659,-1.7244,-1.6727,-1.6039,-1.5766,-1.5163,-1.4241,-1.328,-1.2594,-1.2172,-1.174,-1.1655,-1.1944,-1.2226,-1.251,-1.2783,-1.2071,-1.1181,-1.0146,-0.8522,-0.7456,-0.7337,-0.6831,-0.6647,-0.6917,-0.7897,-0.886,-0.9507,-0.9973,-1.1636,-1.4623,-1.568,-1.5475,-1.3605,-1.4155,-1.5291,-1.6524,-1.7604,-1.8095,-1.7731,-1.7684,-1.7171,-1.6062,-1.573,-1.5825,-1.5439,-1.365,-1.1917,-1.1712,-0.9845,-0.8374,-0.8381,-0.8489,-0.8598,-0.874,-0.8683,-0.8683,-0.8774,-0.8807,-0.8875,-0.8712,-0.7931,-0.7426,-0.7313,-0.6253,-0.5753,-0.6533,-0.5919,-0.5419,-0.5194,-0.5083,-0.4884,-0.4683,-0.4743,-0.5358,-0.6781,-0.7274,-0.8062,1.2915,1.2915,1.2881,1.2856,1.2881,1.2856,1.2856,1.2749,1.2832,1.2856,1.27,1.1996,1.0998,0.9783,0.8985,0.7953,0.6578,0.5171,0.3691,0.2088,0.0028,-0.2206,-0.4474,-0.6588,-0.8704,-1.0577,-1.1358,-1.2404,-1.3603,-1.3792,-1.4434,-1.5576,-1.6207,-1.6794,-1.7258,-1.776,-1.7558,-1.6663,-1.6463,-1.5952,-1.5074,-1.5367,-1.557,-1.53,-1.3786,-1.3042,-1.3194,-1.2183,-1.1988,-1.2996,-1.3095,-1.3577,-1.4419,-1.3867,-1.2537,-1.0725,-0.9898,-0.9159,-0.8526,-0.8568,-0.8787,-0.9055,-1.0121,-1.1589,-1.24,-1.1523,-1.2806,-1.7266,-1.963,-2.0153,-1.8073,-1.763,-1.8303,-1.8766,-1.9182,-1.8864,-1.7824,-1.7824,-1.7131,-1.6109,-1.5825,-1.5629,-1.5581,-1.3547,-1.2188,-1.1577,-0.9868,-0.8419,-0.8591,-0.8679,-0.8764,-0.8859,-0.8906,-0.892,-0.8868,-0.8868,-0.8878,-0.8826,-0.8657,-0.8602,-0.8768,-0.8712,-0.8546,-0.8436,-0.8097,-0.7595,-0.6924,-0.6393,-0.6104,-0.5836,-0.562,-0.6268,-0.7769,-0.7541,-0.8199,1.2915,1.2856,1.2403,1.2187,1.2138,1.1733,1.1559,1.1534,1.1534,1.1559,1.1358,1.0321,0.9533,0.8997,0.7361,0.6387,0.581,0.4886,0.3644,0.2117,0.0415,-0.1572,-0.3799,-0.6352,-0.8187,-0.9452,-1.0619,-1.1855,-1.3034,-1.3144,-1.3784,-1.4926,-1.5562,-1.5954,-1.6148,-1.635,-1.6328,-1.6194,-1.5879,-1.5612,-1.5486,-1.5749,-1.5846,-1.5799,-1.4932,-1.4668,-1.5153,-1.4165,-1.3792,-1.4182,-1.442,-1.4734,-1.5048,-1.4416,-1.3287,-1.1772,-1.0875,-1.0233,-0.974,-0.933,-0.9242,-0.959,-1.1246,-1.266,-1.3453,-1.3947,-1.5371,-1.808,-2.0983,-2.1564,-1.9739,-1.8511,-1.8022,-1.8379,-1.8993,-1.9039,-1.818,-1.8319,-1.8087,-1.6332,-1.5778,-1.5248,-1.3692,-1.2479,-1.1688,-1.0883,-0.9457,-0.8699,-0.8662,-0.873,-0.8872,-0.8916,-0.8937,-0.8937,-0.8937,-0.8881,-0.8937,-0.8937,-0.8826,-0.8826,-0.8881,-0.8881,-0.8716,-0.8657,-0.8881,-0.8784,-0.7782,-0.7892,-0.755,-0.7727,-0.7482,-0.7475,-0.8814,-0.8557,-0.8948,1.2915,1.2783,1.2113,1.1823,1.174,1.1091,1.0813,1.0813,1.0788,1.0653,1.0257,0.9201,0.8475,0.7753,0.5995,0.498,0.4772,0.4315,0.3428,0.2117,0.0443,-0.1407,-0.3421,-0.5797,-0.7553,-0.875,-1.0133,-1.1309,-1.2033,-1.2156,-1.2783,-1.3854,-1.4399,-1.4857,-1.5199,-1.5372,-1.5568,-1.5649,-1.5151,-1.4898,-1.5013,-1.4909,-1.5148,-1.5415,-1.497,-1.5124,-1.5949,-1.524,-1.4863,-1.5,-1.5264,-1.542,-1.5332,-1.4791,-1.3893,-1.2693,-1.2025,-1.1424,-1.0926,-1.0411,-1.0315,-1.075,-1.2402,-1.373,-1.428,-1.6368,-1.7956,-1.9093,-2.0409,-2.1263,-2.0183,-1.8494,-1.7606,-1.818,-1.9039,-1.8993,-1.7917,-1.8411,-1.7809,-1.6136,-1.4877,-1.3711,-1.228,-1.1609,-1.1005,-1.0315,-0.9242,-0.86,-0.8747,-0.8807,-0.8937,-0.8937,-0.8937,-0.8937,-0.8937,-0.8937,-0.8937,-0.8937,-0.8937,-0.8937,-0.8937,-0.8937,-0.8944,-0.894,-0.8954,-0.8912,-0.9049,-0.9181,-0.9364,-0.9571,-0.9244,-0.8941,-0.9472,-0.9623,-0.9819,1.2929,1.2822,1.2107,1.1733,1.1591,1.0914,1.0712,1.0559,1.0585,1.0043,0.9221,0.8733,0.7544,0.6411,0.4798,0.3908,0.3365,0.3088,0.2672,0.181,-0.0139,-0.1909,-0.3457,-0.5085,-0.6897,-0.8698,-1.0084,-1.0751,-1.0922,-1.1014,-1.149,-1.2187,-1.284,-1.364,-1.4749,-1.4992,-1.518,-1.5033,-1.4433,-1.3735,-1.3004,-1.3086,-1.3607,-1.4435,-1.3876,-1.411,-1.5502,-1.499,-1.483,-1.5206,-1.5303,-1.5381,-1.5332,-1.5111,-1.4481,-1.3654,-1.331,-1.2824,-1.2011,-1.2005,-1.2133,-1.2612,-1.393,-1.4797,-1.5501,-1.797,-1.9703,-1.9536,-1.9565,-1.9773,-1.9991,-1.8716,-1.7964,-1.9185,-1.9131,-1.8772,-1.7917,-1.7645,-1.7225,-1.5758,-1.3879,-1.2126,-1.159,-1.0904,-1.0258,-0.9966,-0.922,-0.8604,-0.8842,-0.8868,-0.8933,-0.8937,-0.8937,-0.8937,-0.8937,-0.8937,-0.8937,-0.8937,-0.8937,-0.8937,-0.8937,-0.894,-0.8971,-0.8981,-0.9066,-0.9089,-0.9235,-0.9367,-0.9486,-0.9656,-0.9734,-0.9791,-0.9805,-0.9819,-1.0058,1.3529,1.3314,1.1774,1.1124,1.0965,0.9917,0.9145,0.8679,0.8685,0.7956,0.6823,0.6065,0.5205,0.4157,0.2796,0.1998,0.1692,0.0831,0.0416,0.0306,-0.1108,-0.2654,-0.4118,-0.5584,-0.7144,-0.8593,-0.9388,-0.9965,-1.0409,-1.0632,-1.1138,-1.1827,-1.252,-1.3045,-1.3537,-1.4123,-1.4592,-1.4822,-1.4615,-1.4269,-1.3836,-1.372,-1.3667,-1.3478,-1.3258,-1.3377,-1.377,-1.367,-1.388,-1.454,-1.4569,-1.4805,-1.5283,-1.5589,-1.5385,-1.4782,-1.4335,-1.354,-1.2426,-1.2438,-1.2764,-1.3228,-1.4331,-1.5215,-1.5632,-1.7188,-1.8868,-1.9704,-1.9763,-1.9085,-1.7708,-1.7677,-1.7498,-1.7023,-1.7716,-1.7762,-1.6756,-1.6433,-1.6197,-1.5622,-1.3527,-1.1347,-0.9912,-0.9394,-0.9817,-0.928,-0.8832,-0.872,-0.8824,-0.8937,-0.8937,-0.8937,-0.8937,-0.8937,-0.8937,-0.8937,-0.8937,-0.8937,-0.8937,-0.8937,-0.8937,-0.8977,-0.9005,-0.9083,-0.9161,-0.9266,-0.9412,-0.953,-0.9639,-0.9713,-0.9785,-0.9812,-0.9819,-0.9879,-1.0058,1.3792,1.3569,1.1648,1.0628,1.0256,0.8955,0.7996,0.7343,0.7289,0.645,0.5179,0.4324,0.3419,0.2265,0.0662,-0.011,-0.0331,-0.1929,-0.2481,-0.2125,-0.2542,-0.3701,-0.4945,-0.6463,-0.7679,-0.8631,-0.9172,-0.9624,-1.0072,-1.0251,-1.0602,-1.1165,-1.2061,-1.2694,-1.3016,-1.3867,-1.459,-1.4923,-1.4725,-1.432,-1.3793,-1.3446,-1.3045,-1.2596,-1.2274,-1.2274,-1.2481,-1.1981,-1.2289,-1.348,-1.3848,-1.4207,-1.4762,-1.5195,-1.5445,-1.5232,-1.4547,-1.3635,-1.2526,-1.2603,-1.2918,-1.3338,-1.4104,-1.476,-1.5174,-1.591,-1.7029,-1.7827,-1.8061,-1.7483,-1.6285,-1.6433,-1.6574,-1.592,-1.6527,-1.6622,-1.592,-1.5825,-1.5825,-1.5283,-1.3502,-1.0953,-0.9233,-0.8711,-0.9271,-0.8681,-0.8648,-0.8764,-0.8831,-0.8937,-0.8937,-0.8937,-0.8937,-0.8937,-0.8937,-0.8937,-0.8937,-0.8937,-0.8937,-0.8937,-0.8937,-0.9022,-0.9076,-0.9232,-0.9334,-0.9412,-0.9547,-0.9639,-0.9737,-0.9788,-0.9819,-0.9819,-0.9819,-0.9819,-1.0119,1.3879,1.3628,1.1692,1.0515,0.9791,0.8396,0.7369,0.6696,0.6556,0.5665,0.431,0.3411,0.2252,0.0662,-0.1289,-0.2245,-0.2741,-0.4311,-0.5283,-0.5147,-0.5019,-0.5136,-0.5996,-0.7476,-0.8404,-0.8821,-0.9411,-0.9735,-0.9851,-0.9933,-0.9903,-1.0389,-1.1571,-1.2328,-1.3093,-1.4201,-1.5038,-1.5361,-1.4757,-1.4037,-1.3334,-1.2451,-1.1958,-1.1857,-1.1195,-1.1108,-1.143,-1.0458,-1.0566,-1.2452,-1.2877,-1.3285,-1.381,-1.4221,-1.4604,-1.4849,-1.4159,-1.3382,-1.2637,-1.2697,-1.2991,-1.326,-1.3635,-1.3781,-1.4292,-1.4769,-1.5073,-1.5113,-1.5659,-1.6008,-1.5872,-1.592,-1.5872,-1.5825,-1.5967,-1.592,-1.5825,-1.5825,-1.5825,-1.5452,-1.3576,-1.1177,-0.9124,-0.867,-0.8776,-0.8664,-0.8716,-0.8818,-0.8889,-0.8937,-0.8937,-0.8937,-0.8937,-0.8937,-0.8937,-0.8937,-0.895,-0.9018,-0.9015,-0.9011,-0.9039,-0.913,-0.9228,-0.9378,-0.9496,-0.9578,-0.9649,-0.9734,-0.9781,-0.9805,-0.9819,-0.9819,-0.9819,-0.9819,-1.0361,1.4852,1.4527,1.227,1.1209,1.0706,0.8672,0.7262,0.6561,0.6009,0.4683,0.297,0.1997,0.0608,-0.141,-0.3,-0.4099,-0.4756,-0.5788,-0.6649,-0.7026,-0.6945,-0.7051,-0.7561,-0.8438,-0.9093,-0.9424,-0.9794,-1.0007,-1.002,-1.0224,-1.0403,-1.0528,-1.1926,-1.2769,-1.3171,-1.4508,-1.5555,-1.6024,-1.5469,-1.4952,-1.4492,-1.3356,-1.2389,-1.1772,-1.1045,-1.0744,-1.0832,-0.9875,-0.9506,-1.0244,-1.0996,-1.2168,-1.3413,-1.3466,-1.3324,-1.3279,-1.3526,-1.3396,-1.289,-1.2913,-1.322,-1.3473,-1.3774,-1.4001,-1.4088,-1.4492,-1.4723,-1.4899,-1.5471,-1.5825,-1.5825,-1.5825,-1.5825,-1.5825,-1.5825,-1.5825,-1.5825,-1.5825,-1.5825,-1.5703,-1.5444,-1.3173,-1.0315,-0.9433,-0.9652,-0.8972,-0.8801,-0.8817,-0.8868,-0.8937,-0.8937,-0.8937,-0.8937,-0.8937,-0.8937,-0.8937,-0.8981,-0.9142,-0.9176,-0.919,-0.9208,-0.9323,-0.9435,-0.9561,-0.9635,-0.9717,-0.9747,-0.9802,-0.9819,-0.9819,-0.9819,-0.9819,-0.9819,-0.9819,-1.06,1.5049,1.462,1.2421,1.1206,1.0478,0.8234,0.6804,0.6091,0.5355,0.403,0.2284,0.1058,-0.0417,-0.2303,-0.4368,-0.5541,-0.6049,-0.7052,-0.775,-0.8049,-0.8096,-0.8366,-0.8808,-0.9284,-0.9639,-1.007,-1.0214,-1.0294,-1.0321,-1.0519,-1.0769,-1.1281,-1.2366,-1.3122,-1.3606,-1.4697,-1.5771,-1.6299,-1.6032,-1.5709,-1.5235,-1.4473,-1.3158,-1.2135,-1.1288,-1.0888,-1.011,-0.927,-0.8722,-0.8652,-0.9265,-1.0337,-1.1417,-1.1961,-1.2094,-1.2224,-1.2954,-1.3128,-1.2963,-1.314,-1.3413,-1.3613,-1.3921,-1.4128,-1.4325,-1.463,-1.4939,-1.5152,-1.5558,-1.5792,-1.5825,-1.5825,-1.5825,-1.5825,-1.5825,-1.5825,-1.5825,-1.5825,-1.5825,-1.5925,-1.6053,-1.5318,-1.0927,-1.0916,-1.0119,-0.9229,-0.8879,-0.8861,-0.8937,-0.8937,-0.8937,-0.8937,-0.8937,-0.8937,-0.8947,-0.895,-0.9045,-0.915,-0.9317,-0.9374,-0.9436,-0.95,-0.9578,-0.9676,-0.9764,-0.9819,-0.9819,-0.9819,-0.9819,-0.9819,-0.9819,-0.9819,-0.9819,-0.9819,-1.06,1.4836,1.4276,1.2323,1.0882,0.9725,0.7593,0.634,0.5597,0.4728,0.3566,0.2089,0.0557,-0.0974,-0.2484,-0.4942,-0.6513,-0.6831,-0.7928,-0.8584,-0.8797,-0.8857,-0.9062,-0.9586,-0.9599,-0.9973,-1.0419,-1.0573,-1.0566,-1.0546,-1.0579,-1.1045,-1.1717,-1.2551,-1.3403,-1.4064,-1.4991,-1.5781,-1.6328,-1.6253,-1.5967,-1.5505,-1.5022,-1.3823,-1.232,-1.1562,-1.0764,-0.9627,-0.8677,-0.7943,-0.7035,-0.7855,-0.8276,-0.8522,-0.9764,-1.1162,-1.2153,-1.2651,-1.2802,-1.2711,-1.2947,-1.3238,-1.3121,-1.3351,-1.3831,-1.3804,-1.4096,-1.4437,-1.4354,-1.5364,-1.5744,-1.5825,-1.5825,-1.5825,-1.5825,-1.5825,-1.5825,-1.5825,-1.5825,-1.5825,-1.5858,-1.6316,-1.5517,-1.3752,-1.2056,-1.0646,-0.9184,-0.8868,-0.893,-0.8937,-0.8937,-0.8937,-0.8937,-0.8937,-0.8937,-0.895,-0.8964,-0.91,-0.9239,-0.9483,-0.9571,-0.9571,-0.9652,-0.97,-0.9764,-0.9802,-0.9819,-0.9819,-0.9819,-0.9819,-0.9819,-0.9819,-0.9819,-0.9819,-0.9819,-1.0301,1.4963,1.4515,1.2387,1.1361,1.0624,0.7937,0.6507,0.6172,0.4336,0.3065,0.1867,0.0028,-0.1639,-0.3166,-0.5046,-0.6436,-0.7694,-0.8296,-0.8695,-0.9459,-0.9211,-0.9464,-0.9863,-0.9816,-1.0055,-1.0463,-1.0586,-1.0586,-1.0586,-1.0649,-1.1021,-1.1803,-1.2512,-1.3403,-1.4213,-1.4942,-1.5771,-1.627,-1.5993,-1.5955,-1.5948,-1.5071,-1.3986,-1.2628,-1.1529,-1.0521,-0.9664,-0.8712,-0.7944,-0.7413,-0.698,-0.6941,-0.7242,-0.8694,-1.0513,-1.2008,-1.2612,-1.2537,-1.2061,-1.2195,-1.201,-1.1662,-1.1728,-1.1524,-1.1666,-1.2694,-1.2865,-1.2918,-1.4335,-1.5527,-1.5825,-1.5825,-1.5825,-1.5825,-1.5825,-1.5825,-1.5825,-1.5825,-1.5825,-1.5932,-1.6166,-1.5801,-1.3671,-1.2955,-1.1435,-0.9533,-0.8937,-0.8937,-0.8937,-0.8937,-0.8937,-0.8937,-0.8937,-0.895,-0.9025,-0.9083,-0.9249,-0.9367,-0.9581,-0.973,-0.9734,-0.9744,-0.9771,-0.9791,-0.9812,-0.9819,-0.9819,-0.9819,-0.9819,-0.9819,-0.9819,-0.9819,-0.9819,-0.9819,-0.9859,1.4734,1.406,1.2581,1.1661,1.0765,0.8262,0.6693,0.5828,0.4165,0.2504,0.1086,-0.0501,-0.2188,-0.4132,-0.558,-0.7086,-0.8218,-0.8769,-0.9176,-0.9597,-0.9519,-0.9699,-0.998,-0.9989,-1.0127,-1.0526,-1.0586,-1.0586,-1.0586,-1.0649,-1.1021,-1.1741,-1.2258,-1.3092,-1.4055,-1.4667,-1.541,-1.626,-1.6138,-1.611,-1.6216,-1.5351,-1.3912,-1.2742,-1.1454,-1.0634,-1.0451,-0.9714,-0.8897,-0.8111,-0.7306,-0.6646,-0.6661,-0.8221,-1.0318,-1.2292,-1.2852,-1.2903,-1.2562,-1.2236,-1.1991,-1.1489,-1.111,-1.1015,-1.1268,-1.2094,-1.2524,-1.2627,-1.367,-1.4802,-1.5689,-1.5825,-1.5825,-1.5825,-1.5825,-1.5825,-1.5825,-1.5825,-1.5825,-1.5741,-1.5522,-1.4784,-1.3768,-1.2798,-1.1483,-0.9265,-0.8937,-0.8937,-0.8937,-0.8937,-0.8937,-0.8937,-0.8937,-0.8977,-0.9083,-0.9222,-0.9425,-0.954,-0.9669,-0.9761,-0.9788,-0.9798,-0.9815,-0.9819,-0.9819,-0.9819,-0.9819,-0.9819,-0.9819,-0.9819,-0.9819,-0.9819,-0.9846,-0.9893,-0.9941,1.4425,1.3419,1.259,1.1627,1.0381,0.8318,0.6587,0.5233,0.3715,0.1835,0.0028,-0.103,-0.3142,-0.5027,-0.659,-0.7833,-0.8842,-0.9581,-1.005,-0.9893,-0.9793,-0.9947,-1.014,-1.0235,-1.0312,-1.0566,-1.0586,-1.0586,-1.0586,-1.0649,-1.1021,-1.1679,-1.1834,-1.2634,-1.3726,-1.4243,-1.4859,-1.5891,-1.6228,-1.6379,-1.6375,-1.5624,-1.4202,-1.2211,-1.1201,-1.0645,-1.0506,-1.006,-0.9534,-0.8705,-0.8087,-0.7298,-0.7065,-0.8292,-1.0484,-1.2923,-1.322,-1.3079,-1.2738,-1.2368,-1.1894,-1.2076,-1.091,-1.0461,-1.0796,-1.1127,-1.1477,-1.215,-1.284,-1.3979,-1.5296,-1.573,-1.5778,-1.5825,-1.5825,-1.5845,-1.5838,-1.5749,-1.5495,-1.5625,-1.451,-1.3263,-1.251,-1.1592,-1.0351,-0.9316,-0.9044,-0.8881,-0.8826,-0.8888,-0.8833,-0.8974,-0.8988,-0.915,-0.9273,-0.8378,-0.8685,-0.941,-0.9576,-0.9539,-0.9636,-0.9819,-0.9819,-0.9819,-0.9819,-0.9819,-0.9819,-0.9819,-0.9819,-0.9819,-0.9829,-0.9839,-0.9835,-0.9906,-1.0039,1.4119,1.3365,1.1762,1.0609,0.9644,0.7676,0.5986,0.4361,0.2463,0.0945,-0.0279,-0.2683,-0.4472,-0.6087,-0.7449,-0.8782,-0.9927,-1.0611,-1.0739,-1.0383,-1.0167,-1.02,-1.0419,-1.0439,-1.0544,-1.0559,-1.0586,-1.0586,-1.0586,-1.0649,-1.0982,-1.1624,-1.1741,-1.232,-1.3122,-1.3803,-1.4348,-1.5254,-1.5792,-1.6218,-1.6338,-1.5551,-1.3894,-1.1606,-1.0635,-1.0055,-0.9482,-0.9181,-0.8697,-0.8052,-0.7876,-0.7277,-0.6974,-0.8387,-1.0659,-1.2676,-1.34,-1.3276,-1.2645,-1.1527,-1.0576,-0.9714,-0.8942,-0.8413,-0.8597,-0.8814,-0.9413,-0.9894,-1.1551,-1.3355,-1.4124,-1.4997,-1.5683,-1.5778,-1.5791,-1.5823,-1.5803,-1.5199,-1.4728,-1.5028,-1.344,-1.1794,-1.1032,-1.0566,-0.997,-0.9096,-0.8602,-0.8436,-0.838,-0.8559,-0.8683,-0.8837,-0.9052,-0.9276,-0.95,-0.8131,-0.7544,-0.8738,-0.9061,-0.8997,-0.9143,-0.9636,-0.9819,-0.9819,-0.9819,-0.9819,-0.9819,-0.9819,-0.9819,-0.9819,-0.9839,-0.9802,-0.9893,-0.9984,-1.0195,1.4201,1.351,1.197,1.0696,0.95,0.7876,0.5833,0.3728,0.1911,0.025,-0.1478,-0.3616,-0.572,-0.7373,-0.8732,-0.9993,-1.0898,-1.1343,-1.1214,-1.0683,-1.0452,-1.0432,-1.0586,-1.0586,-1.0586,-1.0586,-1.0586,-1.0586,-1.0586,-1.0586,-1.0832,-1.1045,-1.1163,-1.1593,-1.2266,-1.2696,-1.361,-1.4378,-1.5198,-1.5818,-1.622,-1.5305,-1.332,-1.137,-1.0367,-0.9816,-0.9295,-0.9675,-0.9431,-0.8822,-0.8651,-0.7769,-0.736,-0.8207,-1.0502,-1.2836,-1.3531,-1.3474,-1.2763,-1.1748,-1.0578,-1.0104,-0.8687,-0.7866,-0.7847,-0.8089,-0.7985,-0.8428,-0.8966,-1.1209,-1.2668,-1.4028,-1.4704,-1.4949,-1.5302,-1.5444,-1.5016,-1.3973,-1.3909,-1.4031,-1.2297,-1.077,-0.9683,-0.943,-0.943,-0.8985,-0.8211,-0.7937,-0.7773,-0.8029,-0.8174,-0.8605,-0.8907,-0.9367,-0.9347,-0.813,-0.711,-0.7986,-0.8221,-0.8097,-0.8647,-0.9079,-0.9511,-0.9819,-0.9819,-0.9819,-0.9819,-0.9819,-0.9819,-0.9825,-0.9785,-0.9832,-0.995,-1.0071,-1.0287,1.4444,1.3689,1.234,1.0914,0.939,0.7996,0.5715,0.3151,0.1483,-0.0338,-0.235,-0.4301,-0.6473,-0.8614,-1.0137,-1.1248,-1.1834,-1.1788,-1.1337,-1.073,-1.0573,-1.0579,-1.0586,-1.0586,-1.0586,-1.0586,-1.0586,-1.0586,-1.0586,-1.0586,-1.0586,-1.0681,-1.0649,-1.0863,-1.1469,-1.1994,-1.2838,-1.3904,-1.4825,-1.5471,-1.5717,-1.492,-1.3054,-1.0689,-1.026,-0.9775,-0.902,-0.9707,-0.9873,-0.9494,-0.9194,-0.8545,-0.7094,-0.7862,-0.9908,-1.2182,-1.2996,-1.349,-1.3223,-1.2002,-1.085,-1.0893,-0.9005,-0.8164,-0.7934,-0.7975,-0.7988,-0.7988,-0.8233,-0.9217,-1.1263,-1.2716,-1.3349,-1.3655,-1.4286,-1.471,-1.3845,-1.3051,-1.2655,-1.2149,-1.0847,-0.9316,-0.7784,-0.8042,-0.8036,-0.7254,-0.648,-0.641,-0.6364,-0.7086,-0.7477,-0.8157,-0.8662,-0.9307,-0.9152,-0.8219,-0.7493,-0.7525,-0.706,-0.6505,-0.7423,-0.8401,-0.8958,-0.9576,-0.9819,-0.9819,-0.9819,-0.9839,-0.9869,-0.988,-0.9808,-0.9906,-1.0168,-1.0283,-1.0392,1.4834,1.3703,1.2286,1.0597,0.8802,0.7385,0.5072,0.2349,0.0723,-0.0932,-0.2571,-0.4843,-0.6977,-0.8974,-1.1397,-1.2112,-1.1842,-1.1648,-1.1281,-1.0649,-1.0586,-1.0586,-1.0586,-1.0586,-1.0586,-1.0586,-1.0586,-1.0586,-1.0586,-1.0586,-1.0586,-1.0586,-1.0593,-1.0701,-1.1009,-1.1589,-1.2858,-1.4185,-1.5285,-1.6048,-1.6256,-1.5523,-1.3485,-1.1358,-0.9995,-0.9128,-0.8499,-0.9107,-0.9519,-0.9679,-0.9514,-0.8544,-0.7263,-0.7941,-0.808,-0.9035,-1.0423,-1.2564,-1.256,-1.147,-1.0793,-1.0655,-0.9092,-0.8185,-0.7938,-0.7988,-0.7988,-0.7988,-0.7988,-0.8528,-1.0047,-1.1361,-1.1945,-1.2309,-1.2741,-1.2998,-1.2526,-1.2156,-1.1741,-1.0861,-0.9791,-0.7229,-0.5127,-0.5968,-0.6533,-0.5586,-0.4868,-0.4789,-0.5062,-0.5851,-0.7561,-0.8503,-0.8849,-0.943,-0.8831,-0.7953,-0.6867,-0.6818,-0.6202,-0.5282,-0.6383,-0.7606,-0.865,-0.9143,-0.9515,-0.9842,-0.9812,-0.99,-0.993,-0.9968,-1.0002,-1.0175,-1.0399,-1.0473,-1.0487,1.6126,1.4483,1.2726,1.0882,0.9069,0.7604,0.5217,0.2455,0.0628,-0.0995,-0.2789,-0.5128,-0.7042,-0.858,-1.0626,-1.0995,-1.0528,-1.0819,-1.093,-1.0681,-1.0586,-1.0586,-1.0586,-1.0586,-1.0586,-1.0586,-1.0586,-1.0586,-1.0586,-1.0586,-1.0586,-1.06,-1.0606,-1.07,-1.086,-1.1307,-1.2535,-1.4128,-1.5702,-1.6641,-1.6391,-1.5591,-1.4045,-1.1661,-1.0616,-0.9362,-0.8504,-0.877,-0.9407,-0.9564,-0.9305,-0.8948,-0.8287,-0.8098,-0.7621,-0.7738,-0.9268,-1.076,-1.1345,-1.0584,-1.0426,-1.0057,-0.8941,-0.8026,-0.7978,-0.7988,-0.7988,-0.7988,-0.7988,-0.8333,-0.897,-1.0047,-1.0654,-1.1078,-1.1439,-1.1355,-1.1392,-1.1151,-1.0654,-0.9693,-0.8404,-0.5624,-0.357,-0.4129,-0.4803,-0.447,-0.3703,-0.3335,-0.3791,-0.4673,-0.6823,-0.9317,-0.9516,-0.9657,-0.8603,-0.7495,-0.5468,-0.5104,-0.5468,-0.4976,-0.5649,-0.6689,-0.7858,-0.8967,-0.9643,-0.9802,-0.9859,-0.9903,-1.0002,-1.0073,-1.0151,-1.0321,-1.0477,-1.049,-1.0527,1.7327,1.5493,1.3481,1.1423,0.9354,0.7691,0.5253,0.2451,0.068,-0.1,-0.2832,-0.5008,-0.6517,-0.7361,-0.8631,-0.9176,-0.8949,-0.9768,-1.0325,-1.0516,-1.0586,-1.0586,-1.0586,-1.0586,-1.0586,-1.0586,-1.0586,-1.0586,-1.0586,-1.06,-1.0626,-1.0693,-1.074,-1.0848,-1.1122,-1.1739,-1.2882,-1.4942,-1.6637,-1.7269,-1.6884,-1.5808,-1.4324,-1.2736,-1.1354,-1.0072,-0.8955,-0.9339,-0.9962,-1.0545,-1.0074,-0.9883,-0.9631,-0.8596,-0.7789,-0.7777,-0.8597,-0.9138,-0.9745,-0.9678,-0.9571,-0.9288,-0.8675,-0.7971,-0.7982,-0.7988,-0.7988,-0.7988,-0.7988,-0.7988,-0.8244,-0.9053,-0.9442,-1.0003,-1.0476,-1.0264,-1.0016,-0.9624,-0.893,-0.7847,-0.6239,-0.3904,-0.2459,-0.2683,-0.2908,-0.3076,-0.2644,-0.1988,-0.2724,-0.3677,-0.5352,-0.7886,-0.9354,-0.9042,-0.7665,-0.6399,-0.4495,-0.351,-0.3876,-0.461,-0.5343,-0.6147,-0.7263,-0.8366,-0.9615,-0.9964,-1.0073,-1.0076,-1.0086,-1.0212,-1.0331,-1.0409,-1.05,-1.0521,-1.0561,1.8056,1.6542,1.4563,1.2093,0.9358,0.7042,0.4734,0.2401,0.0608,-0.1134,-0.2907,-0.4545,-0.5527,-0.5803,-0.664,-0.7477,-0.803,-0.8956,-0.9805,-1.0358,-1.0586,-1.0586,-1.0586,-1.0586,-1.0586,-1.0586,-1.0586,-1.0586,-1.0606,-1.0653,-1.078,-1.0955,-1.1163,-1.1222,-1.1852,-1.2914,-1.4125,-1.5913,-1.7332,-1.7847,-1.7273,-1.6175,-1.4625,-1.3439,-1.1894,-1.0714,-1.0582,-1.0739,-1.1276,-1.2211,-1.1553,-1.0958,-1.042,-0.9322,-0.8493,-0.7873,-0.7503,-0.79,-0.8115,-0.894,-0.9514,-0.9388,-0.8612,-0.7434,-0.7282,-0.7836,-0.7988,-0.7889,-0.7789,-0.7988,-0.8079,-0.8305,-0.8678,-0.8995,-0.9324,-0.8807,-0.8399,-0.7822,-0.71,-0.5959,-0.4352,-0.2459,0.0,0.0,0.0,0.0,0.0,-0.1039,-0.2125,-0.3134,-0.3832,-0.5707,-0.8158,-0.8163,-0.6401,-0.4745,-0.2712,-0.2219,-0.2526,-0.3752,-0.4976,-0.5847,-0.6623,-0.8588,-0.994,-1.0117,-1.0205,-1.0209,-1.0256,-1.0399,-1.05,-1.0548,-1.0592,-1.0626,-1.0653,1.7913,1.6398,1.4733,1.2481,0.9849,0.7406,0.4942,0.2561,0.0691,-0.1386,-0.3578,-0.4746,-0.5041,-0.4938,-0.5451,-0.6322,-0.7136,-0.8076,-0.932,-1.0199,-1.0586,-1.0586,-1.0586,-1.0586,-1.0586,-1.0586,-1.0586,-1.0586,-1.06,-1.0734,-1.1481,-1.1826,-1.189,-1.2646,-1.3444,-1.4423,-1.5678,-1.643,-1.7477,-1.7974,-1.7613,-1.6263,-1.5005,-1.4518,-1.2691,-1.1565,-1.1132,-1.1124,-1.1751,-1.2144,-1.195,-1.1655,-1.1171,-1.0095,-0.8931,-0.7731,-0.7102,-0.6716,-0.6914,-0.7736,-0.8269,-0.7288,-0.6368,-0.5672,-0.5974,-0.6927,-0.7282,-0.7335,-0.7603,-0.8029,-0.8065,-0.8177,-0.8398,-0.847,-0.8292,-0.7852,-0.7056,-0.6508,-0.5299,-0.4242,-0.3239,-0.1844,0.0,0.0,0.0,0.0,0.0,-0.047,-0.15,-0.2252,-0.2942,-0.3507,-0.5712,-0.651,-0.4928,-0.2959,-0.1049,-0.1419,-0.1789,-0.339,-0.5116,-0.5098,-0.6187,-0.8364,-1.0088,-1.0259,-1.0327,-1.0337,-1.0399,-1.0497,-1.0582,-1.0653,-1.0694,-1.0717,-1.0721,1.7784,1.6232,1.4464,1.2133,0.9474,0.7196,0.4737,0.2239,0.0367,-0.1902,-0.4411,-0.5057,-0.5219,-0.5047,-0.5458,-0.6305,-0.7214,-0.8135,-0.9282,-1.0098,-1.0586,-1.0586,-1.0586,-1.0586,-1.0586,-1.0586,-1.0586,-1.0586,-1.06,-1.0848,-1.164,-1.2376,-1.2858,-1.3504,-1.4676,-1.5947,-1.6709,-1.7165,-1.7561,-1.8008,-1.7759,-1.6228,-1.527,-1.4936,-1.3358,-1.2385,-1.2067,-1.2079,-1.1984,-1.222,-1.2194,-1.2141,-1.1551,-1.0681,-0.9334,-0.7891,-0.6614,-0.5865,-0.6142,-0.6176,-0.6426,-0.557,-0.4868,-0.4266,-0.4516,-0.5772,-0.6024,-0.6442,-0.724,-0.8103,-0.8093,-0.8303,-0.8448,-0.8581,-0.8703,-0.8233,-0.6543,-0.5526,-0.391,-0.2517,0.0,0.0,0.0,0.0,0.0,0.0,0.0,0.0,-0.0727,-0.1409,-0.1721,-0.2278,-0.3077,-0.3446,-0.3265,-0.3079,-0.3078,-0.3634,-0.4006,-0.451,-0.5517,-0.5568,-0.6526,-0.9027,-1.0337,-1.0415,-1.047,-1.051,-1.0534,-1.0565,-1.0636,-1.07,-1.0707,-1.0721,-1.0721,1.7711,1.6166,1.3803,1.0875,0.7808,0.6047,0.3807,0.1237,-0.0635,-0.2802,-0.4998,-0.5365,-0.5881,-0.6306,-0.6551,-0.7089,-0.7899,-0.8763,-0.969,-1.0396,-1.0586,-1.0586,-1.0633,-1.0646,-1.0685,-1.0631,-1.0633,-1.066,-1.06,-1.0915,-1.1783,-1.2743,-1.3294,-1.4079,-1.5211,-1.6166,-1.707,-1.7803,-1.794,-1.7974,-1.7436,-1.607,-1.5455,-1.4804,-1.3649,-1.2684,-1.2877,-1.2698,-1.249,-1.2171,-1.265,-1.2379,-1.1378,-1.0818,-0.9557,-0.7831,-0.6388,-0.5731,-0.5712,-0.4716,-0.4117,-0.3967,-0.3466,-0.3265,-0.3667,-0.4168,-0.457,-0.4883,-0.7163,-0.8123,-0.8352,-0.8489,-0.8551,-0.8592,-0.8702,-0.7781,-0.6024,-0.4468,-0.2907,0.0,0.0,0.0,0.0,0.0,0.0,0.0,0.0,0.0,0.0,-0.0615,-0.0986,0.0,0.0,-0.2279,-0.2955,-0.455,-0.5226,-0.5722,-0.5929,-0.5961,-0.6507,-0.7014,-0.8325,-1.0148,-1.049,-1.0541,-1.0622,-1.07,-1.0673,-1.0643,-1.0673,-1.0714,-1.0717,-1.0721,-1.0721,1.6261,1.4656,1.2266,0.9304,0.6209,0.4927,0.2924,0.03,-0.2004,-0.3936,-0.5223,-0.5884,-0.6706,-0.7307,-0.7629,-0.8019,-0.879,-0.8994,-0.9754,-1.0523,-1.0586,-1.0734,-1.0775,-1.0763,-1.0787,-1.0873,-1.0843,-1.0586,-1.06,-1.0797,-1.176,-1.2803,-1.3631,-1.5111,-1.6114,-1.7001,-1.7794,-1.794,-1.7949,-1.7695,-1.7018,-1.5858,-1.5029,-1.4709,-1.3483,-1.3065,-1.3373,-1.3089,-1.2414,-1.1935,-1.2401,-1.1347,-1.0391,-0.9797,-0.9247,-0.755,-0.6017,-0.3692,-0.2663,-0.1562,-0.1862,-0.2063,-0.2063,0.0,0.0,0.0,-0.2114,-0.375,-0.6187,-0.7007,-0.7297,-0.817,-0.8458,-0.8396,-0.8041,-0.6616,-0.5083,-0.3631,0.0,0.0,0.0,0.0,0.0,0.0,0.0,0.0,0.0,0.0,0.0,0.0,0.0,0.0,0.0,0.0,-0.2587,-0.5375,-0.6753,-0.7019,-0.6867,-0.6531,-0.7219,-0.8248,-0.905,-1.0227,-1.0447,-1.0663,-1.0694,-1.0721,-1.0721,-1.0714,-1.0721,-1.0721,-1.0721,-1.0721,-1.0721,1.5321,1.3407,1.071,0.777,0.5022,0.4216,0.2195,-0.09,-0.3141,-0.4803,-0.6175,-0.6936,-0.7852,-0.8607,-0.8957,-0.9087,-0.9754,-0.9786,-0.9856,-1.0593,-1.0586,-1.076,-1.0863,-1.0659,-1.0384,-1.0477,-1.0143,-0.9826,-0.964,-1.0149,-1.0713,-1.1636,-1.3334,-1.3984,-1.5122,-1.6123,-1.7154,-1.7111,-1.6973,-1.698,-1.6157,-1.5311,-1.4673,-1.4252,-1.3677,-1.3313,-1.3313,-1.2791,-1.1893,-1.1594,-1.0924,-0.9856,-0.91,-0.8882,-0.8708,-0.7429,-0.542,-0.2864,-0.0958,0.0,0.0,-0.1159,-0.0353,0.0,0.0,0.0,0.0,-0.2559,-0.4598,-0.5372,-0.5814,-0.6883,-0.7225,-0.7103,-0.6518,-0.5133,-0.391,-0.2458,0.0,0.0,0.0,0.0,0.0,0.0,0.0,0.0,0.0,0.0,0.0,0.0,0.0,0.0,0.0,0.0,-0.4266,-0.7361,-0.8324,-0.8406,-0.8081,-0.7693,-0.8411,-0.9536,-0.9951,-1.0225,-1.0501,-1.069,-1.0707,-1.0721,-1.0721,-1.0721,-1.0721,-1.0721,-1.0721,-1.0721,-1.0721,1.4902,1.2379,0.9172,0.6375,0.4216,0.3555,0.1062,-0.2709,-0.3744,-0.5625,-0.7989,-0.7959,-0.8805,-1.0225,-1.0478,-1.0421,-1.0428,-1.046,-1.053,-1.0498,-1.0396,-1.0626,-1.0423,-0.998,-0.9712,-0.9344,-0.9056,-0.8887,-0.8368,-0.8964,-0.9351,-0.9844,-1.1408,-1.1955,-1.2919,-1.4142,-1.531,-1.5547,-1.5843,-1.5488,-1.4499,-1.4311,-1.4042,-1.3786,-1.362,-1.3641,-1.3477,-1.2759,-1.1696,-1.0999,-1.0346,-0.9139,-0.8512,-0.8657,-0.8379,-0.7233,-0.5014,-0.2564,0.0,0.0,0.0,0.0,0.005,0.0,0.0,0.0,0.0,-0.0672,-0.185,-0.2894,-0.3745,-0.4395,-0.4949,-0.479,-0.4679,-0.3575,-0.2513,-0.1621,-0.1175,0.0,0.0,0.0,0.0,0.0,0.0,0.0,0.0,0.0,0.0,0.0,0.0,0.0,0.0,0.0,-0.5631,-0.8446,-0.9346,-0.924,-0.9599,-0.9483,-1.0232,-1.038,-1.0441,-1.0504,-1.0621,-1.0721,-1.0721,-1.0721,-1.0721,-1.0721,-1.0654,-1.0721,-1.0721,-1.0721,-1.0721,1.3351,1.0899,0.8118,0.581,0.3652,0.0598,-0.1931,-0.3694,-0.5226,-0.7107,-0.8914,-0.8947,-0.9518,-1.053,-1.0586,-1.0586,-1.0586,-1.0586,-1.0586,-1.0428,-1.0047,-0.9972,-0.9687,-0.9298,-0.8935,-0.8725,-0.8495,-0.8147,-0.824,-0.8463,-0.8722,-0.9504,-0.96,-0.9616,-1.0032,-1.1242,-1.2545,-1.363,-1.3989,-1.3542,-1.2952,-1.2732,-1.2718,-1.2679,-1.317,-1.3387,-1.3357,-1.1949,-1.0913,-1.0611,-0.8925,-0.7672,-0.7882,-0.7841,-0.7429,-0.5185,-0.3416,0.0,0.0,0.0,0.0,0.0,0.0,0.136,0.0,0.0809,0.0458,0.0625,0.0483,-0.0601,-0.159,-0.2266,-0.245,-0.223,-0.2063,-0.1451,-0.0502,-0.0056,0.0336,0.0,0.0,0.0,0.0,0.0,0.0,0.0,0.0,0.0,0.0,0.0,0.0,0.0,-0.3875,-0.4732,-0.6251,-0.8821,-0.9619,-1.0162,-1.0351,-1.047,-1.0565,-1.0573,-1.0673,-1.0697,-1.0714,-1.0721,-1.0721,-1.0717,-1.0651,-1.0654,-1.0588,-1.0654,-1.0651,-1.0316,-1.0246,1.2081,0.9792,0.7562,0.5026,0.2059,-0.1233,-0.3338,-0.4623,-0.6081,-0.754,-0.8748,-0.9119,-0.9766,-1.0491,-1.0586,-1.0586,-1.0586,-1.0586,-1.0586,-1.0396,-0.9658,-0.964,-0.9343,-0.8548,-0.7986,-0.7862,-0.7602,-0.7162,-0.7368,-0.7114,-0.7253,-0.7279,-0.7482,-0.7114,-0.7205,-0.812,-0.9033,-1.0245,-1.1022,-1.1137,-1.1119,-1.1026,-1.1118,-1.1267,-1.2016,-1.247,-1.248,-1.0692,-1.0096,-0.9777,-0.7963,-0.7053,-0.685,-0.6386,-0.5451,-0.3463,-0.2665,-0.141,0.0,0.0,0.0,0.0,0.126,0.2113,0.2464,0.2316,0.2405,0.251,0.2063,0.1449,0.0555,-0.0166,0.0167,0.0445,0.0724,0.0949,0.1396,0.1788,0.1568,0.1179,0.0,0.0,0.0,0.0,0.0,0.0,0.0,0.0,0.0,0.0,0.0,0.0,-0.449,-0.6399,-0.7825,-0.8863,-0.9773,-1.0365,-1.0497,-1.0612,-1.0704,-1.0717,-1.0707,-1.0707,-1.0717,-1.0721,-1.0721,-1.0651,-1.0585,-1.0452,-0.9845,-0.9175,-0.8972,-0.8906,-0.8972,1.1015,0.8924,0.707,0.3769,-0.0033,-0.1971,-0.3673,-0.5328,-0.6289,-0.7274,-0.8226,-0.8947,-0.9786,-1.0466,-1.0586,-1.0586,-1.0586,-1.0586,-1.0428,-1.0428,-0.9428,-0.906,-0.8512,-0.774,-0.7048,-0.6676,-0.6487,-0.635,-0.5827,-0.5669,-0.5425,-0.4724,-0.474,-0.465,-0.4686,-0.5558,-0.6076,-0.5924,-0.7782,-0.8932,-0.9096,-0.932,-0.9756,-0.9712,-1.0144,-1.0466,-1.012,-0.9435,-0.8755,-0.842,-0.7726,-0.658,-0.5591,-0.451,-0.3279,-0.246,-0.1861,-0.1058,0.0,0.0,0.0,0.0,0.136,0.2614,0.3214,0.3364,0.3417,0.4367,0.4144,0.4107,0.3496,0.3268,0.3438,0.3827,0.4161,0.4334,0.4562,0.3902,0.2182,0.1576,0.0,0.0,0.0,0.0,0.0,0.0,0.0,0.0,0.0,0.0,0.0,-0.222,-0.4328,-0.6452,-0.7832,-0.883,-0.9963,-1.0504,-1.0616,-1.0673,-1.0711,-1.0721,-1.0721,-1.0721,-1.0721,-1.0721,-1.0717,-1.0651,-1.0313,-0.9643,-0.8837,-0.7567,-0.7231,-0.7365,-0.7367,0.9687,0.7985,0.4929,0.1796,-0.0966,-0.2204,-0.3713,-0.5418,-0.6326,-0.7502,-0.8812,-0.9204,-0.969,-1.0301,-1.0358,-1.0358,-1.0428,-1.0168,-1.0104,-0.9518,-0.8716,-0.8084,-0.7489,-0.6679,-0.6097,-0.5945,-0.5815,-0.5805,-0.5596,-0.5102,-0.4611,-0.4491,-0.3854,-0.3037,-0.2535,-0.342,-0.3424,-0.273,-0.4219,-0.5946,-0.6261,-0.7644,-0.853,-0.8296,-0.8381,-0.8415,-0.8123,-0.7698,-0.749,-0.7346,-0.6412,-0.5349,-0.4262,-0.3121,-0.2411,-0.1913,0.0,0.0,0.0,0.0,0.0,0.0,0.1812,0.3115,0.3865,0.3966,0.4593,0.5762,0.6621,0.672,0.6669,0.6664,0.6714,0.7152,0.7483,0.7546,0.7555,0.5291,0.2964,0.1753,0.063,0.0,0.0,0.0,0.0,0.0,0.0,0.0,0.0,0.0,0.0,-0.1981,-0.3928,-0.5829,-0.7285,-0.8906,-1.0103,-1.0541,-1.0633,-1.0683,-1.0717,-1.0721,-1.0721,-1.0721,-1.0721,-1.0721,-1.0721,-1.0717,-1.0246,-0.9305,-0.8568,-0.7498,-0.6229,-0.6028,-0.5763,0.8697,0.7388,0.4117,0.14,-0.0698,-0.2136,-0.3749,-0.5292,-0.5914,-0.6854,-0.8091,-0.8549,-0.9005,-0.9416,-0.9448,-0.955,-0.9518,-0.9422,-0.9096,-0.8549,-0.7929,-0.7274,-0.6535,-0.5939,-0.5768,-0.5623,-0.5758,-0.5767,-0.5322,-0.4443,-0.3787,-0.3322,-0.2345,-0.1565,-0.098,-0.1409,-0.1487,-0.0982,-0.1884,-0.2765,-0.3654,-0.51,-0.6318,-0.6181,-0.6164,-0.613,-0.589,-0.5551,-0.5542,-0.5235,-0.4336,-0.3764,-0.2788,-0.1802,-0.121,-0.0908,0.0,0.0,0.0,0.0,0.0,0.0,0.2465,0.3815,0.4373,0.4684,0.6332,0.7657,0.9896,1.0288,0.9698,0.953,0.9475,0.9753,0.9315,0.8996,0.7843,0.5855,0.4246,0.3255,0.0,0.0,0.0,0.0,0.0,0.0,0.0,0.0,0.0,0.0,0.0,-0.1804,-0.3701,-0.5023,-0.6188,-0.825,-1.0299,-1.0588,-1.066,-1.069,-1.0721,-1.0721,-1.0721,-1.0721,-1.0721,-1.0721,-1.0721,-1.0721,-0.9911,-0.8837,-0.8299,-0.7698,-0.636,-0.5091,-0.4692,0.7609,0.6634,0.3921,0.1566,-0.0266,-0.1968,-0.3713,-0.5193,-0.5289,-0.5613,-0.6289,-0.6902,-0.7428,-0.7962,-0.7999,-0.7994,-0.8124,-0.8447,-0.8188,-0.7702,-0.7144,-0.6654,-0.6299,-0.5894,-0.5586,-0.5329,-0.5278,-0.4909,-0.4433,-0.3476,-0.2464,-0.1489,-0.0706,0.0039,0.0157,0.0196,0.0275,0.0276,-0.0321,-0.1192,-0.1929,-0.2654,-0.3798,-0.4144,-0.3747,-0.3163,-0.2988,-0.3051,-0.3079,-0.3036,-0.2532,-0.2178,-0.1634,0.0,0.0,0.0,0.0,0.0,0.0,0.0,0.0,0.0907,0.2865,0.4069,0.463,0.5979,0.7604,0.912,1.1354,1.2109,1.152,1.1474,1.142,1.1252,1.0597,0.9556,0.7738,0.6042,0.5104,0.4103,0.0,0.0,0.0,0.0,0.0,0.0,0.0,0.0,0.0,0.0,0.0,0.0,-0.3418,-0.4562,-0.5483,-0.7963,-1.0588,-1.0629,-1.0694,-1.0711,-1.0721,-1.0721,-1.0721,-1.0721,-1.0721,-1.0721,-1.0721,-1.0721,-0.9709,-0.8903,-0.8166,-0.7764,-0.6829,-0.5559,-0.4089,0.5581,0.4388,0.3173,0.1267,-0.0998,-0.2239,-0.3716,-0.5093,-0.4586,-0.4411,-0.4442,-0.4135,-0.5051,-0.7962,-0.7992,-0.7792,-0.7335,-0.7465,-0.7302,-0.6948,-0.6318,-0.6034,-0.5666,-0.5152,-0.5136,-0.4766,-0.4237,-0.3606,-0.3361,-0.2504,-0.1802,-0.1411,-0.0431,0.0431,0.1215,0.1333,0.1492,0.1586,0.1301,0.0542,-0.0756,-0.1584,-0.2579,-0.2339,-0.1334,-0.0268,0.0224,-0.0227,-0.0548,-0.0834,-0.1329,-0.1126,0.0,0.0,0.0,0.0,0.0,0.0,0.0,0.0,0.0,0.1109,0.2865,0.4117,0.5074,0.6637,0.7747,0.8125,0.9751,1.0272,1.01,1.0979,1.1197,1.0912,1.0413,0.8501,0.6576,0.5416,0.4388,0.323,0.0,0.0,0.0,0.0,0.0,0.0,0.0,0.0,0.0,0.0,0.0,0.0,0.0,-0.4391,-0.5562,-0.8481,-1.0673,-1.0707,-1.0721,-1.0721,-1.0721,-1.0721,-1.0721,-1.0721,-1.0721,-1.0721,-1.0721,-1.0721,-1.0518,-0.9775,-0.8634,-0.7764,-0.7096,-0.6362,-0.5294]},{"header":{"parameterUnit":"m.s-1","parameterCategory":1,"la1":31.0,"la2":29.5877,"lo1":-88.7671,"lo2":-86.6584,"dy":0.0162,"dx":0.0185,"nx":115,"ny":88,"refTime":"2024-08-15T12:00:00:Z","depth":0,"parameterNumber":3,"parameterNumberName":"V-component_of_WINDS"},"data":[0.0,0.0,0.0,0.0,0.0,0.0,0.0,0.0,0.0,0.0,0.0,0.0,0.0,0.0,0.0,0.0,0.0,0.0,0.0,0.0,0.0,0.0,0.0,0.0,0.0,0.0,0.0,0.0,0.0,0.0,0.0,0.0,0.0,0.0,0.0,0.0,0.0,0.0,0.0,0.0,0.0,0.0,0.0,0.0,0.0,0.0,0.0,0.0,0.0,0.0,0.0,0.0,0.0,0.0,0.0,0.0,0.0,0.0,0.0,0.0,0.0,0.0,0.0,0.0,0.0,0.0,0.0,0.0,0.0,0.0,0.0,0.0,0.0,0.0,0.0,0.0,0.0,0.0,0.0,0.0,0.0,0.0,0.0,0.0,0.0,0.0,0.0,0.0,0.0,0.0,0.0,0.0,0.0,0.0,0.0,0.0,0.0,0.0,0.0,0.0,0.0,0.0,0.0,0.0,0.0,0.0,0.0,0.0,0.0,0.0,0.0,0.0,0.0,0.0,0.0,0.0,0.0,0.0,0.0,0.0,0.0,0.0,0.0,0.0,0.0,0.0,0.0,0.0,0.0,0.0,0.0,0.0,0.0,0.0,0.0,0.0,0.0,0.0,0.0,0.0,0.0,0.0,0.0,0.0,0.0,0.0,0.0,0.0,0.0,0.0,0.0,0.0,0.0,0.0,0.0,0.0,0.0,0.0,0.0,0.0,0.0,0.0,0.0,0.0,0.0,0.0,0.0,0.0,0.0,0.0,0.0,0.0,0.0,0.0,0.0,0.0,0.0,0.0,0.0,0.0,0.0,0.0,0.0,0.0,0.0,0.0,0.0,0.0,0.0,0.0,0.0,0.0,0.0,0.0,0.0,0.0,0.0,0.0,0.0,0.0,0.0,0.0,0.0,0.0,0.0,0.0,0.0,0.0,0.0,0.0,0.0,0.0,0.0,0.0,0.0,0.0,0.0,0.0,0.0,0.0,0.0,0.0,0.0,0.0,0.0,0.0,0.0,0.0,0.0,0.0,0.0,0.0,0.0,0.0,0.0,0.0,0.0,0.0,0.0,0.0,0.0,0.0,0.0,0.0,0.0,0.0,0.0,0.0,0.0,0.0,0.0,0.0,0.0,0.0,0.0,0.0,0.0,0.0,0.0,0.0,0.0,0.0,0.0,0.0,0.0,0.0,0.0,0.0,0.0,0.0,0.0,0.0,0.0,0.0,0.0,0.0,0.0,0.0,0.0,0.0,0.0,0.0,0.0,0.0,0.0,0.0,0.0,0.0,0.0,0.0,0.0,0.0,0.0,0.0,0.0,0.0,0.0,0.0,0.0,0.0,0.0,0.0,0.0,0.0,0.0,0.0,0.0,0.0,0.0,0.0,0.0,0.0,0.0,0.0,0.0,0.0,0.0,0.0,0.0,0.0,0.0,0.0,0.0,0.0,0.0,0.0,0.0,0.0,0.0,0.0,0.0,0.0,0.0,0.0,0.0,0.0,0.0,0.0,0.0,0.0,0.0,0.0,0.0,0.0,0.0,0.0,0.0,0.0,0.0,0.0,0.0,0.0,0.0,0.0,0.0,0.0,0.0,0.0,0.0,0.0,0.0,0.0,0.0,0.0,0.0,0.0,0.0,0.0,0.0,0.0,0.0,0.0,0.0,0.0,0.0,0.0,0.0,0.0,0.0,0.0,0.0,0.0,0.0,0.0,0.0,0.0,0.0,0.0,0.0,0.0,0.0,0.0,0.0,0.0,0.0,0.0,0.0,0.0,0.0,0.0,0.0,0.0,0.0,0.0,0.0,0.0,0.0,0.0,0.0,0.0,0.0,0.0,0.0,0.0,0.0,0.0,0.0,0.0,0.0,0.0,0.0,0.0,0.0,0.0,0.0,0.0,0.0,0.0,0.0,0.0,0.0,0.0,0.0,0.0,0.0,0.0,0.0,0.0,0.0,0.0,0.0,0.0,0.0,0.0,0.0,0.0,0.0,0.0,0.0,0.0,0.0,0.0,0.0,0.0,0.0,0.0,0.0,0.0,0.0,0.0,0.0,0.0,0.0,0.0,0.0,0.0,0.0,0.0,0.0,0.0,0.0,0.0,0.0,0.0,0.0,0.0,0.0,0.0,0.0,0.0,0.0,0.0,0.0,0.0,0.0,0.0,0.0,0.0,0.0,0.0,0.0,0.0,0.0,0.0,0.0,0.0,0.0,0.0,0.0,0.0,0.0,0.0,0.0,0.0,0.0,0.0,0.0,0.0,0.0,0.0,0.0,0.0,0.0,0.0,0.0,0.0,0.0,0.0,0.0,0.0,0.0,0.0,0.0,0.0,0.0,0.0,0.0,0.0,0.0,0.0,0.0,0.0,0.0,0.0,0.0,0.0,0.0,0.0,0.0,0.0,0.0,0.0,0.0,0.0,0.0,0.0,0.0,0.0,0.0,0.0,0.0,0.0,0.0,0.0,0.0,0.0,0.0,0.0,0.0,0.0,0.0,0.0,0.0,0.0,0.0,0.0,0.0,0.0,0.0,0.0,0.0,0.0,0.0,0.0,0.0,0.0,0.0,0.0,0.0,0.0,0.0,0.0,0.0,0.0,0.0,0.0,0.0,0.0,0.0,0.0,0.0,0.0,0.0,0.0,0.0,0.0,0.0,0.0,0.0,0.0,0.0,0.0,0.0,0.0,0.0,0.0,0.0,0.0,0.0,0.0,0.0,0.0,0.0,0.0,0.0,0.0,0.0,0.0,0.0,0.0,0.0,0.0,0.0,0.0,0.0,0.0,0.0,0.0,0.0,0.0,0.0,0.0,0.0,0.0,0.0,0.0,0.0,0.0,0.0,0.0,0.0,0.0,0.0,0.0,0.0,0.0,0.0,0.0,0.0,0.0,0.0,0.0,0.0,0.0,0.0,0.0,0.0,0.0,0.0,0.0,0.0,0.0,0.0,0.0,0.0,0.0,0.0,0.0,0.0,0.0,0.0,0.0,0.0,0.0,0.0,0.0,0.0,0.0,0.0,0.0,0.0,0.0,0.0,0.0,0.0,0.0,0.0,0.0,0.0,0.0,0.0,0.0,0.0,0.0,0.0,0.0,0.0,0.0,0.0,0.0,0.0,0.0,0.0,0.0,0.0,0.0,0.0,0.0,0.0,0.0,0.0,0.0,0.0,0.0,0.0,0.0,0.0,0.0,0.0,0.0,0.0,0.0,0.0,0.0,0.0,0.0,0.0,0.0,0.0,0.0,0.0,0.0,0.0,0.0,0.0,0.0,0.0,0.0,0.0,0.0,0.0,0.0,0.0,0.0,0.0,0.0,0.0,0.0,0.0,0.0,0.0,0.0,0.0,0.0,0.0,0.0,0.0,0.0,0.0,0.0,0.0,0.0,0.0,0.0,0.0,0.0,0.0,0.0,0.0,0.0,0.0,0.0,0.0,0.0,0.0,0.0,0.0,0.0,0.0,0.0,0.0,0.0,0.0,0.0,0.0,0.0,0.0,0.0,0.0,0.0,0.0,0.0,0.0,0.0,0.0,0.0,0.0,0.0,0.0,0.0,0.0,0.0,0.0,0.0,0.0,0.0,0.0,0.0,0.0,0.0,0.0,0.0,0.0,0.0,0.0,0.0,0.0,0.0,0.0,0.0,0.0,0.0,0.0,0.0,0.0,0.0,0.0,0.0,0.0,0.0,0.0,0.0,0.0,0.0,0.0,0.0,0.0,0.0,0.0,0.0,0.0,0.0,0.0,0.0,0.0,0.0,0.0,0.0,0.0,0.0,0.0,0.0,0.0,0.0,0.0,0.0,0.0,0.0,0.0,0.0,0.0,0.0,0.0,0.0,0.0,0.0,0.0,0.0,0.0,0.0,0.0,0.0,0.0,0.0,0.0,0.0,0.0,0.0,0.0,0.0,0.0,0.0,0.0,0.0,0.0,0.0,0.0,0.0,0.0,0.0,0.0,0.0,0.0,0.0,0.0,0.0,0.0,0.0,0.0,0.0,0.0,0.0,0.0,0.0,0.0,0.0,0.0,0.0,0.0,0.0,0.0,0.0,0.0,0.0,0.0,0.0,0.0,0.0,0.0,0.0,0.0,0.0,0.0,0.0,0.0,0.0,0.0,0.0,0.0,0.0,0.0,0.0,0.0,0.0,0.0,0.0,0.0,0.0,0.0,0.0,0.0,0.0,0.0,0.0,0.0,0.0,0.0,0.0,0.0,0.0,0.0,0.0,0.0,0.0,0.0,0.0,0.0,0.0,0.0,0.0,0.0,0.0,0.0,0.0,0.0,0.0,1.0074,0.0,0.0,0.0,0.0,0.0,0.0,0.0,0.0,0.0,0.0,0.0,0.0,0.0,0.0,0.0,0.0,0.0,0.0,0.0,0.0,0.0,0.0,0.0,0.0,0.0,0.0,0.0,0.0,0.0,0.0,0.0,0.0,0.0,0.0,0.0,0.0,0.0,0.0,0.0,0.0,0.0,0.0,0.0,0.0,0.0,0.0,0.0,0.0,0.0,0.0,0.0,0.0,0.0,0.0,0.0,0.0,0.0,0.0,0.0,0.0,0.0,0.0,0.0,0.0,0.0,0.0,0.0,0.0,0.0,0.0,0.0,0.0,0.0,0.0,0.0,0.0,0.0,0.0,0.0,0.0,0.0,0.0,0.0,0.0,0.0,0.0,0.0,0.0,0.0,0.0,0.0,0.0,0.0,0.0,0.0,0.0,0.0,0.0,0.0,0.0,0.0,0.0,0.0,0.0,0.0,0.0,0.0,0.0,0.0,0.0,1.0194,1.0195,1.016,1.0141,1.0101,0.0,0.0,0.0,0.0,0.0,0.0,0.0,0.0,0.0,0.0,0.0,0.0,0.0,0.0,0.0,0.0,0.0,0.0,0.0,0.0,0.0,0.0,0.0,0.0,0.0,0.0,0.0,0.0,0.0,0.0,0.0,0.0,0.0,0.0,0.0,0.0,0.0,0.0,0.0,0.0,0.0,0.0,0.0,0.0,0.0,0.0,0.0,0.0,0.0,0.0,0.0,0.0,0.0,0.0,0.0,0.0,0.0,0.0,0.0,0.0,0.0,0.0,0.0,0.0,0.0,0.0,0.0,0.0,0.0,0.0,0.0,0.0,0.0,0.0,0.0,0.0,0.0,0.0,0.0,0.0,0.0,0.0,0.0,0.0,0.0,0.0,0.0,0.0,0.0,0.0,0.0,0.0,0.0,0.0,0.0,0.0,0.0,0.0,0.0,0.0,0.0,0.0,0.0,0.0,0.0,0.0,0.0,0.0,0.0,0.0,0.0,0.0,1.0743,1.0699,1.0683,0.0,0.0,0.0,0.0,0.0,0.0,0.0,0.0,0.0,0.0,0.0,0.0,0.0,0.0,0.0,0.0,0.0,0.0,0.0,0.0,0.0,0.0,0.0,0.0,0.0,0.0,0.0,0.0,0.0,0.0,0.0,0.0,0.0,0.0,0.0,0.0,0.0,0.0,0.0,0.0,0.0,0.0,0.0,0.0,0.0,0.0,0.0,0.0,0.0,0.0,0.0,0.0,0.0,0.0,0.0,0.0,0.0,0.0,0.0,0.0,0.0,0.0,0.0,0.0,0.0,0.0,0.0,0.0,0.0,0.0,0.0,0.0,0.0,0.0,0.0,0.0,0.0,0.0,0.0,0.0,0.0,0.0,0.0,0.0,0.0,0.0,0.0,0.0,0.0,0.0,0.0,0.0,0.0,0.0,0.0,0.0,0.0,0.0,0.0,0.0,0.0,0.0,0.0,0.0,0.0,0.0,0.0,0.0,0.0,0.0,1.1011,1.2511,1.2543,0.0,1.248,0.0,0.0,0.0,0.0,0.0,0.0,0.0,0.0,0.0,0.0,0.0,0.0,0.0,0.0,0.0,0.0,0.0,0.0,0.0,0.0,0.0,0.0,0.0,0.0,0.0,0.0,0.0,0.0,0.0,0.0,0.0,0.0,0.0,0.0,0.0,0.0,0.0,0.0,0.0,0.0,0.0,0.0,0.0,0.0,0.0,0.0,0.0,0.0,0.0,0.0,0.0,0.0,0.0,0.0,0.0,0.0,0.0,0.0,0.0,0.0,0.0,0.0,0.0,0.0,0.0,0.0,0.0,0.0,0.0,0.0,0.0,0.0,0.0,0.0,0.0,0.0,0.0,0.0,0.0,0.0,0.0,0.0,0.0,0.0,0.0,0.0,0.0,0.0,0.0,0.0,0.0,0.0,0.0,0.0,0.0,0.0,0.0,0.0,0.0,0.0,0.0,0.0,0.0,0.0,0.0,0.0,0.0,0.0,0.0,0.0,1.3572,1.26,1.2673,1.2751,0.0,0.0,0.0,0.0,0.0,0.0,0.0,0.0,0.0,0.0,0.0,0.0,0.0,0.0,0.0,0.0,0.0,0.0,0.0,0.0,0.0,0.0,0.0,0.0,0.0,0.0,0.0,0.0,0.0,0.0,0.0,0.0,0.0,0.0,0.0,0.0,0.0,0.0,0.0,0.0,0.0,0.0,0.0,0.0,0.0,0.0,0.0,0.0,0.0,0.0,0.0,0.0,0.0,0.0,0.0,0.0,0.0,0.0,0.0,0.0,0.0,0.0,0.0,0.0,0.0,0.0,0.0,0.0,0.0,0.0,0.0,0.0,0.0,0.0,0.0,0.0,0.0,0.0,0.0,0.0,0.0,0.0,0.0,0.0,0.0,0.0,0.0,0.0,0.0,0.0,0.0,0.0,0.0,0.0,0.0,0.0,0.0,0.0,0.0,0.0,0.0,0.0,0.0,0.0,0.0,0.0,0.0,0.0,0.0,0.0,1.353,1.4249,1.2842,1.3139,1.3182,1.2796,0.0,0.0,0.0,0.0,0.0,0.0,0.0,0.0,0.0,0.0,0.0,0.0,0.0,0.0,0.0,0.0,0.0,0.0,0.0,0.0,0.0,0.0,0.0,0.0,0.0,0.0,0.0,0.0,0.0,0.0,0.0,0.0,0.0,0.0,0.0,0.0,0.0,0.0,0.0,0.0,0.0,0.0,0.0,0.0,0.0,0.0,0.0,0.0,0.0,0.0,0.0,0.0,0.0,0.0,0.0,0.0,0.0,0.0,0.0,0.0,0.0,0.0,0.0,0.0,0.0,0.0,0.0,0.0,0.0,0.0,0.0,0.0,0.0,0.0,0.0,0.0,0.0,0.0,0.0,0.0,0.0,0.0,0.0,0.0,0.0,0.0,0.0,0.0,0.0,0.0,0.0,0.0,0.0,0.0,0.0,0.0,0.0,0.0,0.0,0.0,0.0,0.0,0.0,0.0,0.0,0.0,0.0,0.0,1.301,1.1831,1.188,1.3493,1.4478,1.4304,0.0,0.0,0.0,0.0,0.0,0.0,0.0,0.0,0.0,0.0,0.0,0.0,0.0,0.0,0.0,0.0,0.0,0.0,0.0,0.0,0.0,0.0,0.0,0.0,0.0,0.0,0.0,0.0,0.0,0.0,0.0,0.0,0.0,0.0,0.0,0.0,0.0,0.0,0.0,0.0,0.0,0.0,0.0,0.0,0.0,0.0,0.0,0.0,0.0,0.0,0.0,0.0,0.0,0.0,0.0,0.0,0.0,0.0,0.0,0.0,0.0,0.0,0.0,0.0,0.0,0.0,0.0,0.0,0.0,0.0,0.0,0.0,0.0,0.0,0.0,0.0,0.0,0.0,0.0,0.0,0.0,0.0,0.0,0.0,0.0,0.0,0.0,0.0,0.0,0.0,0.0,0.0,0.0,0.0,0.0,0.0,0.0,0.0,0.0,0.0,0.0,0.0,0.0,0.0,0.0,0.0,0.0,0.0,0.0,1.0341,1.0779,1.2191,1.4485,1.39,1.3719,0.0,0.0,0.0,0.0,0.0,0.0,0.0,0.0,0.0,0.0,0.0,0.0,0.0,0.0,0.0,0.0,0.0,0.0,0.0,0.0,0.0,0.0,0.0,0.0,0.0,0.0,0.0,0.0,0.0,0.0,0.0,0.0,0.0,0.0,0.0,0.0,0.0,0.0,0.0,0.0,0.0,0.0,0.0,0.0,0.0,0.0,0.0,0.0,0.0,0.0,0.0,0.0,0.0,0.0,0.0,0.0,0.0,0.0,0.0,0.0,0.0,0.0,0.0,0.0,0.0,0.0,0.0,0.0,0.0,0.0,0.0,0.0,0.0,0.0,0.0,0.0,0.0,0.0,0.0,0.0,0.0,0.0,0.0,0.0,0.0,0.0,0.0,0.0,0.0,0.0,0.0,0.0,0.0,0.0,0.0,0.0,0.0,0.0,0.0,0.0,0.0,0.0,0.0,0.0,0.0,0.0,0.0,0.0,0.0,0.7655,0.0,1.2618,0.0,1.3154,1.2972,0.0,0.0,0.0,0.0,0.0,0.0,0.0,0.0,0.0,0.0,0.0,0.0,0.0,0.0,0.0,0.0,0.0,0.0,0.0,0.0,0.0,0.0,0.0,0.0,0.0,0.0,0.0,0.0,0.0,0.0,0.0,0.0,0.0,0.0,0.0,0.0,0.0,0.0,0.0,0.0,0.0,0.0,0.0,0.0,0.0,0.0,0.0,0.0,0.0,0.0,0.0,0.0,0.0,0.0,0.0,0.0,0.0,0.0,0.0,0.0,0.0,0.0,0.0,0.0,0.0,0.0,0.0,0.0,0.0,0.0,0.0,0.0,0.0,0.0,0.0,0.0,0.0,0.0,0.0,0.0,0.0,0.0,0.0,0.0,0.0,0.0,0.0,0.0,0.0,0.0,0.0,0.0,0.0,0.0,0.0,0.0,0.0,0.0,0.0,0.0,0.0,0.0,0.0,0.0,0.0,0.0,0.0,0.0,0.8661,0.5664,1.0844,1.2762,1.0993,1.2357,1.2184,0.0,0.0,0.0,0.0,0.0,0.0,0.0,0.0,0.0,0.0,0.0,0.0,0.0,0.0,0.0,0.0,0.0,0.0,0.0,0.0,0.0,0.0,0.0,0.0,0.0,0.0,0.0,0.0,0.0,0.0,0.0,0.0,0.0,0.0,0.0,0.0,0.0,0.0,0.0,0.0,0.0,0.0,0.0,0.0,0.0,0.0,0.0,0.0,0.0,0.0,0.0,0.0,0.0,0.0,0.0,0.0,0.0,0.0,0.0,0.0,0.0,0.0,0.0,0.0,0.0,0.0,0.0,0.0,0.0,0.0,0.0,0.0,0.0,0.0,0.0,0.0,0.0,0.0,0.0,0.0,0.0,0.0,0.0,0.0,0.0,0.0,0.0,0.0,0.0,0.0,0.0,0.0,0.0,0.0,0.0,0.0,0.0,0.0,0.0,0.0,0.0,0.0,0.0,0.0,0.0,0.0,0.0,0.0,0.0,1.0752,1.0744,1.1301,1.2302,1.1691,1.2198,0.0,0.0,0.0,0.0,0.0,0.0,0.0,0.0,0.0,0.0,0.0,0.0,0.0,0.0,0.0,0.0,0.0,0.0,0.0,0.0,0.0,0.0,0.0,0.0,0.0,0.0,0.0,0.0,0.0,0.0,0.0,0.0,0.0,0.0,0.0,0.0,0.0,0.0,0.0,0.0,0.0,0.0,0.0,0.0,0.0,0.0,0.0,0.0,0.0,0.0,0.0,0.0,0.0,0.0,0.0,0.0,0.0,0.0,0.0,0.0,0.0,0.0,0.0,0.0,0.0,0.0,0.0,0.0,0.0,0.0,0.0,0.0,0.0,0.0,0.0,0.0,0.0,0.0,0.0,0.0,0.0,0.0,0.0,0.0,0.0,0.0,0.0,0.0,0.0,0.0,0.0,0.0,0.0,0.0,0.0,0.0,0.0,0.0,0.0,0.0,0.0,0.0,0.0,0.0,0.0,0.0,0.0,0.0,0.0,1.5275,1.3188,1.2561,1.3835,1.2626,1.2802,1.4533,0.0,0.0,0.0,0.0,0.0,0.0,0.0,0.0,0.0,0.0,0.0,0.0,0.0,0.0,0.0,0.0,0.0,0.0,0.0,0.0,0.0,0.0,0.0,0.0,0.0,0.0,0.0,0.0,0.0,0.0,0.0,0.0,0.0,0.0,0.0,0.0,0.0,0.0,0.0,0.0,0.0,0.0,0.0,0.0,0.0,0.0,0.0,0.0,0.0,0.0,0.0,0.0,0.0,0.0,0.0,0.0,0.0,0.0,0.0,0.0,0.0,0.0,0.0,0.0,0.0,0.0,0.0,0.0,0.0,0.0,0.0,0.0,0.0,0.0,0.0,0.0,0.0,0.0,0.0,0.0,0.0,0.0,0.0,0.0,0.0,0.0,0.0,0.0,0.0,0.0,0.0,0.0,0.0,0.0,0.0,0.0,0.0,0.0,0.0,0.0,0.0,0.0,0.0,0.0,0.0,0.0,0.0,0.0,1.9125,1.7474,1.6146,1.5346,1.4771,1.3911,0.0,0.0,0.0,0.0,0.0,0.0,0.0,0.0,0.0,0.0,0.0,0.0,0.0,0.0,0.0,0.0,0.0,0.0,0.0,0.0,0.0,0.0,0.0,0.0,0.0,0.0,0.0,0.0,0.0,0.0,0.0,0.0,0.0,0.0,0.0,0.0,0.0,0.0,0.0,0.0,0.0,0.0,0.0,0.0,0.0,0.0,0.0,0.0,0.0,0.0,0.0,0.0,0.0,0.0,0.0,0.0,0.0,0.0,0.0,0.0,0.0,0.0,0.0,0.0,0.0,0.0,0.0,0.0,0.0,0.0,0.0,0.0,0.0,0.0,0.0,0.0,0.0,0.0,0.0,0.0,0.0,0.0,0.0,0.0,0.0,0.0,0.0,0.0,0.0,0.0,0.0,0.0,0.0,0.0,0.0,0.0,0.0,0.0,0.0,0.0,0.0,0.0,0.0,0.0,0.0,0.0,0.0,0.0,0.0,1.7907,1.912,1.9199,1.8134,1.6372,1.5399,0.0,0.0,0.0,0.0,0.0,0.0,0.0,0.0,0.0,0.0,0.0,0.0,0.0,0.0,0.0,0.0,0.0,0.0,0.0,0.0,0.0,0.0,0.0,0.0,0.0,0.0,0.0,0.0,0.0,0.0,0.0,0.0,0.0,0.0,0.0,0.0,0.0,0.0,0.0,0.0,0.0,0.0,0.0,0.0,0.0,0.0,0.0,0.0,0.0,0.0,0.0,0.0,0.0,0.0,0.0,0.0,0.0,0.0,0.0,0.0,0.0,0.0,0.0,0.0,0.0,0.0,0.0,0.0,0.0,0.0,0.0,0.0,0.0,0.0,0.0,0.0,0.0,0.0,0.0,0.0,0.0,0.0,0.0,0.0,0.0,0.0,0.0,0.0,0.0,0.0,0.0,0.0,0.0,0.0,0.0,0.0,0.0,0.0,0.0,0.0,0.0,0.0,0.0,0.0,0.0,0.0,0.0,0.0,1.5756,1.9895,2.1157,2.1563,2.1149,1.9208,1.7769,0.0,0.0,0.0,0.0,0.0,0.0,0.0,0.0,0.0,0.0,0.0,0.0,0.0,0.0,0.0,0.0,0.0,0.0,0.0,0.0,0.0,0.0,0.0,0.0,0.0,0.0,0.0,0.0,0.0,0.0,0.0,0.0,0.0,0.0,0.0,0.0,0.0,0.0,0.0,0.0,0.0,0.0,0.0,0.0,0.0,0.0,0.0,0.0,0.0,0.0,0.0,0.0,0.0,0.0,0.0,0.0,0.0,0.0,0.0,0.0,0.0,0.0,0.0,0.0,0.0,0.0,0.0,0.0,0.0,0.0,0.0,0.0,0.0,0.0,0.0,0.0,0.0,0.0,0.0,0.0,0.0,0.0,0.0,0.0,0.0,0.0,0.0,0.0,0.0,0.0,0.0,0.0,0.0,0.0,0.0,0.0,0.0,0.0,0.0,0.0,0.0,0.0,0.0,0.0,0.0,0.0,0.0,0.0,1.7318,2.2842,2.3111,2.3381,2.3771,2.2255,2.0291,0.0,0.0,0.0,0.0,0.0,0.0,0.0,0.0,0.0,0.0,0.0,0.0,0.0,0.0,0.0,0.0,0.0,0.0,0.0,0.0,0.0,0.0,0.0,0.0,0.0,0.0,0.0,0.0,0.0,0.0,0.0,0.0,0.0,0.0,0.0,0.0,0.0,0.0,0.0,0.0,0.0,0.0,0.0,0.0,0.0,0.0,0.0,0.0,0.0,0.0,0.0,0.0,0.0,0.0,0.0,0.0,0.0,0.0,0.0,0.0,0.0,0.0,0.0,0.0,0.0,0.0,0.0,0.0,0.0,0.0,0.0,0.0,0.0,0.0,0.0,0.0,0.0,0.0,0.0,0.0,0.0,0.0,0.0,0.0,0.0,0.0,0.0,0.0,0.0,0.0,0.0,0.0,0.0,0.0,0.0,0.0,0.0,0.0,0.0,0.0,0.0,0.0,0.0,0.0,0.0,0.0,0.0,0.0,1.8844,2.0962,2.3023,2.4138,2.4195,2.2385,2.0258,0.0,0.0,0.0,0.0,0.0,0.0,0.0,0.0,0.0,0.0,0.0,0.0,0.0,0.0,0.0,0.0,0.0,0.0,0.0,0.0,0.0,0.0,0.0,0.0,0.0,0.0,0.0,0.0,0.0,0.0,0.0,0.0,0.0,0.0,0.0,0.0,0.0,0.0,0.0,0.0,0.0,0.0,0.0,0.0,0.0,0.0,0.0,0.0,2.1522,0.0,0.0,0.0,0.0,0.0,0.0,0.0,0.0,0.0,0.0,0.0,0.0,0.0,0.0,0.0,0.0,0.0,0.0,0.0,0.0,0.0,0.0,0.0,0.0,0.0,0.0,0.0,0.0,0.0,0.0,0.0,0.0,0.0,0.0,0.0,0.0,0.0,0.0,0.0,0.0,0.0,0.0,0.0,0.0,0.0,0.0,0.0,0.0,0.0,0.0,0.0,0.0,0.0,0.0,0.0,0.0,0.0,0.0,0.0,1.8854,2.0938,2.2992,2.4088,2.4106,2.2908,2.1167,0.0,0.0,0.0,0.0,0.0,0.0,0.0,0.0,0.0,0.0,0.0,0.0,0.0,0.0,0.0,0.0,0.0,0.0,0.0,0.0,0.0,0.0,0.0,0.0,0.0,0.0,0.0,0.0,0.0,0.0,0.0,0.0,0.0,0.0,0.0,0.0,0.0,0.0,0.0,0.0,0.0,0.0,0.0,0.0,0.0,0.0,0.0,0.0,0.0,0.0,0.0,0.0,0.0,0.0,0.0,0.0,0.0,0.0,0.0,0.0,0.0,0.0,0.0,0.0,0.0,0.0,0.0,0.0,0.0,0.0,0.0,0.0,0.0,0.0,0.0,0.0,0.0,0.0,0.0,0.0,0.0,0.0,0.0,0.0,0.0,0.0,0.0,0.0,0.0,0.0,0.0,0.0,0.0,0.0,0.0,0.0,0.0,0.0,0.0,0.0,0.0,0.0,0.0,0.0,0.0,0.0,0.0,1.6045,1.8609,2.165,2.299,2.373,2.393,2.3624,2.2323,2.0041,0.0,0.0,0.0,0.0,0.0,0.0,0.0,0.0,0.0,0.0,0.0,0.0,0.0,0.0,0.0,0.0,0.0,0.0,0.0,0.0,0.0,0.0,0.0,0.0,0.0,0.0,0.0,0.0,0.0,0.0,0.0,0.0,0.0,0.0,0.0,0.0,0.0,0.0,1.958,2.1867,0.0,0.0,0.0,0.0,0.0,0.0,0.0,0.0,2.3906,0.0,0.0,0.0,0.0,0.0,0.0,0.0,0.0,0.0,0.0,0.0,0.0,0.0,0.0,0.0,0.0,0.0,0.0,0.0,0.0,0.0,0.0,0.0,0.0,0.0,0.0,0.0,0.0,0.0,0.0,0.0,0.0,0.0,0.0,0.0,0.0,0.0,0.0,0.0,0.0,0.0,0.0,0.0,0.0,0.0,0.0,0.0,0.0,0.0,0.0,0.0,0.0,0.0,0.0,0.0,0.0,1.7028,1.7946,1.9731,2.2443,2.3018,2.3437,2.3741,2.4265,2.3032,1.9893,0.0,0.0,0.0,0.0,0.0,0.0,0.0,0.0,0.0,0.0,0.0,0.0,0.0,0.0,0.0,0.0,0.0,0.0,0.0,0.0,0.0,0.0,0.0,0.0,0.0,0.0,0.0,0.0,0.0,0.0,0.0,0.0,0.0,0.0,0.0,0.0,0.0,0.0,0.0,2.3476,2.4512,0.0,0.0,0.0,0.0,0.0,0.0,0.0,0.0,2.3769,0.0,0.0,0.0,0.0,0.0,0.0,0.0,0.0,0.0,0.0,0.0,0.0,0.0,0.0,0.0,0.0,0.0,0.0,0.0,0.0,0.0,0.0,0.0,0.0,0.0,0.0,0.0,0.0,0.0,0.0,0.0,0.0,0.0,0.0,0.0,0.0,0.0,0.0,0.0,0.0,0.0,0.0,0.0,0.0,0.0,0.0,0.0,0.0,0.0,0.0,0.0,0.0,0.0,0.0,0.0,1.64,1.8369,2.0438,2.2573,2.3183,2.3592,2.3838,2.3493,2.2196,0.0,0.0,0.0,0.0,0.0,0.0,0.0,0.0,0.0,0.0,0.0,0.0,0.0,0.0,0.0,0.0,0.0,0.0,0.0,0.0,0.0,0.0,0.0,0.0,0.0,0.0,0.0,0.0,0.0,0.0,0.0,0.0,0.0,0.0,0.0,0.0,0.0,0.0,0.0,0.0,2.4178,2.5125,2.5541,0.0,0.0,0.0,0.0,0.0,0.0,2.4907,2.4679,0.0,0.0,0.0,0.0,0.0,0.0,0.0,0.0,0.0,0.0,0.0,0.0,0.0,0.0,0.0,0.0,0.0,0.0,0.0,0.0,0.0,0.0,0.0,0.0,0.0,0.0,0.0,0.0,0.0,0.0,0.0,0.0,0.0,0.0,0.0,0.0,0.0,0.0,0.0,0.0,0.0,0.0,0.0,0.0,0.0,0.0,0.0,0.0,0.0,0.0,0.0,0.0,0.0,0.0,0.0,1.5567,1.8427,2.0894,2.2881,2.3544,2.394,2.4127,2.2928,2.1478,0.0,0.0,0.0,0.0,0.0,0.0,0.0,0.0,0.0,0.0,0.0,0.0,0.0,0.0,0.0,0.0,0.0,0.0,0.0,0.0,0.0,0.0,0.0,0.0,0.0,0.0,0.0,0.0,0.0,0.0,0.0,0.0,0.0,0.0,0.0,0.0,0.0,0.0,0.0,0.0,0.0,2.5957,2.5797,2.6376,0.0,0.0,0.0,0.0,2.6383,2.6492,0.0,0.0,0.0,0.0,0.0,0.0,0.0,0.0,0.0,0.0,0.0,0.0,0.0,0.0,0.0,0.0,0.0,0.0,0.0,0.0,0.0,0.0,0.0,0.0,0.0,0.0,0.0,0.0,0.0,0.0,0.0,0.0,0.0,0.0,0.0,0.0,0.0,0.0,0.0,0.0,0.0,0.0,0.0,0.0,0.0,0.0,0.0,0.0,0.0,0.0,0.0,0.0,0.0,0.0,0.0,0.0,1.6571,1.8551,2.1052,2.4012,2.4276,2.4426,2.47,2.3973,2.2081,0.0,0.0,0.0,0.0,0.0,0.0,0.0,0.0,0.0,0.0,0.0,0.0,0.0,0.0,0.0,0.0,0.0,0.0,0.0,0.0,0.0,0.0,0.0,0.0,0.0,0.0,0.0,0.0,0.0,0.0,0.0,0.0,0.0,0.0,0.0,0.0,0.0,0.0,0.0,0.0,0.0,2.7532,2.6759,2.674,2.7048,0.0,0.0,2.822,2.8925,2.965,0.0,0.0,0.0,0.0,0.0,0.0,0.0,0.0,0.0,0.0,0.0,0.0,0.0,0.0,0.0,0.0,0.0,0.0,0.0,0.0,0.0,0.0,0.0,0.0,0.0,0.0,0.0,0.0,0.0,0.0,0.0,0.0,0.0,0.0,0.0,0.0,0.0,0.0,0.0,0.0,0.0,0.0,0.0,0.0,0.0,0.0,0.0,0.0,0.0,0.0,0.0,0.0,0.0,0.0,0.0,1.5057,1.7198,1.9867,2.2367,2.4542,2.4654,2.4788,2.5008,2.3352,2.1344,0.0,0.0,0.0,0.0,0.0,0.0,0.0,0.0,0.0,0.0,0.0,0.0,0.0,0.0,0.0,0.0,0.0,0.0,0.0,0.0,0.0,0.0,0.0,0.0,0.0,0.0,0.0,0.0,0.0,0.0,0.0,0.0,0.0,0.0,0.0,0.0,0.0,0.0,0.0,0.0,0.0,0.0,2.8156,2.8519,0.0,0.0,0.0,2.9573,2.9998,0.0,0.0,0.0,0.0,0.0,0.0,0.0,0.0,0.0,0.0,0.0,0.0,0.0,0.0,0.0,0.0,0.0,0.0,0.0,0.0,0.0,0.0,0.0,0.0,0.0,0.0,0.0,0.0,0.0,0.0,0.0,0.0,0.0,0.0,0.0,0.0,0.0,0.0,0.0,0.0,0.0,0.0,0.0,0.0,0.0,0.0,0.0,0.0,0.0,0.0,0.0,0.0,0.0,0.0,0.0,0.0,0.0,1.7536,2.0934,2.3417,2.4799,2.4988,2.5104,2.5212,2.2998,0.0,0.0,0.0,0.0,0.0,0.0,0.0,0.0,0.0,0.0,0.0,0.0,0.0,0.0,0.0,0.0,0.0,0.0,0.0,0.0,0.0,0.0,0.0,0.0,0.0,0.0,0.0,1.043,0.0,0.0,0.0,0.0,0.0,0.0,0.0,0.0,0.0,0.0,0.0,0.0,0.0,0.0,2.9506,2.9723,3.0314,3.0788,0.0,0.0,3.1056,3.1157,3.1575,3.1115,0.0,0.0,0.0,0.0,0.0,0.0,0.0,0.0,0.0,0.0,0.0,0.0,0.0,0.0,0.0,0.0,0.0,0.0,0.0,0.0,0.0,0.0,0.0,0.0,0.0,0.0,0.0,0.0,0.0,0.0,0.0,0.0,0.0,0.0,0.0,0.0,0.0,0.0,0.0,0.0,0.0,0.0,0.0,0.0,0.0,0.0,0.0,0.0,0.0,0.0,0.0,0.0,0.0,0.0,1.5769,1.7558,2.1115,2.3652,2.5038,2.532,2.5446,2.5344,2.3695,2.1283,0.0,0.0,0.0,0.0,0.0,0.0,0.0,0.0,0.0,0.0,0.0,0.0,0.0,0.0,0.0,0.0,0.0,0.0,0.0,0.0,0.0,0.0,0.0,0.0,0.0,0.0,0.0,0.0,0.0,0.0,0.0,0.0,0.0,0.0,0.0,0.0,0.0,0.0,0.0,0.0,0.0,3.0615,3.141,3.1583,3.1891,0.0,3.2718,3.2786,3.2985,3.4319,3.4038,3.0154,0.0,0.0,0.0,0.0,0.0,0.0,0.0,0.0,0.0,0.0,0.0,0.0,0.0,0.0,0.0,0.0,0.0,0.0,0.0,0.0,0.0,0.0,0.0,0.0,0.0,0.0,0.0,0.0,0.0,0.0,0.0,0.0,0.0,0.0,0.0,0.0,0.0,0.0,0.0,0.0,0.0,0.0,0.0,0.0,0.0,0.0,0.0,0.0,0.0,0.0,0.0,0.0,0.0,1.5155,1.5883,2.0549,2.377,2.5265,2.5476,2.5516,2.5449,2.3834,2.1625,0.0,0.0,0.0,0.0,0.0,0.0,0.0,0.0,0.0,0.0,0.0,0.0,0.0,0.0,0.0,0.0,0.0,0.0,0.0,0.0,0.0,0.0,0.0,0.0,0.0,0.0,0.0,0.0,1.4312,1.5551,1.615,0.0,0.0,0.0,0.0,0.0,0.0,0.0,0.0,0.0,0.0,3.2449,3.3827,3.4038,0.0,0.0,3.4808,3.4545,3.4666,3.4816,3.4049,3.1499,3.0524,0.0,0.0,0.0,0.0,0.0,0.0,0.0,0.0,0.0,0.0,0.0,0.0,0.0,0.0,0.0,0.0,0.0,0.0,0.0,0.0,0.0,0.0,0.0,0.0,0.0,0.0,0.0,0.0,0.0,0.0,0.0,0.0,0.0,0.0,0.0,0.0,0.0,0.0,0.0,0.0,0.0,0.0,0.0,0.0,0.0,0.0,0.0,0.0,0.0,0.0,0.0,0.0,1.4776,1.509,2.0283,2.3756,2.534,2.5473,2.5507,2.5443,2.3844,2.1898,0.0,0.0,0.0,0.0,0.0,0.0,0.0,0.0,0.0,0.0,0.0,0.0,0.0,0.0,0.0,0.0,0.0,0.0,0.0,0.0,0.0,0.0,0.0,0.0,0.0,0.0,0.0,0.0,1.5005,1.6064,1.6992,0.0,0.0,0.0,0.0,0.0,0.0,0.0,0.0,0.0,0.0,3.3833,3.5269,3.5692,3.6059,3.6678,3.6068,3.5633,3.6011,3.5586,3.4646,3.3057,0.0,0.0,0.0,0.0,0.0,0.0,0.0,0.0,0.0,0.0,0.0,0.0,0.0,0.0,0.0,0.0,0.0,0.0,0.0,0.0,0.0,0.0,0.0,0.0,0.0,0.0,0.0,0.9106,0.0,0.0,0.9244,0.0,0.0,0.0,0.0,0.0,0.0,0.0,0.0,0.0,0.0,0.0,0.0,0.0,0.0,0.0,0.0,0.0,0.0,0.0,0.0,0.0,0.0,1.4741,1.5714,2.0415,2.3608,2.5058,2.5301,2.5397,2.5371,2.3772,2.2094,2.0368,0.0,0.0,0.0,0.0,0.0,0.0,0.0,0.0,0.0,0.0,0.0,0.0,0.0,0.0,0.0,0.0,0.0,0.0,0.0,0.0,0.0,0.0,0.0,0.0,0.0,0.0,1.391,1.5573,1.7012,0.0,0.0,0.0,0.0,0.0,0.0,0.0,0.0,0.0,3.1197,3.3109,3.4513,3.5423,3.6192,3.68,3.6931,3.6206,3.6002,3.7011,3.7036,3.6434,0.0,0.0,0.0,0.0,0.0,0.0,0.0,0.0,0.0,0.0,0.0,0.0,0.0,0.0,0.0,0.0,0.0,0.0,0.0,0.0,0.0,0.0,0.0,0.0,0.0,0.0,0.0,1.0893,1.0359,0.0,0.0,0.0,0.0,0.0,0.0,0.0,0.0,0.0,0.0,0.0,1.6658,1.8758,0.0,0.0,0.0,0.0,0.0,0.0,0.0,0.0,0.0,0.0,0.0,0.0,1.4521,1.5182,2.0068,2.3426,2.4866,2.4975,2.5012,2.4991,2.39,2.2027,1.9338,0.0,0.0,0.0,0.0,0.0,0.0,0.0,0.0,0.0,0.0,0.0,0.0,0.0,0.0,0.0,0.0,0.0,0.0,0.0,0.0,0.0,0.0,0.0,0.0,0.0,1.4705,0.0,0.0,0.0,0.0,0.0,0.0,0.0,0.0,0.0,0.0,2.9878,3.0689,3.2294,3.493,3.6834,3.7123,3.7892,3.846,0.0,0.0,0.0,0.0,0.0,0.0,0.0,0.0,0.0,0.0,0.0,0.0,0.0,0.0,4.0084,3.5898,3.4836,3.4505,3.4192,0.0,0.0,0.0,0.0,0.0,0.0,0.0,0.0,0.0,0.0,0.0,0.0,0.0,0.0,1.2565,1.2175,1.0099,0.0,0.0,0.0,0.0,0.0,0.0,0.0,0.0,1.7975,1.9277,1.9143,2.1129,2.1037,1.9101,1.7612,1.5376,0.0,0.0,0.0,0.0,0.0,0.0,0.0,0.0,1.5361,1.6514,2.0775,2.3632,2.4772,2.4812,2.4808,2.4785,2.3945,2.2224,1.9587,1.8352,1.6971,0.0,0.0,0.0,0.0,0.0,0.0,0.0,0.0,0.0,0.0,0.0,0.0,0.0,0.0,0.0,0.0,0.0,0.0,0.0,0.0,0.0,0.0,0.0,1.6154,0.0,0.0,0.0,0.0,0.0,0.0,0.0,0.0,0.0,3.1878,3.2444,3.3136,3.4501,3.6834,3.845,3.845,0.0,0.0,0.0,0.0,0.0,0.0,0.0,3.8924,3.958,3.9058,3.8776,3.9394,4.1131,4.2436,4.2358,0.0,0.0,3.951,3.8312,3.8082,3.839,3.876,3.8787,3.802,3.8944,3.9752,0.0,0.0,0.0,0.0,1.2223,0.0,0.0,0.0,1.365,1.4067,0.0,1.1028,0.0,0.0,0.0,0.0,1.2793,1.6222,0.0,0.0,2.0682,2.2073,2.1276,2.1717,2.1163,1.97,1.8402,1.6028,1.276,1.1198,0.0,0.0,0.0,0.0,0.0,0.0,1.7183,1.9643,2.2415,2.4193,2.4846,2.4809,2.4775,2.4756,2.395,2.2727,2.1139,2.0291,1.9149,1.7621,1.6066,0.0,0.0,0.0,0.0,0.0,0.0,0.0,0.0,0.0,0.0,0.0,0.0,0.0,0.0,0.0,0.0,0.0,0.0,0.0,0.0,1.6812,0.0,0.0,0.0,0.0,0.0,0.0,0.0,0.0,0.0,3.276,3.5474,3.4937,3.5225,3.7623,0.0,0.0,0.0,0.0,3.9755,4.0661,4.0074,4.0153,4.1834,4.1942,4.1928,4.2125,0.0,0.0,4.1598,4.3286,4.4292,4.2744,4.4361,4.5981,4.605,4.3785,4.2854,4.4827,4.282,4.121,4.1828,4.2517,4.3158,1.594,0.0,0.0,0.0,0.0,1.6049,1.6868,1.8087,1.7807,1.6993,1.5886,1.6549,0.0,0.0,0.0,0.0,0.0,0.0,1.7958,1.8966,2.0783,2.1796,2.2203,2.2342,2.1594,2.0009,1.7723,1.5336,1.2938,1.1656,1.0221,0.8694,0.0,0.0,0.0,0.0,1.804,2.0319,2.2411,2.3785,2.4399,2.4383,2.4366,2.4356,2.3677,2.3078,2.257,2.1893,2.0787,1.9216,1.8919,0.0,0.0,0.0,0.0,0.0,0.0,0.0,0.0,0.0,0.0,0.0,0.0,0.0,0.0,0.0,0.0,0.0,0.0,0.0,1.7046,1.7539,1.8571,0.0,0.0,0.0,0.0,0.0,0.0,0.0,0.0,0.0,4.0239,3.8584,3.718,0.0,0.0,4.0854,4.0246,4.1219,4.2109,4.2356,4.2202,0.0,4.2799,4.233,4.2394,4.3789,4.4829,4.5298,4.4802,4.5279,4.5548,4.4942,4.5361,4.5875,4.5932,4.539,4.474,4.46,4.4302,4.4217,4.4506,4.5216,4.5806,1.926,1.7635,1.6644,1.6965,1.8099,1.8391,1.9226,2.0379,2.014,1.9382,1.8341,1.889,1.8082,1.6387,1.75,0.0,0.0,0.0,1.9052,2.0084,2.1114,2.1902,2.2391,2.1849,2.0607,1.8743,1.589,1.3694,1.2119,1.1402,1.0908,1.0592,0.0,1.3046,1.4803,1.732,1.9603,2.1621,2.3103,2.4016,2.4309,2.4248,2.4199,2.4199,2.3814,2.3599,2.3581,2.2774,2.1957,2.1166,2.0337,1.9112,0.0,0.0,0.0,0.0,0.0,0.0,0.0,0.0,0.0,0.0,0.0,1.1899,1.0637,0.0,0.0,0.0,1.6519,2.0488,1.9946,2.0781,0.0,0.0,0.0,0.0,0.0,0.0,0.0,3.0537,3.3766,3.7808,4.2412,4.1489,4.0373,4.0489,4.1546,4.2239,4.2027,0.0,4.322,4.3528,4.3566,4.3704,4.409,4.3711,4.3795,4.4984,4.5686,4.6089,4.6036,4.6001,4.5951,4.591,4.6061,4.6146,4.5835,4.6266,4.6541,4.5834,4.6016,4.632,4.6349,4.6659,4.6969,2.2031,2.1396,1.9891,1.9291,1.9459,2.0373,2.093,2.122,2.122,2.1335,2.1403,1.9165,1.9159,2.0705,1.9179,0.0,1.8575,1.9862,2.0449,2.048,2.1593,2.2104,2.2035,2.0597,1.8759,1.6576,1.3684,1.1831,1.1023,1.1062,1.2018,1.3819,1.4195,1.5312,1.7199,1.95,2.1575,2.3374,2.4257,2.4613,2.4478,2.4294,2.4199,2.4199,2.4199,2.4199,2.4171,2.3188,2.2773,2.3,2.0844,1.9771,2.0099,0.0,0.0,0.0,0.0,0.0,0.0,0.0,0.0,0.0,0.0,0.0,0.0,0.0,0.0,0.0,1.9515,0.0,2.3211,2.5305,0.0,0.0,0.0,2.9966,3.0954,3.3102,3.3594,3.1268,0.0,0.0,4.2912,4.3651,4.4017,4.4355,4.3701,4.3451,4.4201,4.372,4.3547,4.4297,4.4393,4.4682,4.5304,4.5419,4.5444,4.5699,4.5809,4.5856,4.5901,4.5969,4.5912,4.595,4.6491,4.6806,4.6018,4.7228,4.8221,4.8249,4.7862,4.751,4.7411,4.7321,4.732,2.2683,2.2523,2.2259,2.234,2.2604,2.2851,2.2977,2.3052,2.307,2.3045,2.2927,2.1762,2.1127,2.0928,2.0268,2.0111,2.0378,2.0715,2.086,2.0876,2.1158,2.1299,2.1205,1.9783,1.8045,1.6087,1.4693,1.3331,1.2205,1.3683,1.5197,1.6736,1.8367,1.9331,1.962,2.1304,2.2857,2.4202,2.4594,2.4617,2.4275,2.4228,2.4199,2.4199,2.4199,2.4199,2.4199,2.3948,2.329,2.2194,2.1922,2.1231,1.9942,1.6375,0.0,0.0,0.0,0.0,0.0,0.0,0.0,0.0,0.0,1.6954,1.3569,0.0,1.8557,0.0,2.1311,2.6554,2.4759,2.588,0.0,0.0,3.1696,3.3057,3.5553,3.6022,3.6144,3.6206,3.7719,4.0373,4.4489,4.4363,4.4267,4.5133,4.4547,4.4105,4.4278,4.4739,4.5075,4.5229,4.5248,4.5364,4.5556,4.5594,4.5643,4.5769,4.5842,4.5852,4.5832,4.6326,4.6709,4.6687,4.7276,4.7817,4.8095,4.8702,4.9298,4.9798,4.8952,4.7863,4.7579,4.7957,4.8296,2.3469,2.3479,2.3444,2.361,2.3907,2.3774,2.3785,2.3917,2.3917,2.3768,2.3447,2.2641,2.1874,2.1163,2.0859,2.0717,2.0682,2.0499,2.0515,2.0698,2.0666,2.0698,2.0617,1.9337,1.7899,1.6399,1.5575,1.4896,1.4483,1.597,1.7596,1.926,2.0831,2.1617,2.168,2.2644,2.3599,2.4524,2.454,2.4414,2.4218,2.4199,2.4199,2.4199,2.4199,2.4072,2.3768,2.3554,2.2922,2.1777,2.1472,2.1155,2.0634,1.7334,1.5211,0.0,0.0,0.0,0.0,0.0,0.0,0.0,0.0,0.0,0.0,0.0,2.3013,1.9745,2.4884,2.8187,2.7726,2.9201,3.1077,3.3221,3.4243,3.5596,3.763,3.7918,3.8235,3.9023,4.0265,4.2209,4.5171,4.5056,4.4883,4.5537,4.5163,4.4883,4.4913,4.5316,4.5594,4.5594,4.5594,4.5594,4.5594,4.5594,4.561,4.5692,4.5743,4.5867,4.6232,4.6646,4.705,4.7402,4.8105,4.8721,4.9,4.9558,5.0144,5.0385,4.9942,4.9181,4.8747,4.8891,4.9032,2.4201,2.4171,2.3875,2.3927,2.417,2.3886,2.3927,2.4199,2.4199,2.3899,2.3378,2.2676,2.1948,2.1298,2.1102,2.0715,2.021,1.9856,1.9912,2.0297,2.035,2.0385,2.0418,1.9393,1.8415,1.7446,1.6816,1.6737,1.7242,1.8253,1.9674,2.1446,2.2265,2.2861,2.3244,2.351,2.3917,2.4534,2.4275,2.416,2.4206,2.4198,2.4199,2.4199,2.4098,2.3768,2.3229,2.2804,2.2326,2.1657,2.0761,2.0608,2.1302,1.8397,1.7734,0.0,1.7965,0.0,0.0,0.0,0.0,0.0,0.0,0.0,0.0,2.3611,2.5748,2.7782,2.9171,3.029,3.1119,3.3322,3.4829,3.5042,3.6354,3.7589,3.8451,3.9227,3.9987,4.0756,4.2646,4.4325,4.5402,4.5594,4.5594,4.5594,4.5575,4.5518,4.5575,4.5575,4.5594,4.5594,4.5594,4.5594,4.5594,4.5594,4.5594,4.5594,4.5601,4.5902,4.6719,4.7018,4.7336,4.8125,4.8971,4.949,4.9269,5.0038,5.0635,5.0683,5.0616,5.043,5.0068,4.9739,4.9561,2.4197,2.4195,2.4122,2.4151,2.4208,2.4141,2.4133,2.4199,2.4199,2.3762,2.3012,2.2754,2.193,2.0798,2.0927,2.0565,1.9818,1.9729,1.9927,2.0331,2.0588,2.0894,2.1239,2.0825,2.0349,1.9857,1.9814,1.9877,2.0052,2.1213,2.2161,2.2896,2.3292,2.3497,2.352,0.0,0.0,0.0,2.3955,2.3925,2.4184,2.4194,2.4199,2.419,2.3566,0.0,2.3201,2.3149,2.2761,2.1991,2.238,0.0,0.0,0.0,0.0,0.0,0.0,0.0,0.0,0.0,0.0,0.0,2.2998,2.2902,2.2591,2.3942,2.5924,2.8577,3.2496,3.4278,3.2769,3.4384,3.6021,3.7156,3.7763,3.8573,3.976,4.0296,4.1078,4.2533,4.3407,4.4335,4.5402,4.5594,4.5594,4.5594,4.5594,4.5594,4.5594,4.5594,4.5594,4.5594,4.5594,4.5594,4.5594,4.5594,4.5594,4.5594,4.5594,4.596,4.6826,4.7527,4.8172,4.9009,4.9875,5.0433,5.0356,5.0577,5.0712,5.0693,5.0693,5.0594,5.0183,5.0043,4.9879,2.4192,2.419,2.4199,2.4103,0.0,2.4123,2.4006,2.3714,2.3886,2.3512,2.2788,2.2595,2.1986,2.1067,2.0895,2.0636,2.033,2.0266,2.0622,2.1333,2.1721,2.2061,2.2398,2.2289,2.1987,2.1538,2.173,2.1953,2.2199,2.2757,2.3255,2.3651,2.3458,2.3192,2.2852,2.2353,2.2634,2.3691,2.3534,2.3692,2.4183,2.4042,2.4026,2.419,2.3804,0.0,0.0,0.0,0.0,0.0,0.0,0.0,0.0,0.0,0.0,2.1477,2.1442,2.1637,2.2133,2.2557,2.3554,2.5256,2.6515,2.6731,2.5662,2.5818,2.7301,3.0509,3.4438,3.6236,3.5043,3.6216,3.7378,3.8076,3.8827,3.9562,4.0235,4.1049,4.1871,4.2787,4.3681,4.461,4.5472,4.5594,4.5594,4.5594,4.5594,4.5594,4.5594,4.5594,4.5594,4.5594,4.5594,4.5594,4.5594,4.5594,4.5806,4.6114,4.6285,4.6851,4.8028,4.8624,4.9231,5.0037,5.0637,5.0882,5.0901,5.0901,5.0871,5.0822,5.0789,5.0729,5.0455,5.0399,5.0272,2.4078,2.402,2.4085,2.3917,2.3639,2.3917,2.3682,2.3129,2.3403,0.0,0.0,2.2412,2.2032,2.1567,2.11,2.0974,2.1086,2.1004,2.1532,2.2518,2.2937,2.3253,2.3483,2.3585,2.3411,2.3013,2.3226,2.3453,2.3705,2.3653,2.3667,2.3742,2.3164,2.2475,2.1776,2.1274,2.1561,2.2686,2.29,2.3271,2.3835,2.3768,2.3845,2.4122,2.4024,2.3732,2.3219,2.3257,2.2927,2.2174,2.1713,2.1396,2.1296,2.139,2.2371,2.4315,2.4378,2.4639,2.5481,2.6197,2.6736,2.7024,2.925,3.0048,2.8722,2.8276,2.9381,3.2561,3.5745,3.7427,3.6982,3.793,3.8644,3.8749,3.9668,4.0379,4.0669,4.1578,4.2435,4.296,4.3882,4.4757,4.5381,4.5495,4.5513,4.5513,4.5559,4.5594,4.5594,4.5594,4.5594,4.5594,4.5594,4.5652,4.5845,4.6075,4.6334,4.703,4.724,4.7888,4.9181,4.9723,5.014,5.0835,5.1089,5.1084,5.1089,5.1074,5.1053,5.0946,5.0939,5.0916,5.0789,5.0748,5.0615,2.3613,2.3378,2.3645,2.3577,2.3271,2.3323,2.3147,2.2784,2.2822,2.2797,2.2699,2.2429,2.2049,2.1613,2.1922,2.1826,2.1453,2.1595,2.2125,2.293,2.3401,2.3824,2.426,2.4489,2.4581,2.4509,2.4511,2.4436,2.4207,2.4054,2.3738,2.3137,2.2526,2.1641,2.0589,2.0814,2.0991,2.099,2.1813,2.2356,2.2576,2.332,2.3714,2.3749,2.3387,2.3197,2.319,2.3276,2.3202,2.3039,2.3624,2.3497,2.2484,2.3367,2.3854,2.3603,2.4378,2.5321,2.6341,2.6538,2.7236,2.8665,3.0448,3.0929,2.9629,3.064,3.2019,3.3618,3.7043,3.8823,3.7959,3.8787,3.9592,3.996,4.0193,4.0725,4.1807,4.2187,4.2818,4.403,4.4149,4.4373,4.5022,4.518,4.5191,4.5222,4.5429,4.5594,4.5594,4.5594,4.5594,4.5594,4.5594,4.5922,4.649,4.7336,4.7792,4.8063,4.8125,4.8528,4.9642,4.9921,5.0235,5.0967,5.1098,5.1113,5.1108,5.1094,5.1099,5.1069,5.1063,5.1047,5.1022,5.0977,5.085,2.3343,2.3213,2.3361,2.3242,2.291,2.2768,2.2704,2.2682,2.2537,2.2473,2.2477,2.2349,2.2163,2.2036,2.2534,2.2629,2.2327,2.2516,2.3084,2.3931,2.4306,2.4586,2.4823,2.4979,2.4882,2.4579,2.4476,2.422,2.3868,2.3527,2.3064,2.2453,2.1324,2.044,1.9895,1.9576,1.9639,2.0133,2.1022,2.1734,2.2197,2.2604,2.3106,2.3653,2.3474,2.3498,2.3749,2.3869,2.3936,2.3901,2.4327,2.4304,2.3856,2.4276,2.4907,2.5705,2.5716,2.6184,2.7245,2.7722,2.8679,3.0371,3.1641,3.2241,3.1935,3.1996,3.3064,3.5364,3.8077,3.9471,3.9135,3.9946,4.0601,4.0823,4.1298,4.1887,4.2461,4.2826,4.3305,4.409,4.4136,4.4219,4.4776,4.4818,4.4919,4.5074,4.54,4.5586,4.5614,4.5614,4.5614,4.5594,4.5594,4.599,4.6836,4.8452,4.9181,4.8988,4.9026,4.9499,5.031,5.0575,5.0833,5.1152,5.1264,5.1267,5.1245,5.1247,5.1235,5.117,5.1147,5.1152,5.1123,5.1302,5.1505,2.2999,2.2999,2.3064,2.2915,2.2599,2.2388,2.2426,2.2586,2.2388,2.2313,2.2313,2.2313,2.2321,2.2436,2.2915,2.3158,2.3231,2.3448,2.3998,2.4798,2.5071,2.519,2.5184,2.5124,2.4812,2.4324,2.408,2.3757,2.3298,2.2803,2.2262,2.1617,2.0289,1.9495,1.9244,1.8487,1.8521,1.9343,2.0128,2.0927,2.173,2.1978,2.25,2.3253,2.3577,2.3816,2.4084,2.4302,2.44,2.431,2.4375,2.4478,2.4654,2.4708,2.5609,2.7288,2.6961,2.7064,2.811,2.9127,3.0256,3.1583,3.2622,3.3426,3.3912,3.3358,3.396,3.6677,3.8535,3.9724,4.0079,4.0718,4.1298,4.1628,4.2316,4.2757,4.2962,4.3297,4.3647,4.3943,4.3958,4.4031,4.4346,4.4474,4.4644,4.5052,4.54,4.5643,4.5825,4.5893,4.5941,4.6037,4.5864,4.6229,4.724,4.9183,5.0182,4.9787,4.9923,5.0306,5.087,5.121,5.131,5.1307,5.131,5.1312,5.1342,5.1343,5.1318,5.126,5.126,5.1277,5.1448,5.2238,5.2551,2.2405,2.2422,2.2651,2.259,2.2346,2.231,2.2324,2.2335,2.231,2.2313,2.2313,2.2313,2.2453,2.2665,2.2851,2.3313,2.3866,2.418,2.4619,2.5136,2.5361,2.5353,2.5166,2.4884,2.4499,2.4035,2.3692,2.3269,2.28,2.234,2.1589,2.0519,1.9886,1.9133,1.8347,1.8151,1.8151,1.8263,1.8788,1.9617,2.0719,2.1641,2.2135,2.2245,2.3194,2.3714,2.3724,2.4056,2.4103,2.3798,2.3824,2.3945,2.4254,2.4813,2.5625,2.6698,2.7172,2.7867,2.895,3.0531,3.1487,3.1775,3.3173,3.4283,3.4848,3.5063,3.5555,3.6831,3.85,3.9689,4.0221,4.0666,4.1362,4.2338,4.2668,4.2959,4.3286,4.3458,4.3629,4.3955,4.3742,4.3679,4.3986,4.4102,4.4368,4.4985,4.5496,4.597,4.6509,4.674,4.7048,4.7355,4.6701,4.6817,4.8529,4.9933,5.0566,5.0662,5.0746,5.0849,5.1014,5.1103,5.115,5.119,5.1156,5.117,5.1213,5.1232,5.1263,5.1331,5.1411,5.1564,5.2184,5.3347,5.3952,2.2303,2.2303,2.2416,2.2415,2.231,2.2313,2.2313,2.2313,2.2313,2.2313,2.2338,2.2463,2.2599,2.2733,2.3259,2.3749,2.4188,2.457,2.4964,2.5354,2.5397,2.5255,2.5001,2.4645,2.4129,2.3523,2.3188,2.2843,2.2416,2.1772,2.1054,2.0248,1.9262,1.8487,1.8092,1.7787,1.7767,1.8112,1.8645,1.9277,2.0047,2.0701,2.1271,2.1763,2.2399,2.287,2.3112,2.3814,2.4198,2.41,2.4486,2.441,2.3654,2.4908,2.6366,2.7877,2.8613,2.9386,3.0355,3.122,3.2141,3.3103,3.3655,3.4461,3.5661,3.6187,3.6618,3.7029,3.8243,3.9462,4.0424,4.0993,4.1549,4.2179,4.2561,4.283,4.2978,4.3014,4.3195,4.361,4.3597,4.3529,4.3742,4.4076,4.4441,4.4924,4.5644,4.65,4.6913,4.7288,4.7942,4.8548,4.8105,4.8125,4.9279,5.0125,5.0625,5.0773,5.0851,5.0939,5.0959,5.1067,5.1094,5.1084,5.1074,5.1089,5.1133,5.1145,5.1183,5.1341,5.1801,5.2263,5.3469,5.4283,5.4564,2.2313,2.2313,2.2313,2.2313,2.2313,2.2313,2.2313,2.2313,2.2313,2.2313,2.2338,2.2603,2.2775,2.2992,2.3639,2.4099,2.4476,2.4848,2.521,2.5457,2.5367,2.5173,2.4885,2.4499,2.3905,2.3247,2.2868,2.2489,2.2073,2.1507,2.0862,2.0181,1.9096,1.8444,1.8269,1.7787,1.784,1.8487,1.8902,1.9413,1.9984,2.0225,2.0585,2.1162,2.1778,2.2317,2.2771,2.374,2.4368,2.4489,2.5068,2.4818,2.3729,2.5165,2.691,2.8751,2.972,3.0468,3.1159,3.1794,3.267,3.3811,3.4037,3.4727,3.5952,3.6737,3.7187,3.7483,3.809,3.9037,4.0222,4.0963,4.1449,4.1814,4.224,4.25,4.2674,4.2693,4.2902,4.3392,4.3513,4.3479,4.3597,4.4129,4.4668,4.5085,4.6069,4.7192,4.7528,4.8144,4.8759,4.9567,4.9558,4.9558,4.976,5.0269,5.0654,5.0702,5.0791,5.0827,5.0824,5.0926,5.0985,5.0911,5.0966,5.1022,5.1025,5.1036,5.1311,5.1585,5.2246,5.3207,5.4246,5.4793,5.5176,2.2313,2.2313,2.231,2.2324,2.231,2.2324,2.2324,2.2363,2.2338,2.2324,2.2391,2.2621,2.2993,2.3473,2.3873,2.4298,2.4766,2.4998,2.5259,2.5461,2.543,2.5216,2.4894,2.448,2.3914,2.3276,2.2905,2.2378,2.1716,2.1597,2.1149,2.0299,1.9748,1.9277,1.8916,1.8391,1.8584,1.9467,1.9663,2.0054,2.0795,2.0579,2.0475,2.0677,2.1484,2.242,2.3144,2.3911,2.4511,2.4964,2.5089,2.4876,2.4601,2.5607,2.704,2.8686,2.9908,3.0673,3.1139,3.2402,3.3374,3.3647,3.4442,3.5274,3.6011,3.6547,3.7193,3.8107,3.8113,3.8611,3.9542,4.0424,4.1109,4.178,4.1848,4.2121,4.2635,4.2635,4.2939,4.3375,4.3479,4.3529,4.3546,4.414,4.4898,4.5584,4.6424,4.7442,4.8721,4.9221,4.9702,5.024,5.051,5.0587,5.0616,5.0616,5.0673,5.0702,5.0712,5.0721,5.0693,5.0702,5.073,5.0749,5.0764,5.0822,5.0879,5.1145,5.1573,5.2233,5.3475,5.4484,5.4843,5.5407,5.5689,2.2313,2.2324,2.249,2.2563,2.259,2.2781,2.287,2.2883,2.2883,2.287,2.2905,2.3113,2.3449,2.3826,2.4361,2.4695,2.4917,2.5135,2.5325,2.5479,2.5387,2.5244,2.5045,2.4563,2.4117,2.3692,2.3235,2.2652,2.2017,2.1929,2.1532,2.0781,2.0235,1.9878,1.972,1.9528,1.9851,2.0635,2.1025,2.1587,2.2322,2.2233,2.2164,2.215,2.2086,2.2426,2.3112,2.4411,2.5204,2.5389,2.5816,2.6043,2.5998,2.662,2.7701,2.9137,2.9879,3.0806,3.211,3.2943,3.3899,3.4877,3.4872,3.5506,3.6465,3.6216,3.6102,3.738,3.8746,3.9408,3.9699,4.0501,4.1447,4.2143,4.2041,4.2021,4.2442,4.2382,4.2482,4.3249,4.3496,4.3664,4.4095,4.4433,4.4991,4.5995,4.7007,4.8106,4.9125,4.9827,5.0317,5.0567,5.0683,5.0683,5.0683,5.0693,5.0683,5.0683,5.0702,5.0702,5.0693,5.0693,5.0721,5.0712,5.0693,5.0789,5.0932,5.1647,5.2073,5.329,5.4528,5.4923,5.5258,5.5595,5.5712,2.2313,2.2366,2.2603,2.2712,2.2733,2.3057,2.3189,2.3189,2.32,2.3241,2.3312,2.3434,2.3768,2.4219,2.4733,2.5037,2.5137,2.5279,2.5395,2.5479,2.5367,2.5273,2.5139,2.474,2.4323,2.396,2.3515,2.2995,2.2513,2.2447,2.2254,2.1904,2.1197,2.1022,2.1259,2.1013,2.1232,2.2041,2.2621,2.3161,2.3737,2.3802,2.3836,2.3851,2.3555,2.3457,2.3756,2.493,2.5744,2.5981,2.6437,2.6708,2.6758,2.7528,2.8406,2.9366,3.0236,3.128,3.2654,3.3272,3.414,3.5437,3.5266,3.5651,3.6841,3.5812,3.5721,3.6873,3.9205,4.0522,4.0482,4.1174,4.1985,4.2315,4.2021,4.2041,4.2596,4.2342,4.2599,4.3302,4.3668,4.3987,4.4468,4.4688,4.5404,4.6527,4.7547,4.8462,4.9606,5.0269,5.0683,5.0683,5.0683,5.0683,5.0683,5.0683,5.0683,5.0683,5.0683,5.0683,5.0683,5.0683,5.0721,5.0702,5.0779,5.0866,5.1318,5.2068,5.3106,5.428,5.4871,5.5278,5.5486,5.5639,5.5684,2.2282,2.2321,2.2651,2.2781,2.281,2.3141,2.3236,2.3305,2.3294,2.3447,2.3636,2.3592,2.4019,2.4568,2.4973,2.5207,2.5344,2.5379,2.5426,2.5483,2.5429,2.5319,2.5194,2.4996,2.4558,2.3979,2.3685,2.3454,2.3289,2.3353,2.3493,2.3536,2.2694,2.2701,2.3718,2.2704,2.2719,2.3654,2.4139,2.4588,2.5048,2.5071,2.5193,2.5449,2.5758,2.5653,2.5112,2.5512,2.6078,2.6605,2.6708,2.6708,2.6894,2.7977,2.8965,2.9449,3.0887,3.2041,3.2667,3.3437,3.4263,3.5129,3.5363,3.5834,3.6408,3.6042,3.5728,3.6264,3.9241,4.1572,4.1446,4.2037,4.2449,4.1976,4.1979,4.2162,4.2596,4.2731,4.2902,4.3441,4.3852,4.4288,4.4613,4.4986,4.5799,4.7141,4.7989,4.8798,5.0144,5.0616,5.0664,5.0683,5.0683,5.0683,5.0683,5.0683,5.0683,5.0683,5.0683,5.0683,5.0683,5.0702,5.0875,5.0933,5.1414,5.1548,5.2375,5.3126,5.3799,5.4761,5.5203,5.553,5.5607,5.5684,5.5621,2.1809,2.194,2.2738,2.3063,2.3117,2.3649,2.3979,2.409,2.4108,2.4215,2.4396,2.4555,2.4752,2.5008,2.5275,2.539,2.5393,2.5396,2.5426,2.5467,2.5386,2.5251,2.5114,2.4929,2.4609,2.4266,2.4618,2.4664,2.4523,2.4895,2.5165,2.4935,2.4441,2.4342,2.4675,2.4096,2.4226,2.4976,2.5188,2.5676,2.6509,2.6569,2.675,2.7107,2.7259,2.7201,2.7026,2.7121,2.7167,2.7131,2.7115,2.6987,2.6944,2.7624,2.8783,3.0058,3.1007,3.219,3.3346,3.4174,3.4949,3.5736,3.615,3.6845,3.7624,3.7176,3.644,3.6195,3.9316,4.2,4.262,4.2675,4.277,4.294,4.2638,4.2619,4.3087,4.3232,4.3321,4.3511,4.3901,4.4474,4.5175,4.5665,4.6434,4.7739,4.8539,4.9452,5.0366,5.0683,5.0683,5.0683,5.0683,5.0683,5.0683,5.0683,5.0683,5.0683,5.0683,5.0683,5.0683,5.0914,5.1068,5.151,5.1952,5.2549,5.3376,5.4049,5.4664,5.5088,5.5491,5.5645,5.5684,5.5673,5.5621,2.1597,2.1715,2.2737,2.3253,2.3377,2.403,2.4428,2.4591,2.4607,2.4719,2.4897,2.5,2.512,2.525,2.5284,2.5273,2.5271,2.5219,2.5191,2.5243,2.5243,2.5139,2.5004,2.4877,2.502,2.5245,2.5635,2.574,2.5568,2.6023,2.6324,2.6303,2.5645,2.56,2.5963,2.5341,2.527,2.5912,2.616,2.665,2.7365,2.7646,2.7816,2.8043,2.8228,2.8228,2.8116,2.8311,2.8179,2.7716,2.7774,2.7658,2.7188,2.8353,2.9591,3.0467,3.1554,3.2616,3.3726,3.4509,3.5371,3.6153,3.6741,3.7471,3.8399,3.8291,3.7914,3.748,4.0212,4.2734,4.3267,4.3232,4.3178,4.3444,4.3196,4.316,4.3444,4.3479,4.3479,4.361,4.399,4.4974,4.6156,4.6436,4.7144,4.8308,4.9048,4.9702,5.0404,5.0683,5.0683,5.0683,5.0683,5.0683,5.0683,5.0683,5.0683,5.0683,5.0683,5.0683,5.0683,5.1164,5.1471,5.2356,5.2933,5.3376,5.4145,5.4664,5.5222,5.5511,5.5684,5.5684,5.5684,5.5684,5.561,2.168,2.1862,2.2824,2.3411,2.3638,2.4211,2.4583,2.4775,2.4792,2.4911,2.5082,2.5062,2.5114,2.5265,2.5123,2.5036,2.5026,2.4923,2.4855,2.4883,2.4949,2.4965,2.4974,2.4939,2.5486,2.6459,2.6669,2.6657,2.6614,2.6834,2.7115,2.7602,2.6532,2.6361,2.7144,2.636,2.5981,2.6539,2.6969,2.7328,2.7722,2.8129,2.8342,2.8363,2.8694,2.8749,2.8559,2.8929,2.8932,2.83,2.8752,2.8652,2.8315,3.0068,3.1054,3.1045,3.2371,3.3227,3.3913,3.4766,3.5573,3.6431,3.7209,3.7863,3.8611,3.9372,3.9654,3.9115,4.1604,4.3391,4.3462,4.3444,4.3462,4.3479,4.3427,4.3444,4.3479,4.3479,4.3479,4.3634,4.4233,4.5462,4.7491,4.7357,4.7934,4.8827,4.9433,5.001,5.0414,5.0683,5.0683,5.0683,5.0683,5.0683,5.0683,5.0683,5.076,5.1144,5.1125,5.1106,5.126,5.1779,5.2337,5.3183,5.3857,5.4318,5.4722,5.5203,5.5472,5.5607,5.5684,5.5684,5.5684,5.5684,5.5566,2.2492,2.3304,2.3823,2.4038,2.4117,2.4403,2.4615,2.4811,2.491,2.5114,2.5334,2.5371,2.5325,2.5312,2.5114,2.4998,2.4901,2.4822,2.4707,2.4602,2.4625,2.5001,2.5321,2.531,2.5767,2.6706,2.7279,2.7493,2.753,2.7996,2.8388,2.8634,2.7676,2.7384,2.7691,2.686,2.6539,2.6669,2.6793,2.6906,2.7112,2.7689,2.8156,2.842,2.8773,2.8929,2.8875,2.9195,2.9585,2.9751,2.9606,2.9651,2.9689,3.0969,3.2069,3.2763,3.3063,3.3684,3.459,3.5477,3.6321,3.7144,3.7845,3.8469,3.8707,3.9682,4.0451,4.1073,4.2652,4.3479,4.3479,4.3479,4.3479,4.3479,4.3479,4.3479,4.3479,4.3479,4.3479,4.3586,4.4382,4.5941,4.7506,4.8247,4.8522,4.9307,4.9913,5.0327,5.0616,5.0683,5.0683,5.0683,5.0683,5.0683,5.0683,5.0683,5.0933,5.1519,5.1712,5.1788,5.2222,5.2876,5.351,5.4222,5.4645,5.5107,5.528,5.5588,5.5684,5.5684,5.5684,5.5684,5.5684,5.5684,5.5501,2.3063,2.3453,2.4052,2.4169,2.4026,2.4431,2.4746,2.4891,2.5059,2.5266,2.5464,2.5505,2.5485,2.5364,2.4933,2.4739,2.472,2.4595,2.4486,2.441,2.4374,2.5005,2.5762,2.5948,2.6484,2.7574,2.8062,2.8282,2.8356,2.8803,2.8899,2.8639,2.8188,2.7823,2.7589,2.7068,2.6707,2.6663,2.6551,2.6471,2.6724,2.7078,2.7741,2.8246,2.8658,2.8833,2.9156,2.9741,3.0293,3.0678,3.0784,3.0895,3.1157,3.2206,3.3115,3.3815,3.3856,3.4312,3.5021,3.6101,3.6978,3.7529,3.8248,3.8817,3.9224,3.9923,4.0767,4.177,4.289,4.3387,4.3479,4.3479,4.3479,4.3479,4.3479,4.3479,4.3479,4.3479,4.3479,4.3754,4.456,4.6116,4.8291,4.8734,4.9185,4.9796,5.0356,5.0577,5.0683,5.0683,5.0683,5.0683,5.0683,5.0683,5.0741,5.076,5.1298,5.1895,5.2837,5.2827,5.3173,5.3876,5.4318,5.4876,5.5376,5.5684,5.5684,5.5684,5.5684,5.5684,5.5684,5.5684,5.5684,5.5684,5.5501,2.3571,2.3069,2.3927,2.4017,2.3771,2.4454,2.4849,2.4986,2.5205,2.5376,2.5481,2.5521,2.5489,2.5504,2.4845,2.4521,2.4738,2.4675,2.4579,2.4587,2.4669,2.5239,2.6607,2.6374,2.7215,2.8528,2.895,2.8932,2.8877,2.8968,2.8773,2.8464,2.8106,2.771,2.738,2.6906,2.6724,2.6645,2.6393,2.6248,2.6455,2.6687,2.735,2.8166,2.8527,2.8983,2.9628,3.0387,3.1132,3.1569,3.21,3.2437,3.2656,3.3773,3.3975,3.3965,3.4408,3.4935,3.5404,3.6689,3.7642,3.7973,3.8637,3.9194,3.9948,4.0508,4.1196,4.2134,4.2939,4.3404,4.3479,4.3479,4.3479,4.3479,4.3479,4.3479,4.3479,4.3479,4.3479,4.3571,4.4526,4.6544,4.8356,4.9269,4.9293,5.0162,5.0616,5.0644,5.0683,5.0683,5.0683,5.0683,5.0683,5.0683,5.076,5.0837,5.1606,5.2395,5.378,5.428,5.428,5.4741,5.5011,5.5376,5.5588,5.5684,5.5684,5.5684,5.5684,5.5684,5.5684,5.5684,5.5684,5.5684,5.5577,2.4298,2.4952,2.4508,2.4226,2.4217,2.4611,2.4825,2.4871,2.5236,2.5421,2.5498,2.5508,2.5435,2.533,2.5223,2.5227,2.5464,2.5439,2.5615,2.5988,2.5393,2.609,2.7005,2.6606,2.7164,2.8553,2.8987,2.8987,2.8987,2.8964,2.8803,2.8407,2.8102,2.771,2.7303,2.6956,2.6707,2.6681,2.6551,2.6164,2.5961,2.6638,2.7376,2.8115,2.8625,2.9405,3.019,3.0763,3.1715,3.2926,3.3559,3.3926,3.4442,3.4548,3.4386,3.4265,3.4651,3.5404,3.6311,3.7254,3.8236,3.9058,3.9751,4.0522,4.0685,4.1521,4.2245,4.2922,4.3314,4.3545,4.3479,4.3479,4.3479,4.3479,4.3479,4.3479,4.3479,4.3479,4.3479,4.3773,4.4872,4.6716,4.9089,4.9424,4.9778,5.0514,5.0683,5.0683,5.0683,5.0683,5.0683,5.0683,5.0683,5.076,5.1183,5.151,5.2452,5.3126,5.4337,5.5184,5.5203,5.5261,5.5415,5.553,5.5645,5.5684,5.5684,5.5684,5.5684,5.5684,5.5684,5.5684,5.5684,5.5684,5.5915,2.4163,2.4538,2.4233,2.3975,2.3898,2.4339,2.4655,2.4873,2.5225,2.5424,2.5504,2.5522,2.5649,2.5903,2.611,2.6329,2.6366,2.6208,2.6276,2.6458,2.6153,2.6649,2.742,2.7167,2.7449,2.8822,2.8987,2.8987,2.8987,2.8964,2.8803,2.8433,2.8192,2.7837,2.7363,2.7084,2.6894,2.6664,2.6464,2.616,2.6141,2.6522,2.7677,2.8534,2.9264,3.0028,3.0898,3.1648,3.2495,3.3464,3.4189,3.4801,3.5295,3.5085,3.4832,3.5076,3.5312,3.6062,3.7008,3.7939,3.8917,3.9902,4.0577,4.129,4.1688,4.235,4.2795,4.3497,4.3856,4.392,4.3549,4.3479,4.3479,4.3479,4.3479,4.3479,4.3479,4.3479,4.3479,4.3842,4.5078,4.7069,4.8615,4.9485,4.9987,5.0604,5.0683,5.0683,5.0683,5.0683,5.0683,5.0683,5.0683,5.0914,5.151,5.2299,5.3453,5.4107,5.4838,5.5357,5.5511,5.5568,5.5665,5.5684,5.5684,5.5684,5.5684,5.5684,5.5684,5.5684,5.5684,5.5684,5.5838,5.6107,5.6376,2.3597,2.342,2.3677,2.3578,2.3385,2.4072,2.4582,2.4885,2.5236,2.5442,2.5488,2.5506,2.5825,2.648,2.7061,2.7317,2.7213,2.6962,2.679,2.7181,2.6906,2.7328,2.786,2.793,2.8047,2.8932,2.8987,2.8987,2.8987,2.8964,2.8803,2.8458,2.8394,2.8047,2.753,2.7288,2.7225,2.7044,2.6546,2.6728,2.7119,2.7267,2.8099,2.957,3.0259,3.0914,3.1744,3.2523,3.325,3.3658,3.4514,3.5089,3.5316,3.5389,3.5394,3.6241,3.6321,3.6808,3.7526,3.8492,3.9518,4.0443,4.1076,4.1958,4.2901,4.3219,4.3593,4.3998,4.4412,4.4169,4.3647,4.3513,4.3496,4.3479,4.3479,4.3534,4.3662,4.3714,4.3909,4.4277,4.5844,4.7824,4.9035,4.9962,5.0313,5.0575,5.0644,5.0693,5.0702,5.0731,5.0741,5.0894,5.0971,5.1895,5.2587,5.2895,5.4072,5.4764,5.5369,5.5514,5.5716,5.5684,5.5684,5.5684,5.5684,5.5684,5.5684,5.5684,5.5684,5.5684,5.5742,5.5799,5.6137,5.6541,5.6934,2.3097,2.3384,2.3336,2.3347,2.3572,2.4346,2.4815,2.5053,2.529,2.5471,2.5584,2.5523,2.5688,2.6237,2.7323,2.7642,2.746,2.7287,2.7614,2.8146,2.7934,2.8026,2.8528,2.8583,2.8773,2.8913,2.8987,2.8987,2.8987,2.8964,2.8797,2.8502,2.8433,2.8166,2.7823,2.7535,2.7563,2.752,2.7011,2.7327,2.8298,2.8716,2.9294,3.0837,3.133,3.2013,3.2797,3.3248,3.3781,3.4703,3.5164,3.5372,3.5672,3.5969,3.6421,3.6556,3.6942,3.736,3.7928,3.8915,3.9992,4.1054,4.2068,4.3033,4.3972,4.4566,4.4763,4.4859,4.4663,4.4198,4.3958,4.371,4.3531,4.3496,4.3533,4.3771,4.4318,4.4776,4.5159,4.5574,4.7064,4.8428,4.9508,5.0249,5.041,5.0615,5.0721,5.0749,5.0758,5.0807,5.0866,5.1097,5.1337,5.2606,5.3876,5.4001,5.4539,5.5172,5.5634,5.5625,5.5759,5.5716,5.5684,5.5684,5.5684,5.5684,5.5684,5.5684,5.5684,5.5684,5.5799,5.5945,5.6464,5.6983,5.7819,2.2077,2.2484,2.2812,2.3135,2.3588,2.4241,2.4772,2.5135,2.5338,2.5487,2.5543,2.5526,2.5539,2.5925,2.6776,2.7457,2.7845,2.7899,2.8288,2.8764,2.862,2.8565,2.8987,2.8987,2.8987,2.8987,2.8987,2.8987,2.8987,2.8987,2.8875,2.8773,2.8707,2.8515,2.821,2.802,2.7827,2.7768,2.7417,2.7606,2.8815,2.9245,3.0542,3.1777,3.2385,3.3005,3.3804,3.388,3.4151,3.4737,3.5022,3.5228,3.5974,3.7211,3.8192,3.7678,3.7559,3.7787,3.8424,3.9501,4.0719,4.1684,4.2939,4.4049,4.4786,4.5299,4.5575,4.5475,4.5333,4.475,4.4359,4.3989,4.3788,4.3726,4.3666,4.4071,4.4879,4.5705,4.6397,4.6993,4.798,4.9086,5.0108,5.0573,5.0573,5.0635,5.0766,5.0829,5.0874,5.1052,5.1247,5.177,5.2175,5.3126,5.4398,5.481,5.4932,5.5503,5.5843,5.5842,5.5779,5.575,5.5717,5.5684,5.5684,5.5684,5.5684,5.5684,5.5684,5.5722,5.5848,5.6118,5.6791,5.7484,5.8338,2.1214,2.1801,2.2436,2.3012,2.3611,2.416,2.4879,2.5431,2.5621,2.5799,2.589,2.5875,2.5963,2.6219,2.6757,2.7495,2.8394,2.8371,2.8597,2.8892,2.895,2.8968,2.8987,2.8987,2.8987,2.8987,2.8987,2.8987,2.8987,2.8987,2.8987,2.8952,2.8964,2.8863,2.8565,2.8603,2.817,2.7964,2.7376,2.7555,2.8648,2.9924,3.1419,3.302,3.3299,3.3811,3.4565,3.4419,3.4575,3.4823,3.4923,3.5088,3.6286,3.8642,3.974,3.9083,3.8284,3.8361,3.9094,4.0037,4.1213,4.2312,4.3531,4.4591,4.5287,4.5518,4.5594,4.5594,4.5531,4.5302,4.4757,4.4346,4.418,4.4147,4.4132,4.4445,4.5641,4.6666,4.7645,4.828,4.8929,4.9661,5.0576,5.0773,5.0735,5.0813,5.0937,5.128,5.1365,5.1645,5.1965,5.2614,5.3186,5.381,5.4689,5.5409,5.5512,5.5744,5.5982,5.601,5.5915,5.5797,5.5769,5.5726,5.5684,5.5684,5.5684,5.5799,5.5972,5.603,5.5983,5.6541,5.7665,5.8319,5.8934,2.1086,2.2252,2.251,2.3052,2.3858,2.4538,2.5497,2.6517,2.6514,2.6683,2.7007,2.6951,2.7347,2.793,2.7772,2.8022,2.8327,2.8471,2.8639,2.8964,2.8987,2.8987,2.8987,2.8987,2.8987,2.8987,2.8987,2.8987,2.8987,2.8987,2.8987,2.8987,2.9005,2.9007,2.9059,2.9232,2.9572,2.9328,2.786,2.8149,3.0333,3.1565,3.2657,3.358,3.4153,3.4517,3.4898,3.4744,3.4917,3.5501,3.4898,3.559,3.7367,3.8386,3.9494,3.9728,3.9588,3.9249,3.9988,4.0842,4.1732,4.2936,4.3952,4.4706,4.5306,4.5594,4.5594,4.5594,4.5594,4.5457,4.5085,4.4732,4.458,4.4764,4.4988,4.5707,4.6749,4.7432,4.8441,4.9246,4.9789,5.0244,5.0914,5.0901,5.0911,5.1004,5.1136,5.1496,5.1981,5.2369,5.2959,5.3686,5.3967,5.4522,5.4979,5.5705,5.5928,5.6032,5.6064,5.6139,5.6024,5.5891,5.5798,5.5759,5.5737,5.5818,5.6002,5.6145,5.6319,5.653,5.6722,5.7703,5.8973,5.9396,5.9473,2.1255,2.2196,2.2959,2.4017,2.5174,2.5879,2.6682,2.7371,2.7415,2.7619,2.8006,2.8011,2.8377,2.8849,2.8514,2.8458,2.8634,2.865,2.8754,2.8952,2.8987,2.8987,2.8987,2.8987,2.8987,2.8987,2.8987,2.8987,2.8987,2.8987,2.8987,2.9023,2.9042,2.9299,2.9635,2.9844,2.9985,2.9788,2.93,2.9564,3.0991,3.2054,3.2888,3.3745,3.419,3.4636,3.4917,3.4851,3.5109,3.5694,3.55,3.6055,3.7573,3.8932,4.0381,4.175,4.0957,4.0509,4.0735,4.1866,4.2811,4.3561,4.4441,4.5231,4.5537,4.5594,4.5594,4.5594,4.5594,4.5513,4.5352,4.5085,4.5247,4.5487,4.588,4.6846,4.7681,4.83,4.9071,4.9867,5.0556,5.0842,5.1047,5.1044,5.1044,5.1094,5.1351,5.1748,5.2559,5.3409,5.4103,5.4938,5.5023,5.5117,5.5489,5.5985,5.6141,5.6214,5.6141,5.6167,5.6103,5.5988,5.5915,5.5827,5.5754,5.5945,5.6272,5.6522,5.6722,5.7126,5.7569,5.8531,5.9415,5.9492,5.9704,2.1881,2.2862,2.3587,2.4779,2.6234,2.6931,2.767,2.8371,2.8312,2.8635,2.9081,2.9143,2.9244,2.9385,2.9139,2.8993,2.9043,2.8984,2.8956,2.8991,2.8987,2.8987,2.8987,2.8987,2.8987,2.8987,2.8987,2.8987,2.8987,2.9023,2.9097,2.928,2.9409,2.9806,3.0351,3.0682,3.0814,3.0892,3.0482,3.06,3.1259,3.2056,3.2746,3.3396,3.3932,3.4416,3.4784,3.5006,3.5321,3.5885,3.6324,3.6882,3.8098,3.9385,4.1025,4.2219,4.202,4.1866,4.221,4.2987,4.385,4.441,4.4892,4.5498,4.5556,4.5594,4.5594,4.5594,4.5594,4.5594,4.5589,4.5514,4.5894,4.6315,4.6771,4.7777,4.8687,4.9224,4.9692,5.025,5.081,5.1023,5.1191,5.1199,5.1206,5.1216,5.1534,5.2032,5.3094,5.429,5.4955,5.5675,5.5526,5.5518,5.5863,5.616,5.6325,5.6375,5.6312,5.6217,5.6133,5.6129,5.6114,5.598,5.5957,5.6511,5.7126,5.7146,5.7203,5.7915,5.8588,5.9031,5.955,5.9665,5.9896,2.3319,2.4933,2.4357,2.5002,2.6336,2.6987,2.81,2.9277,2.931,2.9685,3.0192,3.0187,3.0003,3.003,2.9796,2.9577,2.9452,2.9409,2.9198,2.9048,2.8987,2.8987,2.8987,2.8987,2.8987,2.8987,2.8987,2.8987,2.9042,2.917,2.9519,2.9996,2.9856,3.0522,3.1078,3.1372,3.1724,3.1742,3.1348,3.099,3.1403,3.2004,3.2656,3.3056,3.3705,3.4242,3.4344,3.499,3.5764,3.6364,3.6783,3.7596,3.872,3.9782,4.1284,4.248,4.3102,4.315,4.3785,4.3943,4.4282,4.4888,4.5361,4.5648,4.5653,4.5601,4.5594,4.5612,4.5629,4.5594,4.5817,4.6213,4.6541,4.7098,4.7691,4.8702,4.9527,5.0096,5.0519,5.0824,5.1026,5.1191,5.1484,5.1523,5.1367,5.1387,5.2383,5.2919,5.4079,5.5184,5.5669,5.6058,5.5833,5.5872,5.6179,5.6363,5.6458,5.648,5.6447,5.6301,5.6167,5.622,5.6488,5.6618,5.6733,5.7376,5.7877,5.7896,5.8165,5.8973,5.955,5.9819,6.0069,6.0262,6.0416,2.4599,2.5865,2.5909,2.6613,2.7716,2.8507,2.9333,3.0028,3.0148,3.0242,3.0514,3.0393,3.0326,3.0323,3.0334,3.0065,2.9722,2.9622,2.9336,2.9104,2.8987,2.8987,2.8987,2.8987,2.8987,2.8987,2.8987,2.8987,2.9023,2.939,3.0007,3.0314,3.0184,3.0531,3.1105,3.174,3.2055,3.2159,3.1692,3.121,3.137,3.2003,3.2548,3.2704,3.3497,3.4314,3.4908,3.528,3.6166,3.6962,3.7333,3.8121,3.912,4.0116,4.1571,4.3022,4.3605,4.4279,4.492,4.5024,4.5167,4.5375,4.5671,4.5783,4.5764,4.5669,4.5653,4.5665,4.574,4.5825,4.574,4.6374,4.7029,4.7731,4.8575,4.9577,5.021,5.0717,5.0956,5.1054,5.1128,5.1217,5.1582,5.1914,5.1699,5.1621,5.2754,5.3904,5.4999,5.5775,5.6134,5.6336,5.6116,5.6049,5.6328,5.6465,5.6572,5.6545,5.6534,5.6441,5.635,5.6842,5.7068,5.7244,5.758,5.8184,5.8569,5.8627,5.8973,5.9531,6.0012,6.0416,6.0646,6.0781,6.08,2.5458,2.6749,2.706,2.7821,2.8835,2.9546,3.0118,3.0582,3.0603,3.0546,3.0424,3.0422,3.0375,3.0365,3.0373,3.0148,2.9763,2.9585,2.9328,2.9119,2.8987,2.8987,2.8987,2.8987,2.8987,2.8987,2.8987,2.8987,2.9023,2.9806,3.0323,3.0536,3.057,3.1058,3.1473,3.1725,3.1927,3.1862,3.16,3.119,3.131,3.2021,3.2747,3.2965,3.3804,3.4733,3.5547,3.6099,3.6747,3.7472,3.7952,3.8215,3.9152,4.0389,4.2103,4.337,4.4254,4.4931,4.5505,4.5757,4.5722,4.5776,4.5836,4.5876,4.5852,4.577,4.5757,4.5838,4.6036,4.6249,4.6191,4.7086,4.7913,4.8663,4.9356,5.0208,5.0555,5.0971,5.1101,5.1227,5.1269,5.1328,5.166,5.2129,5.2891,5.2891,5.3769,5.4746,5.5542,5.6135,5.6321,5.6419,5.6361,5.634,5.6409,5.64,5.6381,5.6387,5.6401,5.6519,5.6646,5.7171,5.7836,5.823,5.8627,5.9069,5.9377,5.9608,5.9742,5.9915,6.0319,6.0685,6.0723,6.08,6.08,2.577,2.772,2.7535,2.8148,2.9269,2.9723,3.0191,3.0639,3.0657,3.0496,3.0274,3.0429,3.0254,2.9989,3.0016,2.9813,2.9609,2.9467,2.9278,2.9055,2.8987,2.8987,2.9115,2.9152,2.9159,2.9012,2.9115,2.9189,2.9023,2.9989,3.0498,3.0956,3.1319,3.1809,3.2344,3.1987,3.1603,3.1308,3.123,3.121,3.1536,3.2144,3.2769,3.3645,3.4319,3.5207,3.6237,3.6879,3.7465,3.8021,3.8503,3.8672,3.8877,4.0373,4.2453,4.4987,4.4742,4.5047,4.5699,4.5832,4.5909,4.5923,4.5963,4.5978,4.5948,4.5905,4.5886,4.5972,4.6878,4.7276,4.7672,4.8144,4.8807,4.9355,4.999,5.0557,5.0895,5.1074,5.1187,5.1289,5.1367,5.1465,5.1797,5.2363,5.3672,5.4375,5.5,5.5625,5.6172,5.6403,5.6515,5.6504,5.6484,5.6438,5.6387,5.6242,5.6203,5.6213,5.6408,5.6719,5.7111,5.7641,5.8315,5.9056,5.9492,5.9781,6.0242,6.0685,6.0531,6.0358,6.0531,6.0762,6.0781,6.08,6.08,2.6342,2.7931,2.821,2.8849,2.969,3.0048,3.0367,3.0584,3.0579,3.041,3.0196,3.0094,2.9942,2.972,2.9498,2.9415,2.9438,2.9418,2.9257,2.901,2.8987,2.939,2.9604,2.9671,2.9537,2.9276,2.9392,2.9485,2.9023,3.0281,3.0737,3.1101,3.1918,3.2132,3.1969,3.164,3.1291,3.123,3.1247,3.1436,3.2007,3.2423,3.3074,3.4133,3.4783,3.5775,3.6993,3.7612,3.8066,3.8587,3.9034,3.9089,3.9294,4.0612,4.3041,4.5115,4.5325,4.5632,4.6017,4.6165,4.6115,4.6087,4.6106,4.6133,4.6172,4.6172,4.6104,4.6352,4.7391,4.7592,4.741,4.8496,4.922,4.9508,5.0061,5.0683,5.1036,5.1121,5.1211,5.1308,5.1406,5.2246,5.2754,5.2988,5.4043,5.5019,5.5605,5.5879,5.6348,5.6484,5.6582,5.6582,5.6562,5.6484,5.6425,5.6463,5.6531,5.6657,5.6951,5.7324,5.7754,5.8227,5.88,5.9518,6.0015,6.0473,6.0646,6.08,6.08,6.0762,6.08,6.08,6.08,6.08,6.08,2.7012,2.8508,2.8837,2.9381,3.0012,3.0235,3.0429,3.0553,3.0522,3.0325,3.0016,2.9749,2.9561,2.9411,2.9184,2.9041,2.9257,2.9246,2.9243,2.9005,2.8987,2.9464,2.9946,3.0309,3.0157,2.9897,3.0095,3.0241,3.0116,3.1121,3.1902,3.2408,3.2593,3.2745,3.2429,3.1987,3.1512,3.1514,3.1588,3.185,3.2494,3.3116,3.3745,3.4728,3.5629,3.6578,3.7595,3.8229,3.86,3.9139,3.9392,3.9532,4.0013,4.1342,4.3532,4.4996,4.5794,4.6005,4.6201,4.6289,4.623,4.6177,4.6268,4.6289,4.6289,4.6269,4.6465,4.6864,4.7748,4.808,4.8225,4.9366,4.983,5.0144,5.0361,5.0973,5.1101,5.1171,5.125,5.1348,5.1601,5.2578,5.3574,5.3984,5.4453,5.5312,5.6133,5.6328,5.6484,5.6543,5.6582,5.6562,5.6523,5.6406,5.6578,5.6869,5.6973,5.7099,5.7501,5.7948,5.846,5.896,5.9466,5.9895,6.0323,6.0627,6.0723,6.08,6.08,6.08,6.08,6.08,6.08,6.08,6.08,2.7734,2.9521,2.9424,2.9674,3.0235,3.032,3.0411,3.0583,3.0494,3.0164,2.9686,2.9573,2.9373,2.9075,2.8984,2.9026,2.9044,2.9033,2.9028,2.904,2.9055,2.9596,3.0164,3.0601,3.0687,3.0924,3.107,3.1119,3.1505,3.2051,3.3018,3.3912,3.3728,3.3642,3.3221,3.2719,3.2189,3.2053,3.2039,3.2472,3.3245,3.3921,3.4645,3.5566,3.6549,3.7477,3.8324,3.8837,3.917,3.9493,3.9649,3.9984,4.0701,4.1848,4.3616,4.5028,4.5781,4.6042,4.623,4.6289,4.6289,4.625,4.625,4.6289,4.6289,4.6308,4.6562,4.7417,4.8422,4.9075,4.9664,5.0238,5.0814,5.0908,5.0918,5.1125,5.1149,5.1224,5.1295,5.1406,5.1562,5.2344,5.3476,5.4121,5.4844,5.5723,5.6387,5.6426,5.6562,5.6562,5.6562,5.6445,5.6387,5.6289,5.6537,5.6935,5.7388,5.7524,5.8139,5.8632,5.9161,5.963,5.9977,6.0342,6.0619,6.08,6.08,6.08,6.08,6.08,6.0812,6.08,6.08,6.08,6.08,2.7757,2.9642,2.9651,2.989,3.0288,3.0463,3.0486,3.0362,3.0215,2.9889,2.9503,2.9493,2.9293,2.9028,2.8987,2.8987,2.8987,2.8987,2.8987,2.9044,2.9178,2.9802,3.049,3.1141,3.1288,3.1327,3.1431,3.1644,3.1579,3.2288,3.3573,3.4415,3.4469,3.4384,3.4142,3.3722,3.3113,3.2703,3.2657,3.3204,3.3962,3.4628,3.5423,3.6307,3.719,3.8066,3.8656,3.9236,3.9517,3.9599,4.0053,4.0411,4.055,4.2049,4.3808,4.5506,4.5967,4.6113,4.625,4.6289,4.6289,4.6269,4.6211,4.6152,4.6191,4.6321,4.6638,4.773,4.9197,5.0094,5.0248,5.0633,5.1015,5.1065,5.1091,5.1151,5.1169,5.1211,5.1288,5.1445,5.1601,5.2558,5.3652,5.4512,5.5254,5.6133,5.6621,5.6621,5.6621,5.6621,5.6543,5.6445,5.6292,5.6207,5.6511,5.6898,5.7482,5.8003,5.8704,5.9377,5.9915,6.035,6.0531,6.0666,6.0762,6.08,6.08,6.0781,6.0793,6.0812,6.0823,6.0812,6.0793,6.0831,6.0823,2.8375,2.9697,2.9777,3.0032,3.0399,3.0541,3.0482,3.0254,3.0055,2.9823,2.9532,2.9481,2.9294,2.9021,2.8987,2.8987,2.8987,2.8987,2.8987,2.9055,2.9289,2.989,3.0679,3.1356,3.1443,3.1535,3.1819,3.2141,3.2075,3.3291,3.4679,3.4993,3.501,3.4967,3.4829,3.4486,3.4158,3.3773,3.3672,3.4024,3.4605,3.5372,3.6223,3.6851,3.7681,3.852,3.8989,3.9557,3.9754,3.9954,4.0494,4.0781,4.1212,4.2728,4.4393,4.5924,4.6036,4.615,4.6269,4.6289,4.6289,4.6269,4.6174,4.6084,4.6047,4.6114,4.6872,4.7903,4.9742,5.1093,5.0915,5.08,5.0898,5.0994,5.1069,5.1143,5.1172,5.1199,5.1324,5.1471,5.2109,5.3047,5.3965,5.4824,5.5566,5.625,5.6621,5.6621,5.6621,5.6621,5.6543,5.6426,5.6266,5.616,5.6571,5.7168,5.8011,5.8781,5.9531,6.0185,6.0704,6.0781,6.0723,6.0723,6.0781,6.08,6.08,6.0793,6.0804,6.0827,6.0869,6.0934,6.0945,6.0954,6.0945,2.9265,2.9887,2.9878,3.0156,3.0547,3.0581,3.0463,3.0217,3.0072,2.9869,2.9662,2.9493,2.9246,2.9051,2.8987,2.8987,2.8987,2.8987,2.9044,2.9044,2.9343,2.9867,3.0434,3.1042,3.1306,3.1747,3.2244,3.267,3.3045,3.4102,3.5249,3.5586,3.5407,3.532,3.5296,3.509,3.4905,3.4931,3.4745,3.485,3.5332,3.6202,3.7219,3.7553,3.8531,3.9577,3.9667,3.9875,4.011,4.0481,4.0937,4.1256,4.2466,4.3831,4.5468,4.5989,4.6095,4.6199,4.6269,4.6289,4.6289,4.625,4.6171,4.6039,4.5962,4.5951,4.6672,4.8103,4.9867,5.0772,5.0798,5.0715,5.0762,5.0754,5.0748,5.0811,5.087,5.1003,5.1262,5.1577,5.2344,5.3359,5.4863,5.5742,5.5898,5.6445,5.6621,5.6621,5.6621,5.6621,5.6582,5.6499,5.6573,5.6626,5.7082,5.7786,5.8751,5.9569,6.0204,6.0531,6.0742,6.08,6.08,6.08,6.08,6.08,6.0781,6.0793,6.0811,6.0882,6.0945,6.1076,6.1097,6.1081,6.11,2.8847,2.993,3.0265,3.0455,3.0532,3.0565,3.0517,3.034,3.0084,2.9813,2.9513,2.9414,2.9278,2.9089,2.9048,2.9048,2.9044,2.9115,2.9138,2.9293,2.9542,2.9782,3.0319,3.1087,3.1187,3.1316,3.1956,3.3346,3.3897,3.4922,3.5621,3.5616,3.5553,3.5613,3.5691,3.5519,3.5558,3.5677,3.5984,3.6016,3.6439,3.6952,3.7699,3.8411,3.9431,3.9804,3.9924,4.0068,4.0167,4.0372,4.1361,4.2418,4.3758,4.5342,4.6011,4.6132,4.6191,4.625,4.6289,4.6289,4.6289,4.623,4.6117,4.5988,4.5912,4.5903,4.663,4.8231,4.9461,5.0197,5.0657,5.0618,5.0572,5.0492,5.0444,5.0494,5.0552,5.0878,5.1203,5.1806,5.2535,5.3965,5.5527,5.6191,5.6387,5.6504,5.6582,5.6621,5.6621,5.6621,5.6699,5.6723,5.7072,5.7263,5.7765,5.8288,5.9183,5.9781,6.03,6.0589,6.0781,6.08,6.08,6.08,6.08,6.08,6.08,6.0781,6.0823,6.0895,6.0963,6.1065,6.1188,6.1208,6.1253,2.8446,2.9358,3.0248,3.0534,3.048,3.055,3.0532,3.0402,3.0248,2.9988,2.9678,2.957,2.9455,2.9306,2.9295,2.9283,2.9293,2.9324,2.9407,2.957,2.9722,2.9869,3.0419,3.1098,3.0932,3.1097,3.3077,3.4462,3.483,3.5229,3.5659,3.5725,3.5783,3.5845,3.5944,3.5871,3.5848,3.5983,3.6709,3.7202,3.7518,3.8098,3.8528,3.9302,3.9759,4.012,4.0314,4.0461,4.0718,4.1153,4.2141,4.3568,4.4776,4.5863,4.6195,4.6221,4.625,4.6289,4.6289,4.6289,4.6289,4.6211,4.6067,4.5916,4.5945,4.6012,4.6524,4.8006,4.919,5.0007,5.0185,5.0197,5.0207,5.0174,5.0257,5.0375,5.0587,5.0895,5.1093,5.1381,5.2656,5.4648,5.5898,5.6406,5.6543,5.6543,5.6601,5.6621,5.6621,5.6719,5.6777,5.7022,5.742,5.8143,5.8875,5.9174,5.9546,6.005,6.0454,6.0627,6.08,6.08,6.08,6.08,6.08,6.08,6.08,6.08,6.0858,6.0945,6.0981,6.104,6.1154,6.1273,6.1325,2.8029,2.8736,3.0038,3.0526,3.0448,3.0542,3.0517,3.0419,3.0383,3.0285,3.0072,2.9897,2.9791,2.9713,2.9724,2.9705,2.967,2.9579,2.9652,2.9782,2.9901,3.0013,3.0449,3.1047,3.1282,3.2278,3.4046,3.493,3.5466,3.569,3.5794,3.5907,3.595,3.5976,3.5976,3.5956,3.5956,3.621,3.6834,3.7676,3.8409,3.9187,3.9446,3.9844,4.0295,4.0756,4.0809,4.1059,4.1429,4.2098,4.2933,4.4341,4.5381,4.6172,4.6211,4.6269,4.6269,4.6289,4.6289,4.6289,4.6289,4.6202,4.6024,4.5933,4.5978,4.6197,4.6689,4.775,4.8934,4.9719,4.9898,4.9949,4.9961,4.9979,5.0122,5.0331,5.0643,5.105,5.125,5.1418,5.3183,5.5254,5.6015,5.6523,5.6621,5.6621,5.6621,5.6621,5.666,5.6855,5.6973,5.7441,5.7966,5.8788,5.967,5.9981,6.005,6.0281,6.0646,6.0742,6.08,6.08,6.08,6.08,6.08,6.08,6.08,6.08,6.0871,6.0935,6.0999,6.1031,6.1123,6.1232,6.1368,2.7586,2.9144,3.0185,3.056,3.0491,3.0582,3.0536,3.0436,3.0457,3.0424,3.04,3.0384,3.0186,2.9713,2.9827,2.9859,2.9834,2.9802,2.9842,2.9947,3.0046,3.0164,3.0573,3.1416,3.2428,3.3648,3.4821,3.5422,3.5721,3.5811,3.5873,3.591,3.5954,3.5954,3.5917,3.5913,3.5965,3.6332,3.7243,3.8219,3.8508,3.9226,4.0015,4.0421,4.0759,4.0878,4.1054,4.1562,4.1852,4.2453,4.3495,4.4888,4.5703,4.6269,4.6289,4.6289,4.6289,4.6289,4.6289,4.6289,4.6289,4.6198,4.6024,4.5909,4.5872,4.5771,4.6607,4.791,4.902,4.9931,5.0205,5.004,4.9992,4.9995,5.0061,5.0461,5.0807,5.1532,5.212,5.2811,5.4023,5.5449,5.6348,5.6621,5.6621,5.6621,5.6621,5.6621,5.6621,5.6875,5.7207,5.7871,5.8496,5.9095,5.982,6.0344,6.0531,6.0723,6.08,6.08,6.08,6.08,6.08,6.08,6.08,6.08,6.08,6.08,6.0816,6.086,6.0954,6.1031,6.1093,6.1174,6.1276]}]]